[[{"header":{"parameterUnit":"m.s-1","parameterCategory":1,"la1":30.6,"la2":29.2853,"lo1":-89.7004,"lo2":-87.6739,"dy":0.0162,"dx":0.0183,"nx":112,"ny":82,"refTime":"2025-09-05T12:00:00:Z","depth":0,"parameterNumber":2,"parameterNumberName":"U-component_of_WINDS"},"data":[0.0,0.0,0.0,0.0,0.0,0.0,0.0,0.0,0.0,0.0,0.0,0.0,0.0,0.0,0.0,0.0,0.0,0.0,0.0,0.0,0.0,0.0,0.0,0.0,0.0,0.0,0.0,0.0,0.0,0.0,0.0,0.0,0.0,0.0,0.0,0.0,0.0,0.0,0.0,0.0,0.0,0.0,0.0,0.0,0.0,0.0,0.0,0.0,0.0,0.0,0.0,0.0,0.0,0.0,0.0,0.0,0.0,0.0,0.0,0.0,0.0,0.0,0.0,0.0,0.0,0.0,0.0,0.0,0.0,0.0,0.0,0.0,0.0,0.0,0.0,0.0,0.0,0.0,0.0,0.0,0.0,0.0,0.0,0.0,0.0,0.0,0.0,0.0,0.0,0.0,0.0,2.9524,3.2658,3.451,3.4257,3.4318,3.2739,2.9079,0.0,0.0,0.0,0.0,0.0,0.0,0.0,0.0,0.0,0.0,0.0,0.0,0.0,0.0,0.0,0.0,0.0,0.0,0.0,0.0,0.0,0.0,0.0,0.0,0.0,0.0,0.0,0.0,0.0,0.0,0.0,0.0,0.0,0.0,0.0,0.0,0.0,0.0,0.0,0.0,0.0,0.0,0.0,0.0,0.0,0.0,0.0,0.0,0.0,0.0,0.0,0.0,0.0,0.0,0.0,0.0,0.0,0.0,0.0,0.0,0.0,0.0,0.0,0.0,0.0,0.0,0.0,0.0,0.0,0.0,0.0,0.0,0.0,0.0,0.0,0.0,0.0,0.0,0.0,0.0,0.0,0.0,0.0,0.0,0.0,0.0,0.0,0.0,0.0,0.0,0.0,0.0,0.0,0.0,0.0,0.0,0.0,0.0,0.0,0.0,0.0,0.0,0.0,0.0,2.7992,3.185,3.3368,3.4075,3.4051,3.2892,3.1153,2.8727,0.0,0.0,0.0,0.0,0.0,0.0,0.0,0.0,0.0,0.0,0.0,0.0,0.0,0.0,0.0,0.0,0.0,0.0,0.0,0.0,0.0,0.0,0.0,0.0,0.0,0.0,0.0,0.0,0.0,0.0,0.0,0.0,0.0,0.0,0.0,0.0,0.0,0.0,0.0,0.0,0.0,0.0,0.0,0.0,0.0,0.0,0.0,0.0,0.0,0.0,0.0,0.0,0.0,0.0,0.0,0.0,0.0,0.0,0.0,0.0,0.0,0.0,0.0,0.0,0.0,0.0,0.0,0.0,0.0,0.0,0.0,0.0,0.0,0.0,0.0,0.0,0.0,0.0,0.0,0.0,0.0,0.0,0.0,0.0,0.0,0.0,0.0,0.0,0.0,0.0,0.0,0.0,0.0,0.0,0.0,0.0,0.0,0.0,0.0,0.0,0.0,0.0,0.0,2.7338,2.9492,3.2878,3.3971,3.4386,3.4244,3.3033,3.1199,2.8667,2.6892,0.0,0.0,0.0,0.0,0.0,0.0,0.0,0.0,0.0,0.0,0.0,0.0,0.0,0.0,0.0,0.0,0.0,0.0,0.0,0.0,0.0,0.0,0.0,0.0,0.0,0.0,0.0,0.0,0.0,0.0,0.0,0.0,0.0,0.0,0.0,0.0,0.0,0.0,0.0,0.0,0.0,0.0,0.0,0.0,0.0,0.0,0.0,0.0,0.0,0.0,0.0,0.0,0.0,0.0,0.0,0.0,0.0,0.0,0.0,0.0,0.0,0.0,0.0,0.0,0.0,0.0,0.0,0.0,0.0,0.0,0.0,0.0,0.0,0.0,0.0,0.0,0.0,0.0,0.0,0.0,0.0,0.0,0.0,0.0,0.0,0.0,0.0,0.0,0.0,0.0,0.0,0.0,0.0,0.0,0.0,0.0,0.0,0.0,0.0,0.0,0.0,0.0,2.948,3.0989,3.3364,3.4308,3.46,3.4168,3.293,3.1,2.8306,2.5498,0.0,0.0,0.0,0.0,0.0,0.0,0.0,0.0,0.0,0.0,0.0,0.0,0.0,0.0,0.0,0.0,0.0,0.0,0.0,0.0,0.0,0.0,0.0,0.0,0.0,0.0,0.0,0.0,0.0,0.0,0.0,0.0,0.0,0.0,0.0,0.0,0.0,0.0,0.0,0.0,0.0,0.0,0.0,0.0,0.0,0.0,0.0,0.0,0.0,0.0,0.0,0.0,0.0,0.0,0.0,0.0,0.0,0.0,0.0,0.0,0.0,0.0,0.0,0.0,0.0,0.0,0.0,0.0,0.0,0.0,0.0,0.0,0.0,0.0,0.0,0.0,0.0,0.0,0.0,0.0,0.0,0.0,0.0,0.0,0.0,0.0,0.0,0.0,0.0,0.0,0.0,0.0,0.0,0.0,0.0,0.0,0.0,0.0,0.0,0.0,0.0,0.0,3.0153,3.2071,3.3463,3.4317,3.4414,3.3475,3.15,2.9361,2.7138,2.4097,0.0,0.0,0.0,0.0,0.0,0.0,0.0,0.0,0.0,0.0,0.0,0.0,0.0,0.0,0.0,0.0,0.0,0.0,0.0,0.0,0.0,0.0,0.0,0.0,0.0,0.0,0.0,0.0,0.0,0.0,0.0,0.0,0.0,0.0,0.0,0.0,0.0,0.0,0.0,0.0,0.0,0.0,0.0,0.0,0.0,0.0,0.0,0.0,0.0,0.0,0.0,0.0,0.0,0.0,0.0,0.0,0.0,0.0,0.0,0.0,0.0,0.0,0.0,0.0,0.0,0.0,0.0,0.0,0.0,0.0,0.0,0.0,0.0,0.0,0.0,0.0,0.0,0.0,0.0,0.0,0.0,0.0,0.0,0.0,0.0,0.0,0.0,0.0,0.0,0.0,0.0,0.0,0.0,0.0,0.0,0.0,0.0,0.0,0.0,0.0,0.0,0.0,2.878,3.058,0.0,3.2417,3.2392,3.1394,3.0513,2.8854,2.6144,0.0,0.0,0.0,0.0,0.0,0.0,0.0,0.0,0.0,0.0,0.0,0.0,0.0,0.0,0.0,0.0,0.0,0.0,0.0,0.0,0.0,0.0,0.0,0.0,0.0,0.0,0.0,0.0,0.0,0.0,0.0,0.0,0.0,0.0,0.0,0.0,0.0,0.0,0.0,0.0,0.0,0.0,0.0,0.0,0.0,0.0,0.0,0.0,0.0,0.0,0.0,0.0,0.0,0.0,0.0,0.0,0.0,0.0,0.0,0.0,0.0,0.0,0.0,0.0,0.0,0.0,0.0,0.0,0.0,0.0,0.0,0.0,0.0,0.0,0.0,0.0,0.0,0.0,0.0,0.0,0.0,0.0,0.0,0.0,0.0,0.0,0.0,0.0,0.0,0.0,0.0,0.0,0.0,0.0,0.0,0.0,0.0,0.0,0.0,0.0,0.0,0.0,2.5509,2.7803,2.9636,0.0,3.1302,3.1192,3.0185,2.9478,2.7954,2.5308,0.0,0.0,0.0,0.0,0.0,0.0,0.0,0.0,0.0,0.0,0.0,0.0,0.0,0.0,0.0,0.0,0.0,0.0,0.0,0.0,0.0,0.0,0.0,0.0,0.0,0.0,0.0,0.0,0.0,0.0,0.0,0.0,0.0,0.0,0.0,0.0,0.0,0.0,0.0,0.0,0.0,0.0,0.0,0.0,0.0,0.0,0.0,0.0,0.0,0.0,0.0,0.0,0.0,0.0,0.0,0.0,0.0,0.0,0.0,0.0,0.0,0.0,0.0,0.0,0.0,0.0,0.0,0.0,0.0,0.0,0.0,0.0,0.0,0.0,0.0,0.0,0.0,0.0,0.0,0.0,0.0,0.0,0.0,0.0,0.0,0.0,0.0,0.0,0.0,0.0,0.0,0.0,0.0,0.0,0.0,0.0,0.0,0.0,0.0,0.0,0.0,0.0,2.4839,2.7498,2.9674,3.0678,3.1251,3.1167,3.0136,2.8237,2.6382,0.0,0.0,0.0,0.0,0.0,0.0,0.0,0.0,0.0,0.0,0.0,0.0,0.0,0.0,0.0,0.0,0.0,0.0,0.0,0.0,0.0,0.0,0.0,0.0,0.0,0.0,0.0,0.0,0.0,0.0,0.0,0.0,0.0,0.0,0.0,0.0,0.0,0.0,0.0,0.0,0.0,0.0,0.0,0.0,0.0,0.0,0.0,0.0,0.0,0.0,0.0,0.0,0.0,0.0,0.0,0.0,0.0,0.0,0.0,0.0,0.0,0.0,0.0,0.0,0.0,0.0,0.0,0.0,0.0,0.0,0.0,0.0,0.0,0.0,0.0,0.0,0.0,0.0,0.0,0.0,0.0,0.0,0.0,0.0,0.0,0.0,0.0,0.0,0.0,0.0,0.0,0.0,0.0,0.0,0.0,0.0,0.0,0.0,0.0,0.0,0.0,0.0,0.0,2.4701,2.7126,2.8807,2.9039,2.9189,2.8906,2.7991,2.7417,2.6046,2.3562,0.0,0.0,0.0,0.0,0.0,0.0,0.0,0.0,0.0,0.0,0.0,0.0,0.0,0.0,0.0,0.0,0.0,0.0,0.0,0.0,0.0,0.0,0.0,0.0,0.0,0.0,0.0,0.0,0.0,0.0,0.0,0.0,0.0,0.0,0.0,0.0,0.0,0.0,0.0,0.0,0.0,0.0,0.0,0.0,0.0,0.0,0.0,0.0,0.0,0.0,0.0,0.0,0.0,0.0,0.0,0.0,0.0,0.0,0.0,0.0,0.0,0.0,0.0,0.0,0.0,0.0,0.0,0.0,0.0,0.0,0.0,0.0,0.0,0.0,0.0,0.0,0.0,0.0,0.0,0.0,0.0,0.0,0.0,0.0,0.0,0.0,0.0,0.0,0.0,0.0,0.0,0.0,0.0,0.0,0.0,0.0,0.0,0.0,0.0,0.0,0.0,0.0,2.4247,2.644,2.7993,2.8283,2.8301,2.8008,2.7324,2.7013,2.5811,2.3491,0.0,0.0,0.0,0.0,0.0,0.0,0.0,0.0,0.0,0.0,0.0,0.0,0.0,0.0,0.0,0.0,0.0,0.0,0.0,0.0,0.0,0.0,0.0,0.0,0.0,0.0,0.0,0.0,0.0,0.0,0.0,0.0,0.0,0.0,0.0,0.0,0.0,0.0,0.0,0.0,0.0,0.0,0.0,0.0,0.0,0.0,0.0,0.0,0.0,0.0,0.0,0.0,0.0,0.0,0.0,0.0,0.0,0.0,0.0,0.0,0.0,0.0,0.0,0.0,0.0,0.0,0.0,0.0,0.0,0.0,0.0,0.0,0.0,0.0,0.0,0.0,0.0,0.0,0.0,0.0,0.0,0.0,0.0,0.0,0.0,0.0,0.0,0.0,0.0,0.0,0.0,0.0,0.0,0.0,0.0,0.0,0.0,0.0,0.0,0.0,0.0,0.0,2.3722,2.5742,2.7383,2.8203,2.8301,2.8151,2.7721,2.6939,2.5748,2.4087,0.0,0.0,0.0,0.0,0.0,0.0,0.0,0.0,0.0,0.0,0.0,0.0,0.0,0.0,0.0,0.0,0.0,0.0,0.0,0.0,0.0,0.0,0.0,0.0,0.0,0.0,0.0,0.0,0.0,0.0,0.0,0.0,0.0,0.0,0.0,0.0,0.0,0.0,0.0,0.0,0.0,0.0,0.0,0.0,0.0,0.0,0.0,0.0,0.0,0.0,0.0,0.0,0.0,0.0,0.0,0.0,0.0,0.0,0.0,0.0,2.91,0.0,0.0,0.0,0.0,0.0,0.0,0.0,0.0,0.0,0.0,0.0,0.0,0.0,0.0,0.0,0.0,0.0,0.0,0.0,0.0,0.0,0.0,0.0,0.0,0.0,0.0,0.0,0.0,0.0,0.0,0.0,0.0,0.0,0.0,0.0,0.0,0.0,0.0,0.0,0.0,0.0,2.4102,2.6172,2.7741,2.8242,2.8301,2.8151,2.7721,2.7187,2.6006,2.3969,2.2642,0.0,0.0,0.0,0.0,0.0,0.0,0.0,0.0,0.0,0.0,0.0,0.0,0.0,0.0,0.0,0.0,0.0,0.0,0.0,0.0,0.0,0.0,0.0,0.0,0.0,0.0,0.0,0.0,0.0,0.0,0.0,0.0,0.0,0.0,0.0,0.0,0.0,0.0,0.0,0.0,0.0,0.0,0.0,0.0,0.0,0.0,0.0,0.0,0.0,0.0,0.0,0.0,0.0,0.0,0.0,0.0,0.0,0.0,0.0,0.0,3.0545,0.0,0.0,0.0,0.0,0.0,0.0,0.0,0.0,0.0,0.0,0.0,0.0,0.0,0.0,0.0,0.0,0.0,0.0,0.0,0.0,0.0,0.0,0.0,0.0,0.0,0.0,0.0,0.0,0.0,0.0,0.0,0.0,0.0,0.0,0.0,0.0,0.0,0.0,0.0,0.0,2.484,2.6758,2.8125,2.8555,2.8594,2.8418,2.8034,2.7604,2.6758,2.543,2.3945,0.0,0.0,0.0,0.0,0.0,0.0,0.0,0.0,0.0,0.0,0.0,0.0,0.0,0.0,0.0,0.0,0.0,0.0,0.0,0.0,0.0,0.0,0.0,0.0,0.0,0.0,0.0,0.0,0.0,0.0,0.0,0.0,0.0,0.0,0.0,0.0,0.0,0.0,0.0,0.0,0.0,0.0,0.0,0.0,0.0,0.0,0.0,0.0,0.0,0.0,0.0,0.0,0.0,3.0567,3.1717,3.3614,3.3614,3.4412,3.5767,3.4044,3.36,3.3982,0.0,0.0,0.0,0.0,0.0,0.0,0.0,0.0,0.0,0.0,0.0,0.0,0.0,0.0,0.0,0.0,0.0,0.0,0.0,0.0,0.0,0.0,0.0,0.0,0.0,2.9196,2.8897,0.0,0.0,0.0,0.0,0.0,0.0,0.0,0.0,0.0,0.0,0.0,0.0,2.564,2.7402,2.8652,2.9004,2.9023,2.8887,2.8555,2.823,2.78,2.7266,2.5488,2.4043,0.0,0.0,0.0,0.0,0.0,0.0,0.0,0.0,0.0,0.0,0.0,0.0,0.0,0.0,0.0,0.0,0.0,0.0,0.0,0.0,0.0,0.0,0.0,0.0,0.0,0.0,0.0,0.0,0.0,0.0,0.0,0.0,2.5283,2.5998,0.0,0.0,0.0,0.0,0.0,0.0,0.0,0.0,0.0,0.0,0.0,0.0,0.0,2.9658,3.0528,3.1921,3.2879,3.3406,3.4804,3.5816,3.6455,3.6455,3.6588,3.6809,3.6516,0.0,3.4703,3.4823,0.0,0.0,0.0,0.0,0.0,0.0,0.0,0.0,0.0,0.0,0.0,0.0,0.0,0.0,0.0,0.0,0.0,0.0,0.0,0.0,0.0,0.0,3.1204,3.0305,3.0295,2.9987,0.0,2.7078,2.6302,2.5615,0.0,0.0,0.0,0.0,0.0,0.0,0.0,0.0,2.623,2.8151,2.9461,2.95,2.952,2.95,2.9442,2.9383,2.9012,2.8184,2.7545,2.6602,2.5347,2.4121,0.0,0.0,0.0,0.0,0.0,0.0,0.0,0.0,0.0,0.0,0.0,0.0,0.0,0.0,0.0,0.0,0.0,0.0,0.0,0.0,0.0,0.0,0.0,0.0,0.0,0.0,0.0,0.0,0.0,2.5776,2.6585,2.674,2.7099,2.6761,0.0,0.0,0.0,0.0,0.0,0.0,0.0,0.0,0.0,3.0271,3.0755,3.1237,3.1686,3.2802,3.3606,3.4075,3.479,3.5718,3.6844,3.6844,3.7218,3.791,3.791,3.7339,3.6397,3.5192,3.3876,3.2517,0.0,0.0,0.0,0.0,3.0872,3.0729,3.1611,3.1125,0.0,0.0,0.0,0.0,0.0,0.0,0.0,0.0,0.0,0.0,0.0,0.0,0.0,3.0798,3.0906,3.088,2.9956,2.9026,2.7959,0.0,2.5968,2.5186,2.3449,0.0,0.0,0.0,0.0,2.6752,2.7695,2.9043,2.995,2.995,2.995,2.9852,2.9618,2.9598,2.9442,2.907,2.864,2.8008,2.7181,2.6172,2.4961,0.0,0.0,0.0,0.0,0.0,0.0,0.0,0.0,0.0,0.0,0.0,0.0,0.0,0.0,0.0,0.0,0.0,0.0,0.0,0.0,0.0,0.0,0.0,0.0,0.0,0.0,0.0,0.0,2.72,2.7602,2.7247,2.7942,2.7611,0.0,0.0,0.0,0.0,0.0,0.0,3.0108,3.0425,3.09,3.1689,3.2358,3.2725,3.2843,3.3437,3.3965,3.4446,3.4446,3.5164,3.651,3.651,3.7041,3.7922,3.7922,3.7636,3.7064,3.5578,3.4596,3.3927,3.2782,3.2255,3.2201,3.2825,3.2742,3.2517,3.3882,3.3248,3.1836,3.194,0.0,2.9726,2.8901,0.0,0.0,0.0,0.0,2.9917,3.0486,3.0921,3.1228,3.123,3.1367,3.1426,3.1113,3.0527,2.954,0.0,2.7187,2.666,2.5059,0.0,0.0,0.0,0.0,2.7864,2.8945,2.9844,3.0371,3.0371,3.0371,3.0254,2.997,2.9931,2.9931,2.9931,2.9492,2.9101,2.8789,2.7949,2.6797,2.5273,0.0,0.0,0.0,0.0,0.0,0.0,0.0,0.0,0.0,0.0,0.0,0.0,0.0,0.0,0.0,0.0,0.0,0.0,0.0,0.0,0.0,0.0,0.0,0.0,0.0,0.0,0.0,0.0,0.0,2.737,2.8175,0.0,0.0,0.0,0.0,2.9275,3.022,3.1148,3.2007,3.2907,3.3538,3.3936,3.3983,3.4185,3.457,3.4609,3.4863,3.5332,3.5332,3.558,3.6059,3.6059,3.6093,3.6107,3.6107,3.5905,3.5633,3.7023,3.6985,3.6051,3.5986,3.5625,3.5105,3.4521,3.4058,3.3601,3.3091,3.2594,3.2172,3.2193,3.1565,3.0731,3.03,3.0538,0.0,0.0,3.1175,3.2097,3.1574,3.1809,3.2142,3.212,3.1797,3.1474,3.1455,3.1445,3.1016,0.0,2.8484,2.7624,2.7526,0.0,2.7031,2.7467,2.8262,2.9004,2.95,3.0341,3.0859,3.0859,3.0859,3.084,3.082,3.082,3.082,3.082,3.0391,3.0117,3.0098,2.9277,2.8398,2.7545,2.543,0.0,0.0,0.0,0.0,0.0,0.0,0.0,0.0,0.0,0.0,0.0,0.0,0.0,0.0,0.0,0.0,0.0,0.0,0.0,0.0,0.0,0.0,0.0,0.0,0.0,0.0,0.0,0.0,2.8862,2.9627,0.0,2.7759,2.8982,3.0043,3.0381,3.124,3.2272,3.3358,3.3735,3.4092,3.4486,3.4766,3.5,3.5137,3.541,3.5625,3.5801,3.5801,3.6016,3.6445,3.6445,3.6582,3.6836,3.6836,3.6601,3.6294,3.6851,3.6367,3.5208,3.5208,3.5127,3.4911,3.466,3.4513,3.429,3.3811,3.334,3.2891,3.2374,3.1978,3.172,3.1561,3.1663,3.1765,3.1598,3.1889,3.2217,3.2015,3.2246,3.2531,3.2257,3.2246,3.2266,3.1992,3.1934,3.1827,3.1358,3.0458,2.95,2.8613,2.8574,2.8613,2.8496,2.9199,2.9902,3.04,3.0703,3.0898,3.0898,3.0898,3.0898,3.0898,3.0898,3.0762,3.0469,3.0293,3.0195,3.0195,2.9375,2.8769,2.8476,2.6894,2.5039,0.0,0.0,0.0,0.0,0.0,0.0,0.0,0.0,0.0,0.0,0.0,0.0,0.0,0.0,0.0,0.0,0.0,0.0,0.0,0.0,0.0,0.0,0.0,0.0,0.0,2.9194,2.9326,2.9934,3.0918,3.0917,2.9313,3.0744,3.1827,3.1974,3.2648,3.3489,3.4505,3.4681,3.4863,3.5137,3.5586,3.5762,3.5605,3.6016,3.623,3.623,3.623,3.6465,3.691,3.691,3.7031,3.7305,3.7305,3.7148,3.691,3.691,3.6367,3.5547,3.5254,3.5156,3.5156,3.5156,3.5059,3.4844,3.431,3.3984,3.3691,3.2726,3.248,3.2539,3.2276,3.2296,3.2413,3.2413,3.2511,3.2598,3.2598,3.2793,3.293,3.2656,3.2695,3.2715,3.2472,3.2413,3.2374,3.2237,3.1749,3.0996,2.998,3.0039,3.0078,2.9648,3.0078,3.0547,3.0859,3.0898,3.0898,3.0898,3.0898,3.0898,3.0898,3.0742,3.0527,3.0215,2.9922,2.9766,2.9766,2.9082,2.8633,2.8496,2.7383,2.5898,2.4046,0.0,0.0,0.0,0.0,0.0,0.0,0.0,0.0,0.0,0.0,0.0,0.0,0.0,0.0,0.0,0.0,0.0,0.0,0.0,0.0,0.0,0.0,0.0,2.9593,3.0412,3.0813,3.0532,3.1888,3.2363,3.1152,3.2539,3.3691,3.4153,3.4531,3.498,3.543,3.584,3.6021,3.6021,3.6465,3.6484,3.604,3.6484,3.6714,3.6714,3.6714,3.6949,3.7324,3.7324,3.7324,3.7344,3.7344,3.7324,3.7324,3.7324,3.7305,3.7226,3.6387,3.6021,3.6021,3.6035,3.5762,3.5273,3.4446,3.4407,3.4492,3.3262,3.3125,3.3301,3.2511,3.2531,3.2812,3.2812,3.3105,3.3386,3.3386,3.3386,3.3386,3.3386,3.3105,3.2812,3.2812,3.2812,3.2695,3.2316,3.2237,3.2101,3.1591,3.1494,3.1387,3.0976,3.0898,0.0,3.0898,3.0898,3.0898,3.0898,3.0898,3.0898,3.0898,3.0469,3.0176,3.0156,2.9375,2.8879,2.8898,2.8516,2.8151,2.7761,2.69,2.623,2.5776,0.0,0.0,0.0,0.0,0.0,0.0,0.0,0.0,0.0,0.0,0.0,0.0,0.0,0.0,0.0,0.0,0.0,0.0,0.0,0.0,0.0,2.8862,2.9886,3.0488,3.1019,3.1653,3.2463,3.3273,3.3828,3.4121,3.4844,3.5488,3.5952,3.6348,3.6641,3.6758,3.6875,3.6953,3.6953,3.707,3.707,3.6953,3.707,3.7129,3.7129,3.7129,3.7344,3.7754,3.7754,3.793,3.8223,3.8223,3.8047,3.7754,3.7754,3.7578,3.7266,3.7031,3.6953,3.6914,3.6601,3.6035,3.5351,3.5117,3.4883,3.4648,3.4297,3.4043,3.388,3.3645,3.3418,3.3242,3.3242,3.3289,3.3386,3.3386,3.3386,3.3386,3.3386,3.3308,3.3242,3.3242,3.3242,3.3223,3.3105,3.3086,3.2851,3.2109,3.1719,3.1455,3.1367,3.1094,0.0,3.0898,3.0898,3.0898,3.0898,3.0898,3.0898,3.0898,3.0469,2.9922,2.9316,2.8769,2.8594,2.8879,2.8516,2.8562,2.907,2.7936,2.7291,0.0,0.0,0.0,0.0,0.0,0.0,0.0,0.0,0.0,0.0,0.0,0.0,0.0,0.0,0.0,0.0,0.0,0.0,0.0,0.0,0.0,0.0,3.0291,3.1515,3.2145,3.2265,3.2734,3.3796,3.4355,3.4902,3.5586,3.6035,3.6465,3.6894,3.7168,3.7305,3.7305,3.7305,3.7305,3.7305,3.7461,3.748,3.7305,3.748,3.7559,3.7559,3.7559,3.7793,3.8203,3.8203,3.834,0.0,3.8611,3.8437,3.8203,3.8203,3.8047,0.0,0.0,0.0,0.0,0.0,3.6401,3.5879,3.5508,3.5332,3.5195,3.4824,3.4668,3.4622,3.4427,3.4043,3.3691,3.3691,3.3691,3.3691,3.3691,3.3691,3.375,3.3906,3.3828,3.375,3.3926,3.3945,3.3906,3.373,3.3691,0.0,3.2812,3.2344,3.1934,3.1533,3.1309,3.1094,3.0918,3.0898,3.0898,3.0898,3.0898,3.0898,3.0898,3.0469,0.0,0.0,0.0,2.8574,2.8652,2.8418,0.0,0.0,0.0,0.0,0.0,0.0,0.0,0.0,2.8262,2.8281,0.0,0.0,0.0,0.0,0.0,0.0,0.0,0.0,0.0,0.0,0.0,0.0,0.0,0.0,0.0,0.0,3.1914,3.3301,3.4192,3.3926,3.3926,3.4687,3.5234,3.5703,3.6133,3.6562,3.7027,3.7402,3.7441,3.7441,3.7441,0.0,0.0,0.0,0.0,3.7812,3.7441,3.7812,3.7988,3.7988,3.7988,3.8203,3.8611,3.8611,3.8611,3.8611,3.8611,3.865,3.8689,3.8689,3.8689,3.8611,3.7754,3.7402,3.7324,3.6988,3.6792,3.6597,3.5801,0.0,0.0,3.5098,3.5098,3.5312,3.4902,3.4473,3.4173,3.4173,3.4173,3.4173,3.4173,3.4173,3.4271,3.4609,3.4414,3.4271,3.4609,3.4707,3.459,3.4251,3.4134,3.3977,3.3555,3.3105,3.2539,3.1747,3.1621,3.1465,3.1074,3.1035,3.1035,3.1035,0.0,0.0,3.0957,3.0488,3.0176,3.0137,2.9453,2.8887,2.8516,2.8652,2.9277,3.0469,3.0488,3.1269,3.2871,3.2969,3.3223,3.3542,3.0371,2.9961,0.0,0.0,0.0,0.0,0.0,0.0,0.0,0.0,0.0,0.0,0.0,0.0,0.0,0.0,0.0,3.2159,3.3437,3.4648,3.5527,3.5273,3.5078,3.5234,3.5991,3.6616,3.7012,3.7422,3.7871,3.8301,3.8356,3.8356,3.8356,3.8356,3.8356,3.8356,3.8398,3.8454,3.8376,3.8454,3.8457,3.8457,0.0,0.0,3.8611,3.8611,3.8611,3.8611,3.8611,3.8769,3.9082,3.9082,3.9082,3.9023,3.8535,3.8105,3.7757,3.7715,3.7246,3.6675,3.6519,3.625,3.5962,3.5786,3.5605,3.5371,3.5293,3.4941,0.0,3.457,3.457,3.457,3.457,3.457,3.459,3.4687,3.4629,3.4609,3.4687,3.4707,3.4668,3.459,3.4297,3.4075,3.3997,3.3301,3.2734,3.2578,3.2266,3.2042,3.1964,3.1944,3.1944,3.1944,3.1601,3.1377,3.1377,3.0664,3.0059,2.9735,2.9844,2.9902,2.9824,3.0888,3.1699,3.2285,3.2285,3.2617,3.3301,3.3984,3.457,3.4961,3.3242,3.3027,0.0,0.0,0.0,0.0,0.0,0.0,0.0,0.0,0.0,0.0,0.0,2.9925,3.0202,0.0,3.3086,3.3965,3.4629,3.5273,3.5903,3.584,3.5703,3.5703,3.6074,3.668,3.7539,3.7757,3.8301,3.918,3.9238,3.9238,3.9238,3.9238,3.9121,3.8887,3.8887,3.8789,3.8611,3.8611,3.8611,3.8611,3.8789,3.8887,3.8887,3.9121,3.9238,3.9238,3.9238,3.9355,3.9551,3.9551,3.9551,3.9512,3.9062,3.8633,3.8223,3.8008,3.7656,3.7266,3.7051,3.6699,3.6348,3.6348,3.6055,3.5703,3.5703,3.5391,3.5039,3.5039,3.5039,3.5039,3.5039,3.5039,3.5098,3.5312,3.5195,3.5098,3.5312,3.5351,3.5293,3.5078,3.4883,3.4701,3.4434,3.4023,3.3535,3.2891,3.2617,3.2433,3.2237,3.2198,3.2198,3.2198,3.2003,3.1836,3.1836,3.1445,3.1123,3.0908,3.1103,3.1221,3.1221,3.2042,3.2676,3.3105,3.332,3.3848,3.4694,3.5156,3.5703,3.6328,3.5664,3.5586,0.0,0.0,0.0,0.0,0.0,0.0,0.0,2.8562,2.8601,2.916,3.0742,3.2129,3.2511,3.3625,3.474,3.5508,3.5644,3.582,3.6294,3.625,3.6172,3.6216,3.6191,3.6621,3.7777,3.7972,3.8555,3.9805,3.9902,3.9902,3.9902,3.9902,3.9726,3.9355,3.9336,3.918,3.8865,3.8828,3.8828,3.8865,3.918,3.9336,3.9355,3.9726,3.9902,3.9902,3.998,4.0019,4.0019,4.0019,4.0019,3.998,3.9512,3.9062,3.8633,3.8203,3.7988,3.7835,3.7539,3.709,3.6714,3.6714,3.6367,3.5982,3.5982,3.5781,3.5508,3.5508,3.5508,3.5508,3.5508,3.5508,3.5605,3.5903,3.5762,3.5605,3.5937,3.5982,3.5884,3.5586,3.5449,3.5273,3.4902,3.4766,3.4355,3.332,3.3086,3.2961,3.2609,3.2492,3.2452,3.2452,3.2374,3.2296,3.2198,3.2198,3.2198,3.2198,3.2355,3.2452,3.2452,3.2891,3.3398,3.3894,3.4277,3.5059,3.6235,3.6313,3.6738,3.7422,3.7598,3.7578,2.8526,2.8455,2.8221,2.8316,2.8265,2.8932,0.0,3.1622,3.1426,3.2598,3.334,3.384,3.388,3.4922,3.5957,3.648,3.6558,3.6797,3.7598,3.707,3.6738,3.7109,3.6836,3.6953,3.7796,3.8281,3.8887,3.9824,3.9902,3.9902,3.9902,3.9902,3.9883,3.9824,3.9824,3.9805,3.9746,3.9746,3.9746,3.9746,3.9805,3.9824,3.9824,3.9883,3.9902,3.9922,4.0293,4.0411,4.0411,4.0411,4.0411,4.041,3.998,3.9531,3.9082,3.8652,3.8262,3.7874,3.7835,3.7344,3.6714,3.6714,3.6367,3.5982,3.5982,3.5996,3.5923,3.5923,3.5923,3.5923,3.5923,3.5923,3.5923,3.5982,3.5996,3.5957,3.5982,3.5982,3.5982,3.5923,3.5644,3.5371,3.5332,3.498,3.4648,3.4512,3.416,3.3938,3.3899,3.3516,3.3281,3.3281,3.2949,3.2609,3.2237,3.2198,3.2198,3.2198,3.2871,3.3281,3.3281,3.4062,3.4883,3.5689,3.5747,3.625,3.7168,3.7519,3.7718,3.7835,3.8633,3.8574,2.9068,2.9219,2.9237,2.9967,3.0351,3.1016,3.2754,3.2891,3.282,3.3633,3.4551,3.5293,3.558,3.6069,3.6543,3.6973,3.6871,3.6832,3.7148,3.6894,3.6773,3.6949,3.6812,3.7242,3.8535,3.8828,3.9414,4.0547,4.0683,4.0527,4.0273,4.0508,4.041,3.9922,4.0137,4.0137,3.9902,3.9902,3.9902,3.9902,4.0156,4.0254,4.0273,4.0527,4.0683,4.0644,4.082,4.0898,4.0898,4.0898,4.0898,4.0859,4.043,4.0137,3.9883,3.9199,3.8672,3.8301,3.8301,3.791,3.7402,3.7402,3.6953,3.6406,3.6406,3.623,3.6074,3.6328,3.6211,3.6133,3.6641,3.6582,3.6406,3.6406,3.6582,3.6621,3.6099,3.6211,3.6328,3.604,3.5879,3.5762,3.5762,3.5605,3.5469,3.5469,3.4883,3.4434,3.4434,3.4277,3.4082,3.3828,3.3665,3.3508,3.3332,3.3313,3.341,3.3633,3.3965,3.4277,3.4551,3.5156,3.5762,3.6387,3.6641,3.707,3.7656,3.7796,3.8147,3.8672,3.9043,3.916,2.9051,2.9774,3.0537,3.1465,3.2285,3.3117,3.3945,3.4011,3.416,3.4824,3.5527,3.6152,3.6616,3.6597,3.666,3.7207,3.6953,3.6792,3.6992,3.6949,3.6697,3.6293,3.6223,3.6639,3.763,3.8116,3.9121,4.086,4.0473,4.0279,4.0489,4.0703,4.0527,3.9922,4.0312,4.0371,4.0078,4.0195,4.0254,4.0254,4.043,4.0489,4.0489,4.084,4.0996,4.0996,4.1152,4.1211,4.1211,4.1211,4.1211,4.1191,4.082,4.0625,4.0411,3.9805,3.9219,3.8787,3.8787,3.8379,3.7894,3.7894,3.7441,3.6871,3.6871,3.6621,3.6445,3.6758,3.6621,3.6504,3.7129,3.6992,3.6714,3.6714,3.6894,3.6914,3.6172,3.6367,3.6577,3.6094,3.5982,3.5982,3.5982,3.5982,3.5982,3.5982,3.5469,3.5019,3.4902,3.4785,3.459,3.431,3.4271,3.4271,3.4271,3.4271,3.4375,3.4687,3.4824,3.5098,3.5547,3.5976,3.6465,3.7012,3.7441,3.7851,3.8281,3.8398,3.8789,3.9394,3.9512,3.9746,2.8555,3.0204,3.212,3.2179,3.343,3.4844,3.5708,3.5625,3.5684,3.6934,3.6562,3.6152,3.6616,3.6328,3.6309,3.7168,3.6953,3.6953,3.7738,3.7539,3.6736,3.5222,3.5043,3.4776,3.4134,3.542,3.7465,4.0334,3.8726,3.8478,4.0373,4.0156,3.9922,3.9902,4.0312,4.0469,4.0469,4.0918,4.1172,4.1172,4.0723,4.0489,4.0489,4.0489,4.0508,4.0566,4.0996,4.1211,4.1211,4.1211,4.1211,4.1211,4.1191,4.0898,4.0527,4.045,3.9922,3.918,3.918,3.8633,3.7894,3.7894,3.7637,3.7285,3.7285,3.7266,3.7266,3.7266,3.7266,3.7266,3.7285,3.6992,3.6714,3.6714,3.6714,3.6597,3.6113,3.6367,3.6577,3.6094,3.5982,3.5982,3.5982,3.5982,3.5982,3.5982,3.5962,3.584,3.543,3.498,3.4687,3.4687,3.4687,3.4687,3.4687,3.4687,3.4687,3.4707,3.5117,3.5566,3.5996,3.6426,3.7031,3.7835,3.832,3.875,3.916,3.9609,3.9844,3.9883,4.0293,4.0488,3.0117,3.1484,3.293,3.4375,3.5156,3.5879,3.6996,3.6953,3.6699,3.689,3.6426,3.604,3.6211,3.5644,3.5527,3.6734,3.6792,3.6603,3.6318,3.6174,3.5446,3.3638,3.3613,3.355,3.3071,3.404,0.0,3.7051,3.6337,3.6603,3.8306,3.8347,3.8652,3.9416,3.9863,3.9682,3.8795,4.0067,4.0183,3.904,3.9759,4.0098,4.0117,4.0391,4.0489,4.0489,4.0684,4.0898,4.1191,4.0859,4.0918,4.1211,4.1211,4.1074,4.0957,4.0957,4.0586,4.0,3.9394,3.8828,3.8359,3.8359,3.8066,3.7715,3.7715,3.7519,3.7363,3.7637,3.7519,3.7422,3.8008,3.7832,3.75,3.75,3.7715,3.777,3.7012,3.6377,3.5781,3.5369,3.4427,3.3661,3.3661,3.4295,3.5067,3.5884,3.6269,3.6289,3.5859,3.5918,3.5815,3.5215,3.5156,3.5156,3.5156,3.541,3.5703,3.603,3.6426,3.6836,3.723,3.7422,3.791,3.875,3.8906,3.9219,3.9668,3.9824,4.0039,4.0312,4.0449,4.0684,3.163,3.2949,3.4121,3.584,3.6484,3.6879,3.7699,3.748,3.6992,3.6753,3.5957,3.5332,3.5332,3.4609,3.4329,3.5256,3.5517,3.5339,3.4576,3.4573,3.3933,3.1976,3.1922,3.1849,3.1322,3.1766,3.3011,3.5116,3.4412,3.4611,3.6338,3.6814,3.7389,3.8115,3.8573,3.8368,3.7521,3.8188,3.7918,3.6654,3.7512,3.7914,3.7876,3.8287,3.8548,3.8698,3.9487,3.9892,4.0084,4.0569,4.084,4.0957,4.1113,4.1211,4.1211,4.1211,4.0898,4.0411,3.9883,3.9394,3.9043,3.9043,3.8848,3.8633,3.8633,3.8437,3.8242,3.8359,3.8184,3.8066,3.8513,3.8242,3.7894,3.7894,3.8144,3.8,3.6713,3.5933,3.5212,3.4252,3.3221,3.2492,3.2492,3.312,3.3857,3.4624,3.5116,3.5381,3.5238,3.5609,3.5401,3.4153,3.401,3.4032,3.4181,3.4423,3.5003,3.5998,3.6319,3.6858,3.7874,3.7894,3.832,3.918,3.9355,3.9668,4.0117,4.0273,4.0488,4.0762,4.0762,4.0898,3.3066,3.4473,3.5664,3.6558,3.7324,3.7894,3.7894,3.7266,3.6695,3.6616,3.5228,3.3997,3.3938,3.3262,3.2789,3.2976,3.3331,3.3336,3.2625,3.2796,3.2304,3.0325,3.0123,2.9789,2.8968,2.89,3.0506,3.4328,0.0,3.2586,3.4635,3.5548,3.6015,3.6089,3.6474,3.6656,3.6561,3.5432,3.4697,3.4393,3.4359,3.4299,3.4218,3.471,3.507,3.5469,3.7539,3.8155,3.7904,3.9987,4.0608,4.0259,4.0783,4.1016,4.1016,4.1133,4.0879,4.0489,4.0547,4.0273,3.9902,3.9902,3.9902,3.9902,3.9902,3.9902,3.9805,3.9355,3.9238,3.9141,3.8787,3.834,3.7991,3.7991,3.7919,3.7352,3.5426,3.5194,3.4755,3.2829,3.2377,3.2323,3.238,3.2416,3.2453,3.2492,3.2853,3.3231,3.3666,3.4077,3.3587,3.1718,3.1542,3.1661,3.2001,3.2052,3.2819,3.4685,3.4829,3.5751,3.7714,3.7825,3.827,3.9219,3.9687,4.0137,4.0566,4.0976,4.1211,4.1211,4.1211,4.1211,3.4414,3.5605,3.6577,3.7402,3.7773,3.7894,3.7894,3.7266,3.6421,3.541,3.388,3.2492,3.1846,3.1777,3.1796,3.1695,3.2765,3.3056,3.1469,3.155,3.1039,2.9093,2.9081,2.9047,2.8564,2.8973,2.9705,0.0,3.0323,3.0766,3.2491,3.2779,3.349,3.4658,3.48,3.4415,3.3457,3.2885,3.3221,3.4376,3.4063,3.3987,3.4218,3.471,3.4933,3.5075,3.5592,3.5809,3.5764,3.6015,3.6243,3.6537,3.7862,3.8418,3.861,4.0125,4.0625,4.0528,4.0898,4.0527,3.9902,3.9902,3.9902,3.9902,3.9902,3.9902,3.9883,3.9746,3.9726,3.9687,3.959,3.9473,3.9394,3.9394,3.8422,3.7295,3.6807,3.4807,3.2883,3.2139,3.0792,3.0122,3.0991,3.1168,3.146,3.236,3.2853,3.2915,3.2504,3.2801,3.2727,3.197,3.1865,3.2018,3.2321,3.2648,3.302,3.3529,3.3826,3.4817,3.657,3.6924,3.7914,3.9669,4.0137,4.0566,4.1016,4.1152,4.1211,4.1211,4.1211,4.1211,3.5801,3.6719,3.7383,3.8047,3.8066,3.7699,3.6973,3.6152,3.5033,3.3105,3.166,3.0383,2.9269,2.9431,2.9573,2.9023,3.0256,3.09,2.9694,3.0061,3.0072,2.8988,2.912,2.931,2.9281,2.972,2.9954,2.9848,2.9584,2.9804,3.0696,3.1402,3.2142,3.289,3.3078,3.2378,3.0836,3.0613,3.1012,3.1988,3.1718,3.1856,3.2314,3.2601,3.2857,3.3146,0.0,3.3934,3.3847,3.4448,3.4689,3.4818,3.592,3.6377,3.6528,3.7651,3.8109,3.8165,3.8572,3.8385,3.8265,3.9912,4.0449,4.0449,4.0449,4.0449,4.041,4.0215,4.0176,4.0137,3.9941,3.9238,3.8595,3.8709,3.7322,3.5743,3.505,3.3397,3.1834,3.0939,2.9972,2.9523,3.0052,3.0268,3.0462,3.0861,3.1235,3.1251,3.0708,3.133,3.1416,3.0339,3.018,3.0324,3.0676,3.09,3.1399,3.2262,3.2664,3.361,3.5257,3.5706,3.652,3.7919,3.8141,3.8845,4.006,4.006,4.0431,4.1211,4.1211,4.1211,3.7129,3.7734,3.8105,3.8513,3.8203,3.7402,3.5684,3.4564,3.3137,3.0547,2.9297,2.8211,2.6722,2.6939,2.7023,2.5991,2.7203,2.8197,2.7953,2.8739,2.9364,2.9369,2.9701,3.0009,3.0302,3.0568,3.0642,3.0405,2.9906,2.9515,2.9423,3.0827,3.1434,3.108,3.1324,3.0645,2.8925,2.8886,2.8886,2.8886,2.893,2.9281,2.9906,2.995,3.0232,3.0827,3.2032,0.0,3.2039,3.3624,3.4031,3.3727,3.428,3.4516,3.4516,3.48,3.4934,3.4964,3.5302,3.5423,3.6022,3.9674,4.0685,4.0568,4.0763,4.0841,4.0724,4.0048,4.0009,4.0028,3.9413,3.7971,3.6685,3.6938,3.547,3.3642,3.2209,3.1669,3.1065,2.9745,2.9643,2.9701,2.9452,2.9613,2.9584,2.8973,2.9174,2.9222,2.8988,2.9839,2.9859,2.8209,2.7999,2.8101,2.8437,2.8496,2.9246,3.0933,3.1355,3.2271,3.3884,3.4277,3.475,3.5407,3.5458,3.6385,3.8231,3.8231,3.9019,4.0529,4.0763,4.0724,3.8141,3.8435,3.8513,3.8591,3.7988,3.6953,3.5215,3.3645,3.1885,2.9609,2.8184,2.6872,2.5407,2.5968,2.6296,2.5116,2.6527,2.7776,2.7879,2.8549,2.9076,2.9379,2.9701,2.9921,2.998,3.0287,3.0448,0.0,3.0495,3.0217,2.9427,3.0203,3.0339,2.9745,2.9774,2.9523,2.89,2.8886,2.8886,2.89,2.9164,2.954,2.9906,3.0185,3.0361,3.0463,3.0732,0.0,2.9933,3.0235,3.0157,3.0011,3.1413,3.193,3.2155,3.3877,3.4517,3.4569,3.4947,3.5067,3.5539,3.821,3.8091,3.7157,3.8606,3.904,3.869,3.6877,3.7397,3.8102,3.6329,3.5795,3.5683,3.5461,3.4227,3.2994,3.2483,3.1014,2.9814,2.98,2.9423,2.912,2.9379,2.9232,2.9017,2.89,2.8944,2.9047,2.9306,2.9016,2.8774,2.8749,2.8467,2.8437,2.8783,2.9061,2.9355,2.9715,3.0027,3.0965,3.2561,3.2978,3.3907,3.5367,3.5755,3.6086,3.6436,3.6436,3.6597,3.6917,3.8368,3.8289,3.8435,3.8611,3.8552,3.8301,3.6907,3.5192,3.3435,3.1362,2.9154,2.6873,2.6378,2.5597,2.3216,2.407,2.477,2.3608,2.46,2.5978,2.7247,2.7955,2.871,2.9569,3.0217,3.0612,3.0612,3.0905,3.1137,3.1137,3.1402,3.1007,2.9745,2.9643,2.9569,2.9423,2.9247,2.9047,2.8886,2.8886,2.8973,2.9149,2.931,2.9672,3.017,3.0317,3.0478,3.0583,3.0463,0.0,2.9657,2.9481,2.9178,2.8964,2.9726,3.0036,3.0168,3.1174,3.1531,3.1579,3.1967,3.2094,3.2449,3.4711,3.5452,3.5632,3.646,3.6752,3.6503,3.5543,3.5826,3.6259,3.5249,3.434,3.369,3.3706,3.2364,3.106,3.0892,3.0256,2.9716,2.9877,2.9789,2.9687,2.9672,2.954,2.932,2.8944,2.9218,2.9496,2.9643,2.9369,2.9178,2.9149,2.8856,2.8798,2.912,2.932,2.9481,2.9657,2.998,3.0521,3.1275,3.1635,3.2212,3.3012,3.3211,3.374,3.4636,3.4636,3.5106,3.6035,3.6877,3.6797,3.832,3.8496,3.8513,3.8027,3.5911,3.3524,3.1864,2.9399,2.6811,2.4574,2.4947,2.4726,2.1489,2.2452,2.3365,2.229,2.2871,2.4262,2.6471,2.7415,2.8364,2.9657,3.0612,3.1227,3.13,3.1607,3.1798,3.1798,3.19,3.1417,3.017,2.9383,2.9076,2.9306,2.909,2.8959,2.8886,2.8886,2.9047,2.9423,2.9481,2.9833,3.039,3.0463,3.0583,3.0803,3.0536,0.0,0.0,2.9555,2.9178,2.8886,2.8886,2.8886,2.8886,2.8886,2.8886,2.893,2.9178,2.9266,2.9562,3.1304,3.2775,3.3965,3.4356,3.4474,3.4396,3.4004,3.411,3.4277,3.3887,3.2634,3.1504,3.1786,3.0517,2.9266,2.9266,2.9569,2.9818,2.9892,3.0111,3.0229,3.0038,2.995,2.9731,2.9178,2.9569,2.9936,2.9994,2.995,2.9833,2.9643,2.9295,2.9208,2.9496,2.9584,2.9731,2.9994,3.0317,3.0492,3.0492,3.0685,3.0776,3.0776,3.0776,3.1482,3.2813,3.2813,3.3551,3.4904,3.5352,3.5311,3.7835,3.8281,3.8513,3.8027,3.5648,3.3136,3.1805,2.9173,2.6482,2.4519,2.4947,2.4726,2.1489,2.209,2.2798,2.1902,2.2535,2.3852,2.5827,2.7137,2.8277,2.931,3.0276,3.0993,3.1285,3.1607,3.1798,3.1798,3.1271,3.0849,3.0744,2.9837,2.9247,2.8944,2.9193,2.9232,2.89,2.8886,2.9047,2.9423,2.9716,3.0053,3.0405,3.0656,3.0803,3.0803,3.0536,0.0,0.0,2.9555,2.9178,2.8886,2.8886,2.8886,2.8886,2.8886,2.8886,2.89,2.893,2.893,2.9027,2.9508,3.0017,3.0641,3.2261,3.2737,3.238,3.0801,3.1289,3.1903,3.0308,2.9794,2.9661,2.969,2.9321,2.893,2.893,2.9232,2.9555,2.9848,2.9921,3.0038,3.0302,3.0097,2.9877,2.9818,2.9862,3.0009,3.0302,3.0082,3.0009,3.0273,3.0009,2.9833,2.9848,3.0126,3.0317,3.0346,3.0598,3.0773,3.0773,3.0803,3.0776,3.0776,3.0776,3.0859,3.1025,3.1025,3.1108,3.1316,3.3224,3.3084,3.7305,3.7851,3.8086,3.7656,3.5249,3.2726,3.1419,2.8804,2.5973,2.3614,2.3998,2.375,2.0534,2.0927,2.1586,2.1179,2.1233,2.2095,2.4262,2.5344,2.6559,2.8277,2.9544,3.0598,3.152,3.1549,3.1505,3.1505,3.1256,0.0,3.111,3.0378,2.9848,2.9525,2.9643,2.9555,2.9178,2.8988,2.9149,2.9716,2.9848,3.017,3.0642,3.0759,3.0715,3.0525,3.0448,0.0,0.0,2.9467,2.9178,2.8886,2.8886,2.8886,2.8915,2.9144,2.9061,2.8944,2.9379,2.9393,2.9276,2.9599,2.9804,3.0027,3.0736,3.0785,3.0519,3.0049,3.0176,3.0323,2.9817,2.9716,2.9716,2.9716,2.9613,2.9467,2.9222,2.9628,2.998,2.9921,3.0068,3.0243,3.0361,3.0126,2.9906,2.9906,3.0068,3.0243,3.0375,3.0407,3.0495,3.0627,3.0214,2.998,3.0185,3.0317,3.0478,3.0627,3.0759,3.0776,3.0776,3.0776,3.0776,3.0776,3.0776,3.0776,3.0776,3.0776,3.0776,3.0832,3.1867,3.19,3.6348,3.7031,3.725,3.6992,3.4659,3.2115,3.0964,2.8492,2.5666,2.3021,2.3359,2.311,1.9879,2.0189,2.0799,2.0475,2.0459,2.1175,2.3179,2.4206,2.5481,2.74,2.8637,2.9807,3.1095,3.1271,3.1271,3.1168,3.1168,0.0,3.13,3.0978,3.0624,3.0159,3.0097,2.9892,2.9569,2.9232,2.9266,2.976,2.9862,3.0141,3.0539,3.0642,3.051,3.0243,3.0243,0.0,0.0,2.9266,2.909,2.8886,2.8886,2.8886,2.893,2.9291,2.9237,2.912,2.9716,2.976,2.9613,2.9936,3.0053,3.0068,3.0155,2.9892,2.9628,2.995,2.9877,2.9731,2.9862,2.9906,2.9906,2.9906,2.9906,2.9833,2.9613,2.9994,3.0317,3.0097,3.0302,3.0536,3.0536,3.0305,3.0185,3.0185,3.039,3.0536,3.0536,3.0685,3.0776,3.0776,3.0422,3.0246,3.0507,3.0536,3.0583,3.0803,3.0776,3.0776,3.0776,3.0776,3.0776,3.0776,3.0776,3.0776,3.0776,3.0776,3.0776,3.079,3.1256,3.1563,3.4941,3.5723,3.6001,3.6001,3.3752,3.1288,3.0393,2.8237,2.5666,2.3021,2.3359,2.311,1.9879,2.0189,2.0643,1.9923,2.0602,2.1642,2.293,2.4265,2.5569,2.6852,2.7531,2.8437,2.9804,3.0744,3.1183,3.0805,3.0832,0.0,3.13,3.1607,3.149,3.079,3.0551,3.0229,2.9906,2.9569,2.9423,2.9423,2.9745,2.9906,2.9921,3.0243,3.0214,0.0,0.0,0.0,0.0,2.9032,2.89,2.8886,2.8886,2.8886,2.893,2.9291,2.9408,2.9452,2.9789,2.9906,2.995,3.0287,3.039,3.0448,3.0715,3.0364,2.9965,3.0287,3.039,3.0302,2.998,2.9906,2.9906,2.9906,2.9906,2.9906,2.9906,3.0155,3.039,3.039,3.0598,3.0817,3.0817,3.0776,3.0776,3.0776,3.0776,3.0817,3.0817,3.0817,3.0776,3.0776,3.0776,3.0776,3.0817,3.0817,3.0817,3.0776,3.0776,3.0776,3.0776,3.0776,3.0776,3.0776,3.0776,3.0776,3.0776,3.0776,3.0776,3.0846,3.149,3.2134,3.2168,3.3047,3.3672,3.3055,3.1999,3.0719,2.9233,2.8045,2.6379,2.3164,2.276,2.2232,1.975,1.9583,2.0016,2.0644,2.1013,2.1657,2.293,2.4265,2.5569,2.6837,2.912,3.0656,3.0832,3.1329,3.1417,3.0819,3.1242,0.0,3.1637,3.2163,3.2163,3.1505,3.1168,3.0846,3.0525,2.9764,2.9525,2.9745,2.9628,2.9804,3.0243,3.0346,3.0214,0.0,0.0,0.0,0.0,2.893,2.8886,2.8886,2.8886,2.9032,2.9266,2.9628,2.9745,2.9833,3.0334,3.0419,3.0287,3.0568,3.0671,3.07,3.0746,3.0525,3.0258,3.0361,3.0551,3.0656,3.0554,3.0525,3.0525,3.0525,3.0525,3.0466,3.0287,3.0492,3.0612,3.0434,3.0612,3.0776,3.0776,3.0776,3.0776,3.0776,3.0776,3.0776,3.0776,3.0776,3.0776,3.0776,3.0776,3.0776,3.0776,3.0776,3.0776,3.0776,3.0776,3.0776,3.0776,3.0776,3.0776,3.0776,3.0776,3.0776,3.0776,3.0776,3.1051,3.1505,3.1929,3.2368,3.0137,3.1006,3.1484,3.1113,3.0586,2.9785,2.8406,2.7741,2.6506,2.317,2.2484,2.1844,1.9698,1.9298,1.9561,2.034,2.0779,2.1437,2.2593,2.4118,2.5657,2.7174,2.9442,3.0803,3.0598,3.1095,3.1256,3.0819,3.1315,0.0,3.1783,3.2295,3.2398,3.1988,3.1549,3.1095,3.0656,2.9925,2.9584,2.954,2.9584,2.9687,2.9848,3.0097,2.9965,0.0,0.0,0.0,0.0,2.9017,2.9076,2.909,2.9247,2.9423,2.9643,2.9965,3.0082,3.017,3.0642,3.07,3.0568,3.0759,3.0776,3.0776,3.0776,3.0685,3.0566,3.0566,3.0671,3.0776,3.0776,3.0776,3.0776,3.0776,3.0776,3.0773,3.0568,3.0685,3.0759,3.0568,3.0685,3.0776,3.0776,3.0776,3.0776,3.0776,3.0776,3.0776,3.0776,3.0776,3.0776,3.0776,3.0776,3.0776,3.0776,3.0776,3.0776,3.0776,3.0776,3.0776,3.0776,3.0776,3.0776,3.0776,3.0776,3.0776,3.0776,3.0949,3.1344,3.1988,3.2193,3.2456,0.0,2.9305,2.9461,2.9746,2.9277,2.8516,2.7741,2.7246,0.0,2.3117,2.2484,2.1844,1.9732,1.9327,1.9342,1.9488,2.0237,2.1145,2.2184,2.406,2.6023,2.7882,2.8959,2.9555,2.9555,3.0349,3.0834,3.079,3.1154,0.0,3.1754,3.2076,3.2237,3.2222,3.1607,3.0993,3.0434,3.0053,2.9569,2.893,2.9555,2.9525,2.8944,2.9613,2.9555,0.0,0.0,0.0,0.0,2.932,2.9452,2.9481,2.9789,2.9921,2.998,3.0273,3.0405,3.0463,3.0715,3.0776,3.0776,3.0776,3.0776,3.0776,3.0776,3.0776,3.0776,3.0776,3.0776,3.0776,3.0776,3.0776,3.0776,3.0776,3.0776,3.0776,3.0776,3.0776,3.0776,3.0776,3.0776,3.0776,3.0776,3.0776,3.0776,3.0776,3.0776,3.0776,3.0776,3.0776,3.0776,3.0776,3.0776,3.0776,3.0776,3.0776,3.0776,3.0776,3.0776,3.0776,3.0776,3.0776,3.0776,3.0776,3.0776,3.079,3.0861,3.1183,3.1666,3.228,3.231,3.2485,2.5469,0.0,2.7018,2.6431,2.6666,2.6836,0.0,2.6367,2.5767,2.3065,2.2484,2.1985,2.0303,1.9608,1.9796,2.1291,2.1686,2.2257,2.3471,2.574,2.7955,2.9884,3.0568,3.0861,3.0861,3.1285,3.1359,3.0861,0.0,3.1607,3.1432,3.1739,3.1798,3.1549,3.1154,3.0861,3.0715,2.9895,2.9452,2.9266,2.9164,2.9203,2.932,2.9716,2.9687,0.0,0.0,0.0,2.932,2.9657,2.9789,2.9804,2.9877,3.0053,3.0287,3.0361,3.0551,3.0729,3.0803,3.0776,3.0776,3.0776,3.0776,3.0776,3.0776,3.0776,3.0776,3.0776,3.0776,3.0776,3.0776,3.0776,3.0776,3.0776,3.0776,3.0776,3.0776,3.0776,3.0776,3.0776,3.0776,3.0776,3.0776,3.0776,3.0776,3.0776,3.0776,3.0776,3.0776,3.0776,3.0776,3.0776,3.0776,3.0776,3.0776,3.0776,3.0776,3.0776,3.0776,3.0776,3.0776,3.0776,3.0776,3.0776,3.0776,3.0949,3.1198,3.152,3.1885,3.2295,3.2544,3.2734,2.3806,2.5054,2.6294,2.5806,2.6172,2.6621,2.6342,2.58,2.4815,2.2887,2.2106,2.1348,2.0044,1.9755,2.0106,2.132,2.2008,2.3091,2.5125,2.6976,2.8744,3.0407,3.089,3.1081,0.0,3.1242,3.1198,3.0805,0.0,3.149,3.1315,3.1622,3.1651,3.1329,3.0846,3.0539,3.0378,2.972,2.9335,2.9149,2.912,2.9134,2.9203,2.9687,2.9731,0.0,0.0,0.0,2.9672,2.9994,3.0126,3.0141,3.0246,3.0407,3.0568,3.0568,3.0671,3.0776,3.0776,3.0776,3.0776,3.0776,3.0776,3.0776,3.0776,3.0776,3.0776,3.0776,3.0776,3.0776,3.0776,3.0776,3.0776,3.0776,3.0776,3.0776,3.0776,3.0776,3.0776,3.0776,3.0776,3.0776,3.0776,3.0776,3.0776,3.0776,3.0776,3.0776,3.0776,3.0776,3.0776,3.0776,3.0776,3.0776,3.0776,3.0776,3.0776,3.0776,3.0776,3.0776,3.0776,3.0776,3.0776,3.0776,3.0964,3.1212,3.1534,3.1856,3.2193,3.2515,3.2734,3.2822,2.3357,2.4922,2.6426,2.6152,2.6562,2.6922,2.6607,2.5289,2.3732,2.2509,2.1573,2.0685,1.9746,2.0018,2.0532,2.1043,2.2198,2.4057,2.6881,2.7993,2.8988,3.0317,3.0656,0.0,3.0776,3.0876,3.0876,3.079,0.0,3.1285,3.1242,3.149,3.152,3.1242,3.0654,3.0185,2.9906,2.9525,2.9164,2.89,2.9203,2.9164,2.8915,2.9555,2.9672,2.9437,0.0,0.0,3.0009,3.0331,3.0463,3.0492,3.0715,3.0776,3.0817,3.0773,3.0759,3.0759,3.0759,3.0759,3.0759,3.0803,3.0776,3.0776,3.0776,3.0776,3.0776,3.0776,3.0776,3.0776,3.0776,3.0776,3.0776,3.0776,3.0776,3.0776,3.0776,3.0776,3.0776,3.0776,3.0776,3.0776,3.0776,3.0776,3.0776,3.0776,3.0776,3.0776,3.0776,3.0776,3.0776,3.0776,3.0776,3.0776,3.0776,3.0776,3.0776,3.0776,3.0776,3.0776,3.0776,3.0776,3.0805,3.089,3.1168,3.149,3.1871,3.2149,3.2456,3.2822,3.2822,3.2793,2.4473,2.582,2.6537,2.5098,2.5854,2.6563,2.4921,2.4313,2.3534,2.1565,2.1245,2.1237,2.0946,2.097,2.1525,2.293,2.42,2.59,2.8271,2.8725,2.9295,3.0598,3.0746,3.0776,3.0776,3.1081,3.1124,3.0805,0.0,3.1183,3.0878,3.0949,3.0949,3.0905,3.0276,2.995,2.9906,2.9306,2.8944,2.8886,2.8944,2.8944,2.89,2.932,2.9467,2.9452,0.0,3.0317,3.0346,3.0612,3.0759,3.0759,3.0761,3.0776,3.0746,3.0566,3.0463,3.0463,3.0463,3.0463,3.0507,3.0744,3.0776,3.0776,3.0776,3.0776,3.0776,3.0776,3.0776,3.0776,3.0776,3.0776,3.0776,3.0776,3.0776,3.0776,3.0776,3.0776,3.0776,3.0776,3.0776,3.0776,3.0776,3.0776,3.0776,3.0776,3.0776,3.0776,3.0776,3.0776,3.0776,3.0776,3.0776,3.0776,3.0776,3.0776,3.0776,3.0776,3.0776,3.0776,3.0776,3.0776,3.0907,3.1227,3.1285,3.1607,3.2207,3.2266,3.2456,3.2822,3.2822,3.291,2.3845,2.5132,2.5935,2.4452,2.5696,2.6898,2.5325,2.4297,2.3405,2.2416,2.1871,2.1545,2.148,2.1745,2.2534,2.4349,2.5725,2.6998,2.8174,2.8827,2.9442,3.0217,0.0,3.0776,3.0776,3.0964,3.0993,3.079,0.0,0.0,3.079,3.0656,3.0568,3.0568,2.998,2.9643,2.9643,2.9134,2.8886,2.8886,2.8886,2.8886,2.89,2.9262,2.9511,2.9701,0.0,3.0492,3.0612,3.0759,3.0776,3.0776,3.0776,3.0776,3.0788,3.0507,3.0273,3.0155,3.0331,3.039,3.0448,3.0715,3.0776,3.0776,3.0776,3.0776,3.0776,3.0776,3.0776,3.0776,3.0776,3.0776,3.0776,3.0776,3.0776,3.0776,3.0776,3.0776,3.0776,3.0776,3.0776,3.0776,3.0776,3.0776,3.0776,3.0776,3.0776,3.0776,3.0776,3.0776,3.0776,3.0776,3.0776,3.0776,3.0776,3.0776,3.0776,3.0776,3.0776,3.0776,3.0776,3.0776,3.0978,3.13,3.149,3.1812,3.228,3.2456,3.2676,3.2822,3.2822,3.2851,2.3493,2.4625,2.5445,2.4385,2.5625,2.6747,2.5529,2.4165,2.3195,2.3231,2.2601,2.2052,2.2125,2.2784,2.3834,2.5559,2.6837,2.7759,2.8189,2.8915,2.9569,2.9965,3.0407,3.0744,3.0776,3.0776,3.0776,3.0776,0.0,0.0,3.0715,3.0522,3.0361,3.0273,2.9716,2.9423,2.9423,2.9047,2.8886,2.8886,2.8886,2.8886,2.89,2.9262,2.9599,2.9921,3.0243,3.0525,3.0776,3.0776,3.0776,3.0776,3.0776,3.0773,3.0671,3.039,3.0126,2.9936,3.0185,3.0331,3.0448,3.0715,3.0776,3.0776,3.0776,3.0776,3.0776,3.0776,3.0776,3.0776,3.0776,3.0776,3.0776,3.0776,3.0776,3.0776,3.0776,3.0776,3.0776,3.0776,3.0776,3.0776,3.0776,3.0776,3.0776,3.0776,3.0776,3.0776,3.0776,3.0776,3.0776,3.0776,3.0776,3.0776,3.0776,3.0776,3.0776,3.0776,3.0776,3.0861,3.0892,3.0934,3.1124,3.1534,3.1783,3.2076,3.2398,3.2646,3.2822,3.2822,3.2822,3.2807,2.4633,2.5332,2.5599,2.5212,2.5318,2.5263,2.4172,2.337,2.2899,2.3092,2.3034,2.3106,2.3398,2.4448,2.5632,2.672,2.7429,2.8189,2.9149,2.9325,2.9657,3.0287,3.0405,3.0536,3.0803,3.0776,3.0776,3.0776,0.0,0.0,3.0448,3.0405,3.0258,2.995,2.9599,2.9423,2.9423,2.9047,2.8886,2.8886,2.8886,2.8886,2.89,2.9262,2.9599,2.9921,3.0243,3.0525,3.0776,3.0776,3.0776,3.0776,3.0776,3.0642,3.039,3.0053,2.9921,2.9906,2.9936,3.0141,3.0448,3.0715,3.0776,3.0776,3.0776,3.0776,3.0776,3.0776,3.0776,3.0776,3.0776,3.0776,3.0776,3.0776,3.0776,3.0776,3.0776,3.0776,3.0776,3.0776,3.0776,3.0776,3.0776,3.0776,3.0776,3.0776,3.0776,3.0776,3.0776,3.0776,3.0776,3.0776,3.0776,3.0776,3.0776,3.0776,3.0776,3.0776,3.0776,3.0964,3.1256,3.1271,3.1563,3.2207,3.2237,3.2412,3.2778,3.2808,3.2822,3.2822,3.2822,3.2924,2.3708,2.4345,2.4649,2.3849,2.3883,2.4147,2.4328,2.3963,2.3843,2.4709,2.4759,2.4598,2.4543,2.5403,2.6325,2.6896,2.7663,2.8408,2.8988,2.9291,2.9511,2.976,3.0141,3.0361,3.0232,3.0407,3.0451,3.0246,0.0,0.0,3.0097,2.9892,2.9731,2.9599,2.9237,2.9076,2.9076,2.8944,2.8886,2.8886,2.8886,2.8988,2.9232,2.9364,2.9701,3.0214,3.0331,3.0525,3.0776,3.0776,3.0776,3.0776,3.0776,3.0627,3.0375,3.0258,3.0082,2.9936,3.0141,3.0287,3.0448,3.0715,3.0776,3.0776,3.0776,3.0776,3.0776,3.0776,3.0776,3.0776,3.0776,3.0776,3.0776,3.0776,3.0776,3.0776,3.0776,3.0776,3.0776,3.0776,3.0776,3.0776,3.0776,3.0776,3.0776,3.0776,3.0776,3.0776,3.0776,3.0776,3.0776,3.0776,3.0776,3.0776,3.0776,3.0776,3.0776,3.0776,3.0776,3.0876,3.0966,3.1198,3.152,3.1973,3.2178,3.2441,3.2822,3.2822,3.2822,3.2822,3.2822,3.2837,2.2637,2.3067,2.3427,2.3013,2.3015,2.3504,2.4874,2.4609,2.451,2.6018,2.6061,2.574,2.5452,2.5988,2.6647,2.7071,2.7876,2.8511,2.8842,2.9076,2.9266,2.9408,2.9804,3.0038,2.9921,3.0111,3.0141,2.9921,2.9906,0.0,0.0,2.954,2.9364,2.9262,2.9003,2.8886,2.8886,2.8886,2.8886,2.8886,2.8886,2.9061,2.9423,2.9525,2.9877,3.039,3.0492,3.0627,3.0776,3.0776,3.0776,3.0776,3.0776,3.0685,3.0536,3.0434,3.0317,3.0188,3.0346,3.0463,3.058,3.0759,3.0776,3.0776,3.0776,3.0776,3.0776,3.0776,3.0776,3.0776,3.0776,3.0776,3.0776,3.0776,3.0776,3.0776,3.0776,3.0776,3.0776,3.0776,3.0776,3.0776,3.0776,3.0776,3.0776,3.0776,3.0776,3.0776,3.0776,3.0776,3.0776,3.0776,3.0776,3.0776,3.0776,3.0776,3.0776,3.0776,3.0776,3.0876,3.0936,3.1198,3.152,3.1944,3.2163,3.2441,3.2822,3.2822,3.2822,3.2822,3.2822,3.2822,2.1648,2.1714,2.2152,2.3069,2.3042,2.3381,2.5657,2.5123,2.4642,2.6588,2.6735,2.6413,2.6091,2.6296,2.672,2.7415,2.8022,2.8511,2.8842,2.8886,2.9017,2.9379,2.9423,2.954,2.9862,2.9892,2.9892,2.9892,2.9892,0.0,0.0,2.9408,2.9222,2.89,2.8886,2.8886,2.8886,2.8886,2.8886,2.8886,2.8886,2.9061,2.9423,2.976,3.0082,3.0405,3.0685,3.0776,3.0776,3.0776,3.0776,3.0776,3.0776,3.0776,3.0788,3.0507,3.0554,3.0773,3.0507,3.0554,3.0776,3.0776,3.0776,3.0776,3.0776,3.0776,3.0776,3.0776,3.0817,3.0817,3.0776,3.0817,3.0817,3.0776,3.0776,3.0776,3.0776,3.0776,3.0776,3.0776,3.0776,3.0776,3.0776,3.0776,3.0776,3.0776,3.0776,3.0776,3.0776,3.0776,3.0776,3.0776,3.0776,3.0776,3.0776,3.0776,3.0776,3.0776,3.0776,3.0964,3.13,3.1315,3.1607,3.2266,3.228,3.2441,3.2822,3.2822,3.2822,3.2822,3.2822,3.2822,2.2757,2.2673,2.288,2.3496,2.3695,2.3963,2.4874,2.4938,2.5232,2.6691,2.71,2.7086,2.6764,2.6969,2.732,2.7707,2.8131,2.8511,2.8842,2.8886,2.893,2.9017,2.9276,2.9364,2.9232,2.9423,2.9467,2.9193,2.9218,2.9134,0.0,2.9032,2.8988,2.89,2.8886,2.8886,2.8886,2.8886,2.8886,2.8886,2.8886,2.9061,2.9423,2.976,3.0082,3.0405,3.0685,3.0776,3.0776,3.0776,3.0776,3.0776,3.0776,3.0776,3.0776,3.0715,3.0744,3.0776,3.0715,3.0744,3.0776,3.0776,3.0776,3.0776,3.0776,3.0776,3.0776,3.0776,3.0656,3.0539,3.0759,3.0656,3.0595,3.0773,3.0776,3.0776,3.0776,3.0776,3.0776,3.0776,3.0776,3.0776,3.0776,3.0776,3.0776,3.0776,3.0776,3.0776,3.0776,3.0776,3.0776,3.0776,3.0776,3.0776,3.0776,3.0776,3.0776,3.0776,3.0776,3.0819,3.0922,3.1183,3.1505,3.1929,3.2163,3.2441,3.2822,3.2822,3.2822,3.2822,3.2822,3.2822,2.2198,2.2139,2.2355,2.3289,2.3825,2.4305,2.514,2.5628,2.6082,2.6822,2.7144,2.7232,2.7027,2.7261,2.7583,2.7868,2.8291,2.8681,2.8871,2.8886,2.8886,2.8886,2.9061,2.9105,2.8915,2.9061,2.9105,2.89,2.8886,2.8886,0.0,2.8886,2.8886,2.8886,2.8886,2.8886,2.8886,2.8886,2.8886,2.8886,2.8886,2.8988,2.9232,2.9701,3.0155,3.0595,3.0744,3.0776,3.0776,3.0776,3.0776,3.0776,3.0776,3.0776,3.0776,3.0776,3.0776,3.0776,3.0776,3.0776,3.0776,3.0776,3.0776,3.0776,3.0776,3.0776,3.0776,3.0776,3.0685,3.0583,3.0773,3.0685,3.0583,3.0773,3.0776,3.0776,3.0776,3.0776,3.0776,3.0776,3.0776,3.0776,3.0776,3.0776,3.0776,3.0776,3.0776,3.0776,3.0776,3.0776,3.0776,3.0776,3.0776,3.0776,3.0776,3.0776,3.0776,3.0776,3.0776,3.0776,3.0776,3.0966,3.1329,3.1783,3.1988,3.231,3.2822,3.2822,3.2822,3.2822,3.2822,3.2822,2.0802,2.083,2.1215,2.2833,2.3755,2.4657,2.6164,2.6749,2.6983,2.6983,2.7013,2.7042,2.7042,2.7305,2.7613,2.7868,2.8461,2.8842,2.8842,2.8871,2.8886,2.8886,2.8886,2.8886,2.8886,2.8886,2.8886,2.8886,2.8886,2.8886,2.8886,2.8886,2.8886,2.8886,2.8886,2.8886,2.8886,2.8886,2.8886,2.8886,2.8886,2.89,2.8959,2.9613,3.0217,3.0776,3.0776,3.0776,3.0776,3.0776,3.0776,3.0776,3.0776,3.0776,3.0776,3.0776,3.0776,3.0776,3.0776,3.0776,3.0776,3.0776,3.0776,3.0776,3.0776,3.0776,3.0776,3.0776,3.0761,3.0788,3.0776,3.0761,3.0788,3.0776,3.0776,3.0776,3.0776,3.0776,3.0776,3.0776,3.0776,3.0776,3.0776,3.0776,3.0776,3.0776,3.0776,3.0776,3.0776,3.0776,3.0776,3.0776,3.0776,3.0776,3.0776,3.0776,3.0776,3.0776,3.0776,3.0776,3.0776,3.0776,3.111,3.1739,3.1754,3.2061,3.272,3.2749,3.2764,3.2778,3.2808,3.2822,2.2441,2.2234,2.2276,2.3946,2.4988,2.5754,2.6369,2.6749,2.6983,2.6983,2.7188,2.7378,2.7378,2.7627,2.7838,2.7897,2.8247,2.8496,2.8496,2.8739,2.8886,2.8886,2.8886,2.8886,2.8886,2.8886,2.8886,2.8886,2.8886,2.8886,2.8886,2.8886,2.8886,2.8886,2.8886,2.8886,2.8886,2.8886,2.8886,0.0,2.8886,2.9017,2.932,2.9716,3.0217,3.0776,3.0776,3.0776,3.0776,3.0776,3.0776,3.0776,3.0776,3.0776,3.0776,3.0776,3.0776,3.0776,3.0776,3.0776,3.0776,3.0776,3.0776,3.0776,3.0776,3.0776,3.0776,3.0776,3.0642,3.0551,3.0759,3.0642,3.0551,3.0759,3.0776,3.0776,3.0776,3.0776,3.0776,3.0776,3.0776,3.0776,3.0776,3.0776,3.0776,3.0776,3.0776,3.0776,3.0776,3.0776,3.0776,3.0776,3.0776,3.0776,3.0776,3.0776,3.0776,3.0776,3.0776,3.0776,3.0776,3.0776,3.1007,3.1402,3.1417,3.1607,3.2002,3.2266,3.2383,3.2398,3.269,3.2822,2.2197,2.221,2.2414,2.4415,2.5323,2.5836,2.6193,2.653,2.6764,2.6764,2.7013,2.7247,2.7247,2.751,2.773,2.773,2.7955,2.8174,2.8174,2.8306,2.8408,2.8408,2.8578,2.8666,2.8666,2.8798,2.8886,2.8886,2.8886,2.8886,2.8886,2.8886,2.8886,2.8886,2.8886,2.8886,2.8886,2.8886,2.8886,2.8886,2.8886,2.9134,2.9657,2.9833,3.017,3.0598,3.0598,3.0685,3.0776,3.0776,3.0776,3.0776,3.0776,3.0776,3.0776,3.0776,3.0776,3.0776,3.0776,3.0776,3.0776,3.0776,3.0776,3.0776,3.0776,3.0776,3.0776,3.0776,3.07,3.0612,3.0773,3.07,3.0612,3.0788,3.0776,3.0776,3.0776,3.0776,3.0776,3.0776,3.0776,3.0776,3.0776,3.0776,3.0776,3.0776,3.0776,3.0776,3.0776,3.0776,3.0776,3.0776,3.0776,3.0776,3.0776,3.0776,3.0776,3.0776,3.0776,3.0776,3.0776,3.0776,3.0978,3.13,3.1315,3.1476,3.1798,3.1973,3.2046,3.2061,3.2222,3.2383,2.1194,2.1658,2.2286,2.4397,2.5213,2.5559,2.5836,2.6193,2.6413,2.6413,2.672,2.6983,2.6983,2.7254,2.7393,2.7393,2.7656,2.7824,2.7824,2.7882,2.7911,2.7911,2.8145,2.8321,2.8321,2.8578,2.8725,2.8725,2.8725,2.8754,2.8812,2.8754,2.8769,2.8886,2.8842,2.8842,2.8886,2.8886,2.8886,2.8886,2.8886,2.9178,2.9731,2.9731,3.0009,3.0478,3.0478,3.0583,3.0776,3.0776,3.0776,3.0776,3.0776,3.0776,3.0776,3.0776,3.0776,3.0776,3.0776,3.0776,3.0776,3.0776,3.0776,3.0776,3.0776,3.0776,3.0776,3.0776,3.0776,3.0776,3.0776,3.0776,3.0776,3.0776,3.0776,3.0776,3.0776,3.0776,3.0776,3.0776,3.0776,3.0776,3.0776,3.0776,3.0776,3.0776,3.0776,3.0776,3.0776,3.0776,3.0776,3.0776,3.0776,3.0776,3.0776,3.0776,3.0776,3.0776,3.0776,3.0776,3.0776,3.0776,3.0949,3.1227,3.1227,3.1359,3.1637,3.1695,3.171,3.171,3.1768,3.1944,2.052,2.1435,2.2477,2.3899,2.4876,2.55,2.5559,2.5842,2.6076,2.6076,2.6559,2.6983,2.6983,2.7027,2.7056,2.7056,2.7335,2.7539,2.7539,2.7736,2.7911,2.7911,2.7955,2.7984,2.7984,2.8014,2.8043,2.8043,2.8043,2.816,2.8437,2.8189,2.8291,2.8871,2.8637,2.8622,2.8886,2.8886,2.8886,2.8886,2.8886,2.893,2.9017,2.9017,2.9661,3.0759,3.0759,3.0788,3.0776,3.0776,3.0776,3.0776,3.0776,3.0776,3.0776,3.0776,3.0776,3.0776,3.0776,3.0776,3.0776,3.0776,3.0776,3.0776,3.0776,3.0776,3.0776,3.0776,3.0776,3.0776,3.0776,3.0776,3.0776,3.0776,3.0776,3.0776,3.0776,3.0776,3.0776,3.0776,3.0776,3.0776,3.0776,3.0776,3.0776,3.0776,3.0776,3.0776,3.0776,3.0776,3.0776,3.0776,3.0776,3.0776,3.0776,3.0776,3.0776,3.0776,3.0776,3.0776,3.0776,3.0776,3.0805,3.089,3.089,3.0905,3.0907,3.1242,3.1373,3.1388,3.1666,3.1827,1.9977,2.0891,2.195,2.3223,2.413,2.4759,2.4949,2.5388,2.5705,2.5705,2.612,2.6442,2.6442,2.6442,2.65,2.6691,2.6837,2.6998,2.7174,2.732,2.7408,2.7408,2.7569,2.7686,2.7686,2.7809,2.7911,2.7911,2.7911,2.797,2.8116,2.7984,2.8043,2.8321,2.8204,2.8277,2.8637,2.8637,2.8725,2.8886,2.8886,2.8988,2.9164,2.9164,2.9573,3.029,3.029,3.0495,3.0776,3.0776,3.0715,3.0568,3.0759,3.0598,3.0305,3.0495,3.0554,3.0554,3.0554,3.0671,3.0776,3.0776,3.0776,3.0776,3.0776,3.0776,3.0776,3.0776,3.0776,3.0776,3.0776,3.0776,3.0776,3.0776,3.0776,3.0776,3.0776,3.0776,3.0776,3.0776,3.0776,3.0776,3.0776,3.0776,3.0776,3.0776,3.0776,3.0776,3.0776,3.0776,3.0776,3.0776,3.0776,3.0776,3.0776,3.0776,3.0776,3.0776,3.0776,3.0776,3.0776,3.0776,3.0776,3.0776,3.0776,3.0776,3.0776,3.0964,3.1037,3.0995,3.1183,3.1344,1.916,1.9916,2.0925,2.2286,2.3237,2.3972,2.4382,2.4876,2.5315,2.5388,2.5608,2.5769,2.5769,2.59,2.6091,2.6339,2.6383,2.65,2.6822,2.6866,2.6896,2.6983,2.7203,2.7349,2.7349,2.7569,2.7663,2.7663,2.7663,2.7707,2.778,2.7707,2.7751,2.7911,2.7838,2.7941,2.8277,2.8364,2.8511,2.8769,2.8856,2.9017,2.9251,2.9251,2.9467,2.9789,2.9862,3.017,3.0583,3.0583,3.0437,3.0287,3.0495,3.029,2.9936,3.017,3.0273,3.0273,3.0361,3.0551,3.0715,3.0803,3.0776,3.0776,3.0776,3.0773,3.0715,3.0803,3.0759,3.0715,3.0761,3.0776,3.0776,3.0776,3.0776,3.0776,3.0776,3.0776,3.0776,3.0776,3.0776,3.0776,3.0776,3.0776,3.0776,3.0776,3.0776,3.0776,3.0776,3.0776,3.0776,3.0776,3.0776,3.0776,3.0776,3.0776,3.0776,3.0776,3.0776,3.0776,3.0776,3.0776,3.0776,3.0776,3.0776,3.0776,3.0776,3.0776,3.0776,3.0776,3.0776,3.0907,1.7829,1.8408,1.9301,2.0911,2.2242,2.3325,2.3969,2.4412,2.4734,2.5056,2.513,2.5144,2.5144,2.5608,2.6018,2.6012,2.6047,2.6149,2.6486,2.653,2.6647,2.6954,2.7013,2.7013,2.7013,2.7027,2.7042,2.7042,2.7042,2.7174,2.7481,2.7203,2.732,2.7897,2.7656,2.7656,2.7926,2.8247,2.8408,2.8423,2.8754,2.89,2.8915,2.8915,2.909,2.9452,2.9774,2.9921,2.995,2.995,2.995,2.9936,2.995,2.9936,2.9906,2.9921,2.9936,2.998,3.0287,3.0405,3.0463,3.0729,3.0776,3.0776,3.0776,3.0612,3.0478,3.0744,3.0612,3.0492,3.0744,3.0776,3.0776,3.0776,3.0776,3.0776,3.0776,3.0776,3.0776,3.0776,3.0776,3.0776,3.0776,3.0776,3.0776,3.0776,3.0776,3.0776,3.0776,3.0776,3.0776,3.0776,3.0776,3.0776,3.0776,3.0776,3.0776,3.0776,3.0776,3.0776,3.0776,3.0776,3.0776,3.0776,3.0776,3.0776,3.0776,3.0776,3.0776,3.0776,3.0776,3.079,1.7168,1.7677,1.8452,1.9693,2.094,2.2008,2.2447,2.3442,2.4324,2.4441,2.4793,2.5086,2.5086,2.5276,2.5461,2.5632,2.5676,2.5778,2.6149,2.6369,2.6544,2.6661,2.6866,2.6983,2.6983,2.6983,2.6983,2.6983,2.6983,2.7042,2.7159,2.7056,2.71,2.732,2.7217,2.732,2.7642,2.7926,2.8189,2.8394,2.8511,2.8695,2.8886,2.8886,2.8959,2.9076,2.9232,2.9511,2.9906,2.9906,2.9774,2.9613,2.9818,2.9643,2.9266,2.9511,2.9584,2.9613,2.9731,2.9906,3.0126,3.0463,3.0419,3.0276,3.07,3.0598,3.0463,3.0729,3.0744,3.0685,3.0803,3.0776,3.0776,3.0776,3.0776,3.0776,3.0776,3.0776,3.0776,3.0776,3.0776,3.0776,3.0776,3.0776,3.0776,3.0776,3.0776,3.0776,3.0776,3.0776,3.0776,3.0776,3.0776,3.0776,3.0776,3.0776,3.0776,3.0776,3.0776,3.0776,3.0776,3.0776,3.0776,3.0776,3.0776,3.0776,3.0776,3.0776,3.0776,3.0776,3.0776,3.0776,1.638,1.6843,1.7618,1.8843,1.9755,2.0647,2.1642,2.2681,2.353,2.3884,2.447,2.4924,2.4924,2.5012,2.5159,2.533,2.5374,2.5491,2.5813,2.6012,2.6222,2.6325,2.653,2.6661,2.6661,2.6661,2.6661,2.6661,2.6764,0.0,2.6822,2.6925,2.6983,2.6983,2.6983,2.71,2.7342,2.7627,2.7868,2.811,2.8291,2.8511,2.8739,2.8842,2.8886,2.8886,2.8886,2.9134,2.9569,2.9569,2.9452,2.9237,2.9496,2.9266,2.8915,2.9134,2.9208,2.9237,2.9379,2.9555,2.9818,3.0243,3.017,3.0009,3.0495,3.0437,3.0287,3.0568,3.0671,3.0685,3.0803,3.0776,3.0776,3.0776,3.0776,3.0776,3.0776,3.0776,3.0776,3.0776,3.0776,3.0776,3.0776,3.0776,3.0776,3.0776,3.0776,3.0776,3.0776,3.0776,3.0776,3.0776,3.0776,3.0776,3.0776,3.0776,3.0776,3.0776,3.0776,3.0776,3.0776,3.0776,3.0776,3.0776,3.0776,3.0776,3.0776,3.0776,3.0776,3.0776,3.0776,3.0776,0.0,0.0,0.0,1.8345,1.877,1.936,2.1598,2.2096,2.2419,2.334,2.4089,2.4558,2.4587,2.4851,2.5071,2.5071,2.5086,2.5203,2.5442,2.5486,2.5617,2.5959,2.5982,2.6018,2.6018,2.6018,2.6018,2.6018,2.631,2.6486,2.65,2.6808,2.6983,2.6983,2.6983,2.6983,2.6983,2.7305,2.7503,2.7518,2.8087,2.8394,2.8408,2.8754,2.8886,2.8886,2.8886,2.8886,2.8886,2.8886,2.8886,2.8886,2.8886,2.8886,2.8886,2.8886,2.8886,2.893,2.9251,2.9393,2.9511,3.0155,3.0141,2.9936,3.0287,3.017,2.998,3.0317,3.0405,3.0478,3.0744,3.0776,3.0776,3.0776,3.0776,3.0776,3.0776,3.0776,3.0776,3.0776,3.0776,3.0803,3.0803,3.0803,3.0803,3.0803,3.0776,3.0776,3.0776,3.0776,3.0776,3.0776,3.0776,3.0776,3.0776,3.0776,3.0776,3.0776,3.0859,3.0859,3.0776,3.09,3.09,3.0776,3.0859,3.0859,3.0776,3.0776,3.0776,3.0776,3.0776,3.0776,1.5421,0.0,0.0,0.0,0.0,0.0,1.9228,2.0106,2.1029,2.2023,2.2725,2.3384,2.4086,2.4514,2.4734,2.4734,2.4939,2.513,2.5203,2.5388,2.5529,2.5617,2.5836,2.6018,2.6018,2.6018,2.6018,0.0,2.6105,2.6252,2.6486,2.6808,2.6983,2.6983,2.6983,2.6983,2.6983,2.7086,2.7247,2.7518,2.7853,2.8174,2.8408,2.8754,2.8886,2.8886,2.8886,2.8886,2.8886,2.8886,2.8886,2.8886,2.8886,2.8886,2.8886,2.8886,2.8886,2.89,2.8988,2.9017,2.909,2.9555,2.9467,2.935,3.0141,3.017,3.0024,3.0539,3.07,3.0715,3.0803,3.0776,3.0776,3.0776,3.0776,3.0776,3.0776,3.0776,3.0776,3.0776,3.0642,3.0522,3.0522,3.0522,3.0522,3.0522,3.0671,3.0776,3.0776,3.0776,3.0776,3.0776,3.0776,3.0776,3.0776,3.0776,3.0776,3.0776,3.1963,3.2128,3.0859,3.3208,3.3372,3.0859,3.2046,3.2046,3.0776,3.0776,3.0776,3.0776,3.0776,3.0776,0.0,0.0,0.0,0.0,0.0,0.0,1.8921,1.945,2.0106,2.1086,2.1803,2.2447,2.3164,2.3662,2.4089,2.4353,2.4675,2.4939,2.5071,2.5213,2.533,2.533,2.5505,2.5622,2.5622,2.5622,2.5622,2.5622,2.574,2.6018,2.6471,2.6676,2.6852,2.6983,2.6983,2.6983,2.6983,2.6983,2.7086,2.7313,2.7692,2.8014,2.8218,2.8695,2.8886,2.8886,2.8886,2.8886,2.8886,2.8886,2.8886,2.8886,2.8886,2.8886,2.8886,2.8886,2.8886,2.8886,2.8886,2.8886,2.8944,2.9266,2.9291,2.9222,2.998,3.0155,3.0185,3.0525,3.0715,3.0776,3.0776,3.0776,3.0776,3.0776,3.0776,3.0776,3.0776,3.0776,3.0776,3.0776,3.0671,3.0595,3.0595,3.0595,3.0595,3.0595,3.07,3.0776,3.0776,3.0776,3.0776,3.0776,3.0776,3.0776,3.0776,3.0776,3.0776,3.0776,3.2458,3.2936,3.1922,3.4538,3.4701,3.1922,3.2854,3.2541,3.0776,3.0776,3.0776,3.0776,3.0776,3.0776,0.0,0.0,0.0,0.0,0.0,0.0,1.9582,1.9579,1.9462,2.0325,2.0969,2.1496,2.1891,2.2476,2.3091,2.3676,2.4192,2.4631,2.5027,2.5086,2.5086,2.5086,2.5086,2.5086,2.5086,2.5086,2.5086,2.5086,2.5359,2.5749,2.6369,2.6457,2.6632,2.6925,2.6969,2.6983,2.6983,2.6983,2.6983,2.6998,2.7604,2.7911,2.7926,2.8608,2.8886,2.8886,2.8886,2.8886,2.8886,2.8886,2.8886,2.8886,2.8886,2.8886,2.8886,2.8886,2.8886,2.8886,2.8886,2.8886,2.8944,2.9262,2.9325,2.9423,2.9789,3.0111,3.0346,3.0419,3.0612,3.0776,3.0773,3.0803,3.0776,3.0773,3.0803,3.0776,3.0776,3.0776,3.0776,3.0776,3.0803,3.0773,3.0773,3.0773,3.0773,3.0773,3.0803,3.0776,3.0776,3.0776,3.0776,3.0776,3.0776,3.0776,3.0776,3.0776,3.0776,3.0776,3.2608,3.3592,3.3388,3.543,3.5591,3.3429,3.3388,3.2731,3.1384,3.1384,3.1274,3.1108,3.1274,3.1274,0.0,0.0,0.0,0.0,0.0,0.0,1.8438,1.8599,1.8935,1.9125,1.9272,1.9623,2.0429,2.1116,2.1628,2.1745,2.2901,2.4118,2.4968,2.5086,2.5086,2.5086,2.5086,2.5086,2.5086,2.5086,2.5086,2.5086,2.5359,2.5559,2.5676,2.6222,2.653,2.6603,2.6852,2.6983,2.6983,2.6983,2.6983,2.6998,2.7604,2.7911,2.7926,2.8608,2.8886,2.8886,2.8886,2.8886,2.8886,2.8886,2.8886,2.8886,2.8886,2.8886,2.8886,2.8886,2.8886,2.8886,2.8886,2.8886,2.89,2.8959,2.8988,2.909,2.9731,2.995,3.0111,3.0583,3.0773,3.0759,3.0551,3.0627,3.0759,3.0551,3.0642,3.0776,3.0776,3.0776,3.0776,3.0776,3.0612,3.0478,3.0478,3.0478,3.0478,3.0478,3.0656,3.0776,3.0776,3.0776,3.0776,3.0776,3.0776,3.0776,3.0776,3.0776,3.0776,3.0776,3.374,3.488,3.347,3.7773,3.8069,3.347,3.3388,3.3903,3.4985,3.4985,3.427,3.2936,3.4351,3.4229,0.0,0.0,0.0,1.8953,0.0,0.0,0.0,1.8906,1.8877,1.9239,1.9049,1.9063,1.9857,2.0267,2.0589,2.0882,2.2052,2.3093,2.3591,2.4338,2.4851,2.4851,2.4851,2.4851,2.4851,2.4998,2.5086,2.5086,2.5232,2.5359,2.5486,2.6003,2.6339,2.65,2.6822,2.6983,2.6983,2.6983,2.6983,2.6998,2.7604,2.7911,2.7926,2.8608,2.8886,2.8886,2.8886,2.8886,2.8886,2.8886,2.8886,2.8886,2.8886,2.8886,2.8886,2.8886,2.8886,2.8886,2.8886,2.8886,2.8886,2.8886,2.9144,2.9481,2.9804,3.0024,3.0243,3.0685,3.0598,3.0378,3.0539,3.0583,3.0583,3.0583,3.0715,3.0776,3.0776,3.07,3.0583,3.0583,3.0375,3.0258,3.0525,3.0492,3.0448,3.0568,3.146,3.2087,3.2087,3.2087,3.2087,3.2087,3.1316,3.0776,3.0776,3.0776,3.0776,3.0776,3.4066,3.5591,3.4717,3.8861,3.955,3.6075,3.5994,3.5994,3.5994,3.7733,3.7255,3.4717,3.5591,3.5511,0.0,0.0,0.0,0.0,0.0,1.9462,0.0,0.0,0.0,0.0,0.0,1.8862,1.9415,1.9503,1.9679,2.0164,0.0,0.0,0.0,2.3091,0.0,2.4206,2.4338,2.4441,2.4499,2.469,2.488,2.5086,2.491,2.4998,2.5418,2.574,2.6076,2.6398,2.672,2.6925,2.6983,2.6983,2.6983,2.6998,2.7546,2.7853,2.7926,2.8549,2.8842,2.8886,2.8886,2.8886,2.8886,2.8886,2.8886,2.8886,2.8886,2.8886,2.8886,2.8886,2.8886,2.8886,2.8886,2.8886,2.8886,2.8886,2.932,2.9804,2.9804,3.0038,3.0346,3.0568,3.0261,3.0024,3.051,3.0495,3.0434,3.0598,3.0729,3.0746,3.0656,3.0522,3.0375,3.0317,3.0038,2.9994,3.0539,3.0522,3.0478,3.07,3.2247,3.3388,3.3388,3.3715,3.3797,3.3429,3.2128,3.115,3.0817,3.1108,3.115,3.0817,3.4376,3.6356,3.5994,3.9019,4.0197,3.9138,3.8764,3.8073,3.7015,3.9844,3.9589,3.6517,3.6837,3.6797,0.0,0.0,0.0,0.0,2.0616,0.0,0.0,0.0,0.0,1.8628,0.0,0.0,0.0,0.0,0.0,0.0,0.0,0.0,2.0429,2.1364,2.2228,2.2738,2.3354,2.3823,2.4148,2.391,2.4162,2.5027,2.428,2.4159,2.51,2.5418,2.5705,2.6061,2.6383,2.6705,2.6983,2.6983,2.6983,2.6998,2.7364,2.7686,2.7926,2.8291,2.8637,2.8886,2.8886,2.8886,2.8886,2.8886,2.8886,2.8886,2.8886,2.8886,2.8886,2.8886,2.8886,2.8886,2.8886,2.8886,2.8886,2.8886,2.9134,2.9467,2.9467,2.9701,2.9965,3.0009,2.9965,2.9921,2.9994,3.0199,3.0331,3.0068,3.0407,3.0671,3.0141,3.0214,3.0302,3.0009,2.9701,2.9584,2.995,3.0229,3.0405,3.0434,3.215,3.3388,3.3388,3.4758,3.5106,3.3551,3.3224,3.25,3.0942,3.2211,3.2458,3.09,3.5534,3.7596,3.6075,3.7834,3.9531,4.088,3.9374,3.9256,4.0607,4.1016,4.0197,3.835,3.9864,3.9786,0.0,0.0,0.0,0.0,0.0,0.0,1.983,0.0,1.9444,0.0,0.0,0.0,0.0,0.0,0.0,0.0,1.9081,0.0,0.0,0.0,2.0983,0.0,0.0,0.0,2.3457,2.3398,2.3559,2.4192,2.3823,2.3866,2.4499,2.5154,2.5559,2.569,2.6237,2.6574,2.6705,2.6896,2.6983,2.6998,2.732,2.7554,2.77,2.816,2.8467,2.8637,2.8812,2.8886,2.8886,2.8886,2.8886,2.8886,2.8886,2.8886,2.8886,2.8886,2.8886,2.8886,2.8886,2.8886,2.8915,2.9144,2.9306,2.9452,2.9643,2.9657,2.9657,2.9848,2.9628,2.9423,2.9804,2.9862,2.9833,2.9892,3.0258,3.0463,3.0009,3.0009,3.0009,2.9687,2.935,2.9134,2.932,2.976,3.0536,3.1675,3.3596,3.5268,3.6276,3.7077,3.7237,3.6517,3.4595,3.3101,3.2376,3.2046,3.1591,3.0859,3.4782,3.7237,3.7516,3.9177,4.0431,4.1172,4.047,4.047,4.1211,4.1211,4.0802,4.0118,4.0841,4.0802,2.078,0.0,0.0,0.0,0.0,0.0,0.0,0.0,0.0,0.0,0.0,0.0,0.0,0.0,0.0,0.0,0.0,1.8975,0.0,1.8946,0.0,0.0,0.0,0.0,0.0,2.2564,2.2696,2.3281,2.3091,2.3281,2.4075,2.4744,2.5223,2.5486,2.6076,2.6413,2.65,2.6822,2.6983,2.6998,2.7269,2.7393,2.7495,2.7964,2.8233,2.8408,2.8666,2.8812,2.8886,2.8886,2.8886,2.8886,2.8886,2.8886,2.8886,2.8886,2.8886,2.8886,2.8886,2.8886,2.893,2.9164,2.9237,2.932,2.9569,2.9467,2.9295,2.9569,2.9291,2.9017,2.9628,2.9599,2.9481,2.9716,3.0024,3.0141,2.9731,2.9716,2.9672,2.935,2.9047,2.8886,2.8886,2.9393,3.0235,3.1706,3.379,3.58,3.7514,3.8256,3.8606,3.8606,3.6356,3.4433,3.347,3.269,3.2443,3.2921,3.4863,3.705,3.9366,4.0586,4.1269,4.1348,4.1269,4.1211,4.1211,4.1211,4.1211,4.1211,4.1211,4.1211,0.0,0.0,0.0,2.0546,0.0,0.0,0.0,0.0,2.0006,0.0,0.0,0.0,0.0,0.0,0.0,0.0,0.0,0.0,0.0,0.0,0.0,0.0,0.0,0.0,0.0,2.1174,2.1277,0.0,2.1803,2.2111,2.4016,2.4148,2.4554,2.5471,2.5822,2.6179,2.65,2.6822,2.6983,2.6983,2.6998,2.7174,2.7518,2.7533,2.7847,2.8394,2.8408,2.8622,2.8886,2.8886,2.8886,2.8886,2.8886,2.8886,2.8886,2.8886,2.8886,2.8886,2.8886,2.8886,2.8886,2.89,2.89,2.89,2.8915,2.8915,2.89,2.8915,2.89,2.8973,2.935,2.9423,2.9423,2.9423,2.9687,2.9745,2.9061,2.9203,2.9335,2.8973,2.89,2.8886,2.8886,2.9203,2.9437,2.9477,3.1493,3.3628,3.5367,3.7363,3.8606,3.8606,3.8527,3.7077,3.3674,3.492,3.6557,3.8231,3.6877,3.7694,4.156,4.1387,4.1367,4.1777,4.1426,4.1211,4.1211,4.1211,4.1211,4.1211,4.1211,4.1211,0.0,0.0,2.2813,2.1525,0.0,0.0,0.0,0.0,0.0,0.0,0.0,0.0,0.0,0.0,0.0,0.0,0.0,0.0,0.0,0.0,0.0,0.0,0.0,0.0,0.0,0.0,0.0,2.1628,2.1584,0.0,2.3062,2.394,2.4587,2.4891,2.5418,2.5822,2.6179,2.65,2.6778,2.6983,2.6983,2.7042,2.7196,2.7415,2.7598,2.7832,2.8218,2.8452,2.8608,2.8812,2.8886,2.8886,2.8886,2.8886,2.8886,2.8886,2.8886,2.8886,2.8886,2.8886,2.8886,2.8886,2.8886,2.8886,2.8886,2.8886,2.8886,2.8886,2.8886,2.8915,2.9032,2.9061,2.9061,2.9061,2.935,2.9467,2.8988,2.9149,2.932,2.8959,2.8886,2.8886,2.8886,2.8988,2.9552,3.0901,3.1992,3.3651,3.6475,3.7673,3.8689,3.9738,3.9088,3.8112,3.6957,3.5285,3.5042,3.6757,3.6316,3.7108,3.958,4.0684,4.125,4.1387,4.1289,4.1211,4.1211,4.1211,4.1211,4.1211,4.1211,4.1211,2.2608,2.3018,0.0,2.2125,2.2111,0.0,2.047,0.0,0.0,0.0,0.0,0.0,0.0,0.0,0.0,0.0,0.0,0.0,0.0,1.7814,0.0,0.0,0.0,0.0,0.0,1.9757,1.9989,2.0647,2.0998,2.1554,0.0,2.3588,2.4368,2.4587,2.5198,2.5602,2.5807,2.6164,2.65,2.6822,2.6822,2.6881,2.6998,2.7203,2.7401,2.7547,2.7999,2.8218,2.8262,2.871,2.8827,2.8739,2.8842,2.8886,2.8886,2.8886,2.8886,2.8886,2.8886,2.8886,2.8886,2.8886,2.8886,2.8886,2.8886,2.8886,2.8886,2.8886,2.8886,2.8886,2.8886,2.8886,2.8886,2.8886,2.9047,2.9149,2.893,2.9061,2.9134,2.893,2.8886,2.8886,2.8886,2.8886,2.9349,3.0716,3.1197,3.2622,3.5988,3.6713,3.7892,4.0258,3.9757,3.9088,3.8627,3.5834,3.4909,3.6797,3.6917,3.7787,3.9659,4.0684,4.1289,4.1387,4.1289,4.1211,4.1211,4.1211,4.1211,4.1211,4.1211,4.1211]},{"header":{"parameterUnit":"m.s-1","parameterCategory":1,"la1":30.6,"la2":29.2853,"lo1":-89.7004,"lo2":-87.6739,"dy":0.0162,"dx":0.0183,"nx":112,"ny":82,"refTime":"2025-09-05T12:00:00:Z","depth":0,"parameterNumber":3,"parameterNumberName":"V-component_of_WINDS"},"data":[0.0,0.0,0.0,0.0,0.0,0.0,0.0,0.0,0.0,0.0,0.0,0.0,0.0,0.0,0.0,0.0,0.0,0.0,0.0,0.0,0.0,0.0,0.0,0.0,0.0,0.0,0.0,0.0,0.0,0.0,0.0,0.0,0.0,0.0,0.0,0.0,0.0,0.0,0.0,0.0,0.0,0.0,0.0,0.0,0.0,0.0,0.0,0.0,0.0,0.0,0.0,0.0,0.0,0.0,0.0,0.0,0.0,0.0,0.0,0.0,0.0,0.0,0.0,0.0,0.0,0.0,0.0,0.0,0.0,0.0,0.0,0.0,0.0,0.0,0.0,0.0,0.0,0.0,0.0,0.0,0.0,0.0,0.0,0.0,0.0,0.0,0.0,0.0,0.0,0.0,0.0,3.6459,3.975,4.1818,4.1975,4.2379,4.0792,3.6516,0.0,0.0,0.0,0.0,0.0,0.0,0.0,0.0,0.0,0.0,0.0,0.0,0.0,0.0,0.0,0.0,0.0,0.0,0.0,0.0,0.0,0.0,0.0,0.0,0.0,0.0,0.0,0.0,0.0,0.0,0.0,0.0,0.0,0.0,0.0,0.0,0.0,0.0,0.0,0.0,0.0,0.0,0.0,0.0,0.0,0.0,0.0,0.0,0.0,0.0,0.0,0.0,0.0,0.0,0.0,0.0,0.0,0.0,0.0,0.0,0.0,0.0,0.0,0.0,0.0,0.0,0.0,0.0,0.0,0.0,0.0,0.0,0.0,0.0,0.0,0.0,0.0,0.0,0.0,0.0,0.0,0.0,0.0,0.0,0.0,0.0,0.0,0.0,0.0,0.0,0.0,0.0,0.0,0.0,0.0,0.0,0.0,0.0,0.0,0.0,0.0,0.0,0.0,0.0,3.5034,3.9952,4.2138,4.3272,4.3291,4.1817,3.9607,3.6645,0.0,0.0,0.0,0.0,0.0,0.0,0.0,0.0,0.0,0.0,0.0,0.0,0.0,0.0,0.0,0.0,0.0,0.0,0.0,0.0,0.0,0.0,0.0,0.0,0.0,0.0,0.0,0.0,0.0,0.0,0.0,0.0,0.0,0.0,0.0,0.0,0.0,0.0,0.0,0.0,0.0,0.0,0.0,0.0,0.0,0.0,0.0,0.0,0.0,0.0,0.0,0.0,0.0,0.0,0.0,0.0,0.0,0.0,0.0,0.0,0.0,0.0,0.0,0.0,0.0,0.0,0.0,0.0,0.0,0.0,0.0,0.0,0.0,0.0,0.0,0.0,0.0,0.0,0.0,0.0,0.0,0.0,0.0,0.0,0.0,0.0,0.0,0.0,0.0,0.0,0.0,0.0,0.0,0.0,0.0,0.0,0.0,0.0,0.0,0.0,0.0,0.0,0.0,3.4407,3.7035,4.138,4.2707,4.3325,4.3438,4.1855,3.962,3.6692,3.4459,0.0,0.0,0.0,0.0,0.0,0.0,0.0,0.0,0.0,0.0,0.0,0.0,0.0,0.0,0.0,0.0,0.0,0.0,0.0,0.0,0.0,0.0,0.0,0.0,0.0,0.0,0.0,0.0,0.0,0.0,0.0,0.0,0.0,0.0,0.0,0.0,0.0,0.0,0.0,0.0,0.0,0.0,0.0,0.0,0.0,0.0,0.0,0.0,0.0,0.0,0.0,0.0,0.0,0.0,0.0,0.0,0.0,0.0,0.0,0.0,0.0,0.0,0.0,0.0,0.0,0.0,0.0,0.0,0.0,0.0,0.0,0.0,0.0,0.0,0.0,0.0,0.0,0.0,0.0,0.0,0.0,0.0,0.0,0.0,0.0,0.0,0.0,0.0,0.0,0.0,0.0,0.0,0.0,0.0,0.0,0.0,0.0,0.0,0.0,0.0,0.0,0.0,3.7145,3.9089,4.1992,4.2938,4.3304,4.3149,4.1538,3.928,3.623,3.2673,0.0,0.0,0.0,0.0,0.0,0.0,0.0,0.0,0.0,0.0,0.0,0.0,0.0,0.0,0.0,0.0,0.0,0.0,0.0,0.0,0.0,0.0,0.0,0.0,0.0,0.0,0.0,0.0,0.0,0.0,0.0,0.0,0.0,0.0,0.0,0.0,0.0,0.0,0.0,0.0,0.0,0.0,0.0,0.0,0.0,0.0,0.0,0.0,0.0,0.0,0.0,0.0,0.0,0.0,0.0,0.0,0.0,0.0,0.0,0.0,0.0,0.0,0.0,0.0,0.0,0.0,0.0,0.0,0.0,0.0,0.0,0.0,0.0,0.0,0.0,0.0,0.0,0.0,0.0,0.0,0.0,0.0,0.0,0.0,0.0,0.0,0.0,0.0,0.0,0.0,0.0,0.0,0.0,0.0,0.0,0.0,0.0,0.0,0.0,0.0,0.0,0.0,3.8206,4.0773,4.2163,4.3629,4.3999,4.275,4.0228,3.7538,3.4813,3.0843,0.0,0.0,0.0,0.0,0.0,0.0,0.0,0.0,0.0,0.0,0.0,0.0,0.0,0.0,0.0,0.0,0.0,0.0,0.0,0.0,0.0,0.0,0.0,0.0,0.0,0.0,0.0,0.0,0.0,0.0,0.0,0.0,0.0,0.0,0.0,0.0,0.0,0.0,0.0,0.0,0.0,0.0,0.0,0.0,0.0,0.0,0.0,0.0,0.0,0.0,0.0,0.0,0.0,0.0,0.0,0.0,0.0,0.0,0.0,0.0,0.0,0.0,0.0,0.0,0.0,0.0,0.0,0.0,0.0,0.0,0.0,0.0,0.0,0.0,0.0,0.0,0.0,0.0,0.0,0.0,0.0,0.0,0.0,0.0,0.0,0.0,0.0,0.0,0.0,0.0,0.0,0.0,0.0,0.0,0.0,0.0,0.0,0.0,0.0,0.0,0.0,0.0,3.8717,4.1564,0.0,4.5395,4.5412,4.4013,4.1758,3.8905,3.5371,0.0,0.0,0.0,0.0,0.0,0.0,0.0,0.0,0.0,0.0,0.0,0.0,0.0,0.0,0.0,0.0,0.0,0.0,0.0,0.0,0.0,0.0,0.0,0.0,0.0,0.0,0.0,0.0,0.0,0.0,0.0,0.0,0.0,0.0,0.0,0.0,0.0,0.0,0.0,0.0,0.0,0.0,0.0,0.0,0.0,0.0,0.0,0.0,0.0,0.0,0.0,0.0,0.0,0.0,0.0,0.0,0.0,0.0,0.0,0.0,0.0,0.0,0.0,0.0,0.0,0.0,0.0,0.0,0.0,0.0,0.0,0.0,0.0,0.0,0.0,0.0,0.0,0.0,0.0,0.0,0.0,0.0,0.0,0.0,0.0,0.0,0.0,0.0,0.0,0.0,0.0,0.0,0.0,0.0,0.0,0.0,0.0,0.0,0.0,0.0,0.0,0.0,3.6262,3.9615,4.2671,0.0,4.6407,4.6245,4.4804,4.2591,3.9509,3.5399,0.0,0.0,0.0,0.0,0.0,0.0,0.0,0.0,0.0,0.0,0.0,0.0,0.0,0.0,0.0,0.0,0.0,0.0,0.0,0.0,0.0,0.0,0.0,0.0,0.0,0.0,0.0,0.0,0.0,0.0,0.0,0.0,0.0,0.0,0.0,0.0,0.0,0.0,0.0,0.0,0.0,0.0,0.0,0.0,0.0,0.0,0.0,0.0,0.0,0.0,0.0,0.0,0.0,0.0,0.0,0.0,0.0,0.0,0.0,0.0,0.0,0.0,0.0,0.0,0.0,0.0,0.0,0.0,0.0,0.0,0.0,0.0,0.0,0.0,0.0,0.0,0.0,0.0,0.0,0.0,0.0,0.0,0.0,0.0,0.0,0.0,0.0,0.0,0.0,0.0,0.0,0.0,0.0,0.0,0.0,0.0,0.0,0.0,0.0,0.0,0.0,0.0,3.6913,4.1056,4.4253,4.5696,4.6441,4.6262,4.4837,4.216,3.8793,0.0,0.0,0.0,0.0,0.0,0.0,0.0,0.0,0.0,0.0,0.0,0.0,0.0,0.0,0.0,0.0,0.0,0.0,0.0,0.0,0.0,0.0,0.0,0.0,0.0,0.0,0.0,0.0,0.0,0.0,0.0,0.0,0.0,0.0,0.0,0.0,0.0,0.0,0.0,0.0,0.0,0.0,0.0,0.0,0.0,0.0,0.0,0.0,0.0,0.0,0.0,0.0,0.0,0.0,0.0,0.0,0.0,0.0,0.0,0.0,0.0,0.0,0.0,0.0,0.0,0.0,0.0,0.0,0.0,0.0,0.0,0.0,0.0,0.0,0.0,0.0,0.0,0.0,0.0,0.0,0.0,0.0,0.0,0.0,0.0,0.0,0.0,0.0,0.0,0.0,0.0,0.0,0.0,0.0,0.0,0.0,0.0,0.0,0.0,0.0,0.0,0.0,0.0,3.9055,4.2837,4.5933,4.7855,4.8221,4.7753,4.6298,4.4037,4.0885,3.6631,0.0,0.0,0.0,0.0,0.0,0.0,0.0,0.0,0.0,0.0,0.0,0.0,0.0,0.0,0.0,0.0,0.0,0.0,0.0,0.0,0.0,0.0,0.0,0.0,0.0,0.0,0.0,0.0,0.0,0.0,0.0,0.0,0.0,0.0,0.0,0.0,0.0,0.0,0.0,0.0,0.0,0.0,0.0,0.0,0.0,0.0,0.0,0.0,0.0,0.0,0.0,0.0,0.0,0.0,0.0,0.0,0.0,0.0,0.0,0.0,0.0,0.0,0.0,0.0,0.0,0.0,0.0,0.0,0.0,0.0,0.0,0.0,0.0,0.0,0.0,0.0,0.0,0.0,0.0,0.0,0.0,0.0,0.0,0.0,0.0,0.0,0.0,0.0,0.0,0.0,0.0,0.0,0.0,0.0,0.0,0.0,0.0,0.0,0.0,0.0,0.0,0.0,4.0254,4.3949,4.6935,4.8803,4.9018,4.8511,4.7327,4.5518,4.264,3.8382,0.0,0.0,0.0,0.0,0.0,0.0,0.0,0.0,0.0,0.0,0.0,0.0,0.0,0.0,0.0,0.0,0.0,0.0,0.0,0.0,0.0,0.0,0.0,0.0,0.0,0.0,0.0,0.0,0.0,0.0,0.0,0.0,0.0,0.0,0.0,0.0,0.0,0.0,0.0,0.0,0.0,0.0,0.0,0.0,0.0,0.0,0.0,0.0,0.0,0.0,0.0,0.0,0.0,0.0,0.0,0.0,0.0,0.0,0.0,0.0,0.0,0.0,0.0,0.0,0.0,0.0,0.0,0.0,0.0,0.0,0.0,0.0,0.0,0.0,0.0,0.0,0.0,0.0,0.0,0.0,0.0,0.0,0.0,0.0,0.0,0.0,0.0,0.0,0.0,0.0,0.0,0.0,0.0,0.0,0.0,0.0,0.0,0.0,0.0,0.0,0.0,0.0,4.0881,4.4587,4.7428,4.8849,4.9018,4.8698,4.7954,4.6602,4.4041,3.9939,0.0,0.0,0.0,0.0,0.0,0.0,0.0,0.0,0.0,0.0,0.0,0.0,0.0,0.0,0.0,0.0,0.0,0.0,0.0,0.0,0.0,0.0,0.0,0.0,0.0,0.0,0.0,0.0,0.0,0.0,0.0,0.0,0.0,0.0,0.0,0.0,0.0,0.0,0.0,0.0,0.0,0.0,0.0,0.0,0.0,0.0,0.0,0.0,0.0,0.0,0.0,0.0,0.0,0.0,0.0,0.0,0.0,0.0,0.0,0.0,3.7246,0.0,0.0,0.0,0.0,0.0,0.0,0.0,0.0,0.0,0.0,0.0,0.0,0.0,0.0,0.0,0.0,0.0,0.0,0.0,0.0,0.0,0.0,0.0,0.0,0.0,0.0,0.0,0.0,0.0,0.0,0.0,0.0,0.0,0.0,0.0,0.0,0.0,0.0,0.0,0.0,0.0,4.1745,4.5331,4.7988,4.8917,4.9018,4.8698,4.7954,4.709,4.493,4.11,3.9069,0.0,0.0,0.0,0.0,0.0,0.0,0.0,0.0,0.0,0.0,0.0,0.0,0.0,0.0,0.0,0.0,0.0,0.0,0.0,0.0,0.0,0.0,0.0,0.0,0.0,0.0,0.0,0.0,0.0,0.0,0.0,0.0,0.0,0.0,0.0,0.0,0.0,0.0,0.0,0.0,0.0,0.0,0.0,0.0,0.0,0.0,0.0,0.0,0.0,0.0,0.0,0.0,0.0,0.0,0.0,0.0,0.0,0.0,0.0,0.0,3.914,0.0,0.0,0.0,0.0,0.0,0.0,0.0,0.0,0.0,0.0,0.0,0.0,0.0,0.0,0.0,0.0,0.0,0.0,0.0,0.0,0.0,0.0,0.0,0.0,0.0,0.0,0.0,0.0,0.0,0.0,0.0,0.0,0.0,0.0,0.0,0.0,0.0,0.0,0.0,0.0,4.3078,4.6346,4.8714,4.9458,4.9526,4.9221,4.8496,4.7752,4.6346,4.4045,4.1474,0.0,0.0,0.0,0.0,0.0,0.0,0.0,0.0,0.0,0.0,0.0,0.0,0.0,0.0,0.0,0.0,0.0,0.0,0.0,0.0,0.0,0.0,0.0,0.0,0.0,0.0,0.0,0.0,0.0,0.0,0.0,0.0,0.0,0.0,0.0,0.0,0.0,0.0,0.0,0.0,0.0,0.0,0.0,0.0,0.0,0.0,0.0,0.0,0.0,0.0,0.0,0.0,0.0,4.6567,4.7022,4.7563,4.7563,4.7472,4.7197,4.4974,4.3937,4.3544,0.0,0.0,0.0,0.0,0.0,0.0,0.0,0.0,0.0,0.0,0.0,0.0,0.0,0.0,0.0,0.0,0.0,0.0,0.0,0.0,0.0,0.0,0.0,0.0,0.0,4.485,4.4392,0.0,0.0,0.0,0.0,0.0,0.0,0.0,0.0,0.0,0.0,0.0,0.0,4.4465,4.7462,4.9627,5.0236,5.027,5.0033,4.9458,4.8834,4.809,4.7225,4.4147,4.1644,0.0,0.0,0.0,0.0,0.0,0.0,0.0,0.0,0.0,0.0,0.0,0.0,0.0,0.0,0.0,0.0,0.0,0.0,0.0,0.0,0.0,0.0,0.0,0.0,0.0,0.0,0.0,0.0,0.0,0.0,0.0,0.0,3.508,3.5865,0.0,0.0,0.0,0.0,0.0,0.0,0.0,0.0,0.0,0.0,0.0,0.0,0.0,4.4968,4.6452,4.8341,4.9675,5.0591,5.2335,5.3539,5.4239,5.4239,5.4244,5.4188,5.382,0.0,4.4468,4.4622,0.0,0.0,0.0,0.0,0.0,0.0,0.0,0.0,0.0,0.0,0.0,0.0,0.0,0.0,0.0,0.0,0.0,0.0,0.0,0.0,0.0,0.0,4.9455,4.8498,4.8365,4.8281,0.0,4.3651,4.0022,3.9024,0.0,0.0,0.0,0.0,0.0,0.0,0.0,0.0,4.5432,4.8698,5.0964,5.1032,5.1066,5.1032,5.093,5.0829,5.0186,4.8815,4.765,4.6075,4.3958,4.1779,0.0,0.0,0.0,0.0,0.0,0.0,0.0,0.0,0.0,0.0,0.0,0.0,0.0,0.0,0.0,0.0,0.0,0.0,0.0,0.0,0.0,0.0,0.0,0.0,0.0,0.0,0.0,0.0,0.0,3.4914,3.7271,3.7016,3.7816,3.7865,0.0,0.0,0.0,0.0,0.0,0.0,0.0,0.0,0.0,4.7919,4.8861,5.0172,5.196,5.3659,5.4907,5.5673,5.6564,5.7091,5.7349,5.7349,5.7106,5.6602,5.6602,5.4583,5.1144,4.9509,4.7712,4.5851,0.0,0.0,0.0,0.0,4.5235,4.5238,4.7422,4.7929,0.0,0.0,0.0,0.0,0.0,0.0,0.0,0.0,0.0,0.0,0.0,0.0,0.0,5.1447,5.1883,5.2034,5.1626,4.891,4.5906,0.0,4.2636,4.1557,3.9365,0.0,0.0,0.0,0.0,4.6394,4.797,5.0304,5.181,5.181,5.181,5.1641,5.1235,5.1201,5.093,5.0288,4.9544,4.8511,4.7139,4.5331,4.3234,0.0,0.0,0.0,0.0,0.0,0.0,0.0,0.0,0.0,0.0,0.0,0.0,0.0,0.0,0.0,0.0,0.0,0.0,0.0,0.0,0.0,0.0,0.0,0.0,0.0,0.0,0.0,0.0,3.7309,3.9375,3.8287,4.0185,4.0839,0.0,0.0,0.0,0.0,0.0,0.0,4.6865,4.7358,4.9092,5.2415,5.3654,5.5073,5.6815,5.7915,5.8829,5.9588,5.9588,5.9622,5.9725,5.9725,5.935,5.8745,5.8745,5.8372,5.7485,5.4072,5.2145,5.1136,4.9645,4.8963,4.8999,5.0365,5.0418,5.0192,5.2612,5.3015,5.2143,5.0561,0.0,4.8213,4.5365,0.0,0.0,0.0,0.0,4.6848,4.9809,5.1145,5.21,5.3686,5.4329,5.4431,5.389,5.2875,5.11,0.0,4.709,4.6177,4.3403,0.0,0.0,0.0,0.0,4.8323,5.0135,5.1691,5.2604,5.2604,5.2604,5.2401,5.1844,5.1776,5.1776,5.1776,5.1082,5.0405,4.9864,4.8409,4.6413,4.3775,0.0,0.0,0.0,0.0,0.0,0.0,0.0,0.0,0.0,0.0,0.0,0.0,0.0,0.0,0.0,0.0,0.0,0.0,0.0,0.0,0.0,0.0,0.0,0.0,0.0,0.0,0.0,0.0,0.0,4.0436,4.4067,0.0,0.0,0.0,0.0,4.4705,4.6094,4.8425,5.2039,5.3503,5.5542,5.8484,5.8638,5.9062,5.9877,5.9945,6.0385,6.1197,6.1197,6.1549,6.222,6.222,6.2201,6.2147,6.2147,6.1722,6.0796,5.7558,5.5482,5.4274,5.4176,5.376,5.3354,5.4845,5.4903,5.4497,5.6037,5.6101,5.5443,5.5341,5.2991,5.0026,4.9144,4.7935,0.0,0.0,5.044,5.2441,5.3938,5.4886,5.5461,5.5564,5.5074,5.4583,5.455,5.4465,5.3721,0.0,4.9273,4.7785,4.7616,0.0,4.6819,4.7515,4.8951,5.0236,5.1032,5.2486,5.345,5.345,5.345,5.3416,5.3382,5.3382,5.3382,5.3382,5.2638,5.2164,5.2131,5.071,4.9187,4.765,4.4045,0.0,0.0,0.0,0.0,0.0,0.0,0.0,0.0,0.0,0.0,0.0,0.0,0.0,0.0,0.0,0.0,0.0,0.0,0.0,0.0,0.0,0.0,0.0,0.0,0.0,0.0,0.0,0.0,4.5251,4.7586,0.0,4.6891,4.7295,4.8431,5.0376,5.1865,5.3842,5.656,5.7199,5.8167,5.9656,6.0216,6.0622,6.0858,6.1332,6.1704,6.2009,6.2009,6.2381,6.3125,6.3125,6.3362,6.3802,6.3802,6.3396,6.2626,6.1482,5.9857,5.8093,5.8093,5.7959,5.7816,5.8331,5.8373,5.8141,5.8195,5.7746,5.6968,5.6003,5.4833,5.3716,5.3447,5.3023,5.2735,5.3244,5.3934,5.4693,5.5173,5.5852,5.6274,5.58,5.5852,5.5886,5.5412,5.531,5.5056,5.4245,5.2689,5.1032,4.956,4.9492,4.956,4.9357,5.0574,5.1792,5.2588,5.3179,5.3518,5.3518,5.3518,5.3518,5.3518,5.3518,5.3281,5.2773,5.2469,5.23,5.23,5.0879,4.983,4.9323,4.6583,4.3369,0.0,0.0,0.0,0.0,0.0,0.0,0.0,0.0,0.0,0.0,0.0,0.0,0.0,0.0,0.0,0.0,0.0,0.0,0.0,0.0,0.0,0.0,0.0,0.0,0.0,4.5224,4.768,4.8314,5.0827,5.1967,5.0644,5.1934,5.3562,5.5242,5.6477,5.7931,5.9689,5.9994,6.0385,6.0858,6.1637,6.1941,6.167,6.2381,6.2753,6.2753,6.2753,6.3159,6.3849,6.3849,6.414,6.4613,6.4613,6.4343,6.3849,6.3849,6.299,6.1569,6.1061,6.0892,6.0892,6.0892,6.0723,6.0351,5.9351,5.8863,5.8355,5.6612,5.6258,5.6359,5.5834,5.5868,5.6071,5.6071,5.624,5.6461,5.6461,5.6799,5.7036,5.6562,5.663,5.6664,5.6172,5.6071,5.6003,5.5767,5.4921,5.3687,5.1928,5.2029,5.2097,5.1352,5.2097,5.2909,5.345,5.3518,5.3518,5.3518,5.3518,5.3518,5.3518,5.3247,5.2875,5.2334,5.1826,5.1555,5.1555,5.0371,4.9593,4.9357,4.7428,4.4857,4.1597,0.0,0.0,0.0,0.0,0.0,0.0,0.0,0.0,0.0,0.0,0.0,0.0,0.0,0.0,0.0,0.0,0.0,0.0,0.0,0.0,0.0,0.0,0.0,4.5244,4.82,5.0159,4.946,5.3799,5.6055,5.3957,5.6359,5.8355,5.9081,5.981,6.0588,6.1366,6.2076,6.2468,6.2468,6.3159,6.3193,6.2502,6.3193,6.3511,6.3511,6.3511,6.3917,6.4647,6.4647,6.4647,6.4681,6.4681,6.4647,6.4647,6.4647,6.4613,6.4478,6.3024,6.2468,6.2468,6.2415,6.1941,6.1095,5.9588,5.952,5.9742,5.7611,5.7374,5.7679,5.624,5.6274,5.6833,5.6833,5.734,5.79,5.79,5.79,5.79,5.79,5.734,5.6833,5.6833,5.6833,5.663,5.5902,5.5767,5.553,5.4786,5.4617,5.4363,5.3653,5.3518,0.0,5.3518,5.3518,5.3518,5.3518,5.3518,5.3518,5.3518,5.2773,5.2266,5.2232,5.0879,5.0083,5.0117,4.939,4.8698,4.8022,4.6534,4.5432,4.4702,0.0,0.0,0.0,0.0,0.0,0.0,0.0,0.0,0.0,0.0,0.0,0.0,0.0,0.0,0.0,0.0,0.0,0.0,0.0,0.0,0.0,4.7916,5.0172,4.9028,5.1497,5.3937,5.5318,5.7198,5.8592,5.9099,6.0351,6.1467,6.2192,6.2956,6.3463,6.3666,6.3869,6.4005,6.4005,6.4208,6.4208,6.4005,6.4208,6.4309,6.4309,6.4309,6.4681,6.5392,6.5392,6.5696,6.6203,6.6203,6.5899,6.5392,6.5392,6.5087,6.4546,6.414,6.4005,6.3937,6.3396,6.2415,6.1231,6.0825,6.0419,6.0013,5.9404,5.8964,5.8607,5.8201,5.7881,5.7577,5.7577,5.773,5.79,5.79,5.79,5.79,5.79,5.7764,5.7577,5.7577,5.7577,5.7543,5.734,5.7306,5.69,5.5615,5.4938,5.455,5.4329,5.3856,0.0,5.3518,5.3518,5.3518,5.3518,5.3518,5.3518,5.3518,5.2773,5.1826,5.0777,4.983,4.9526,5.0083,4.939,4.9409,5.0288,4.8326,4.721,0.0,0.0,0.0,0.0,0.0,0.0,0.0,0.0,0.0,0.0,0.0,0.0,0.0,0.0,0.0,0.0,0.0,0.0,0.0,0.0,0.0,0.0,5.1747,5.4108,5.3964,5.5118,5.6697,5.861,5.9505,6.0452,6.1637,6.2415,6.3159,6.3903,6.4377,6.4613,6.4613,6.4613,6.4613,6.4613,6.4884,6.4918,6.4613,6.4918,6.5053,6.5053,6.5053,6.5459,6.617,6.617,6.6406,0.0,6.6791,6.6576,6.617,6.617,6.5899,0.0,0.0,0.0,0.0,0.0,6.297,6.2144,6.1501,6.1197,6.096,6.0317,6.0047,5.9892,5.9554,5.8964,5.8355,5.8355,5.8355,5.8355,5.8355,5.8355,5.8457,5.8727,5.8592,5.8457,5.8761,5.8795,5.8727,5.8423,5.8355,0.0,5.6833,5.6021,5.531,5.4685,5.4228,5.3856,5.3551,5.3518,5.3518,5.3518,5.3518,5.3518,5.3518,5.2773,0.0,0.0,0.0,4.9492,4.9627,4.9221,0.0,0.0,0.0,0.0,0.0,0.0,0.0,0.0,4.8951,4.8984,0.0,0.0,0.0,0.0,0.0,0.0,0.0,0.0,0.0,0.0,0.0,0.0,0.0,0.0,0.0,0.0,5.5277,5.7679,5.9148,5.8761,5.8761,6.008,6.1028,6.1839,6.2584,6.3328,6.4052,6.4783,6.485,6.485,6.485,0.0,0.0,0.0,0.0,6.5493,6.485,6.5493,6.5797,6.5797,6.5797,6.617,6.6791,6.6791,6.6791,6.6791,6.6791,6.6859,6.6927,6.6927,6.6927,6.6791,6.5392,6.4783,6.4647,6.3984,6.3646,6.3308,6.2009,0.0,0.0,6.0791,6.0791,6.1163,6.0452,5.9708,5.9115,5.9115,5.9115,5.9115,5.9115,5.9115,5.9284,5.9945,5.9607,5.9284,5.9945,6.0114,5.9911,5.925,5.9047,5.8776,5.8118,5.734,5.6359,5.5057,5.4769,5.4499,5.3822,5.3754,5.3754,5.3754,0.0,0.0,5.3619,5.2807,5.2266,5.2198,5.1014,5.0033,4.939,4.9627,5.071,5.2773,5.2807,5.416,5.6934,5.7103,5.7543,5.817,5.2604,5.1894,0.0,0.0,0.0,0.0,0.0,0.0,0.0,0.0,0.0,0.0,0.0,0.0,0.0,0.0,0.0,5.5631,5.7915,6.0013,6.1535,6.1095,6.0757,6.1028,6.226,6.3342,6.4106,6.4816,6.5595,6.6339,6.6352,6.6352,6.6352,6.6352,6.6352,6.6352,6.6508,6.6521,6.6385,6.6521,6.6609,6.6609,0.0,0.0,6.6791,6.6791,6.6791,6.6791,6.6791,6.7151,6.7692,6.7692,6.7692,6.759,6.6745,6.6,6.548,6.5324,6.4512,6.3443,6.3173,6.2787,6.2367,6.2062,6.167,6.1264,6.1129,6.052,0.0,5.9877,5.9877,5.9877,5.9877,5.9877,5.9911,6.008,5.9979,5.9945,6.008,6.0114,6.0047,5.9911,5.9404,5.8945,5.881,5.7679,5.6697,5.6427,5.5886,5.5428,5.5293,5.5259,5.5259,5.5259,5.4735,5.4414,5.4414,5.3112,5.2063,5.1438,5.1691,5.1792,5.1657,5.3433,5.4905,5.5919,5.5919,5.6494,5.7679,5.8863,5.9877,6.0554,5.7577,5.7205,0.0,0.0,0.0,0.0,0.0,0.0,0.0,0.0,0.0,0.0,0.0,5.0739,5.2115,0.0,5.7306,5.8829,5.9979,6.1095,6.2265,6.2076,6.1839,6.1839,6.2482,6.3531,6.5019,6.548,6.6339,6.7861,6.7963,6.7963,6.7963,6.7963,6.776,6.7354,6.7354,6.7184,6.6791,6.6791,6.6791,6.6791,6.7184,6.7354,6.7354,6.776,6.7963,6.7963,6.7963,6.8166,6.8504,6.8504,6.8504,6.8436,6.7658,6.6914,6.6203,6.5831,6.5222,6.4546,6.4174,6.3565,6.2956,6.2956,6.2448,6.1839,6.1839,6.1298,6.0689,6.0689,6.0689,6.0689,6.0689,6.0689,6.0791,6.1163,6.096,6.0791,6.1163,6.1231,6.1129,6.0757,6.0419,6.0028,5.9641,5.893,5.8084,5.6968,5.6494,5.6105,5.5767,5.5699,5.5699,5.5699,5.5361,5.5141,5.5141,5.4465,5.3839,5.3467,5.3805,5.4008,5.4008,5.5428,5.6596,5.734,5.7712,5.8626,6.0167,6.0892,6.1839,6.2922,6.1772,6.1637,0.0,0.0,0.0,0.0,0.0,0.0,0.0,4.8187,4.9476,5.0507,5.3247,5.5649,5.624,5.8168,6.0095,6.1501,6.1738,6.2042,6.2942,6.2787,6.2651,6.2806,6.2685,6.3429,6.5514,6.5852,6.6779,6.8944,6.9113,6.9113,6.9113,6.9113,6.8808,6.8166,6.8132,6.7861,6.7231,6.7252,6.7252,6.7231,6.7861,6.8132,6.8166,6.8808,6.9113,6.9113,6.9248,6.9316,6.9316,6.9316,6.9316,6.9248,6.8436,6.7658,6.6914,6.617,6.5797,6.5615,6.5019,6.4241,6.3511,6.3511,6.299,6.24,6.24,6.1975,6.1501,6.1501,6.1501,6.1501,6.1501,6.1501,6.167,6.2265,6.1941,6.167,6.2245,6.24,6.2231,6.1637,6.14,6.1095,6.0452,6.0216,5.9505,5.7712,5.7306,5.7018,5.6409,5.6206,5.6139,5.6139,5.6003,5.5868,5.5699,5.5699,5.5699,5.5699,5.5969,5.6139,5.6139,5.6968,5.7848,5.878,5.937,6.0723,6.284,6.2976,6.3632,6.4816,6.5121,6.5087,4.3047,4.4398,4.5883,4.7833,4.8407,4.9736,0.0,5.4633,5.4431,5.6461,5.7746,5.854,5.8607,6.0486,6.2279,6.3105,6.324,6.3734,6.5121,6.4208,6.3632,6.4275,6.3802,6.4005,6.5547,6.6305,6.7354,6.8977,6.9113,6.9113,6.9113,6.9113,6.9079,6.8977,6.8977,6.8944,6.8842,6.8842,6.8842,6.8842,6.8944,6.8977,6.8977,6.9079,6.9113,6.9147,6.9789,7.0082,7.0082,7.0082,7.0082,6.9992,6.9248,6.847,6.7692,6.6948,6.6271,6.5683,6.5615,6.4681,6.3511,6.3511,6.299,6.24,6.24,6.2347,6.2299,6.2299,6.2299,6.2299,6.2299,6.2299,6.2299,6.24,6.2347,6.2279,6.24,6.24,6.24,6.2299,6.1738,6.1264,6.1197,6.0588,6.0013,5.9776,5.9167,5.8709,5.8641,5.8051,5.7645,5.7645,5.707,5.6409,5.5767,5.5699,5.5699,5.5699,5.6934,5.7645,5.7645,5.8998,6.0419,6.1893,6.1994,6.2787,6.4377,6.4986,6.5412,6.5615,6.6914,6.6812,4.7609,4.8568,4.9512,5.1709,5.257,5.3721,5.6731,5.6968,5.6918,5.8254,5.9844,6.1129,6.1549,6.2395,6.3294,6.4038,6.3781,6.3714,6.4343,6.3903,6.3612,6.3917,6.368,6.4424,6.6745,6.7252,6.8267,7.0229,7.0376,7.0195,6.9755,7.0161,6.9992,6.9147,6.9519,6.9519,6.9113,6.9113,6.9113,6.9113,6.9553,6.9722,6.9755,7.0195,7.0376,7.0398,7.0703,7.0838,7.0838,7.0838,7.0838,7.077,7.0026,6.9519,6.9079,6.7895,6.6981,6.6339,6.6339,6.5662,6.4783,6.4783,6.4005,6.3057,6.3057,6.2753,6.2482,6.2922,6.2719,6.2584,6.3463,6.3362,6.3057,6.3057,6.3362,6.3429,6.2603,6.2719,6.2922,6.2502,6.2144,6.1941,6.1941,6.167,6.1434,6.1434,6.0419,5.9641,5.9641,5.937,5.9032,5.8592,5.8235,5.7965,5.766,5.7627,5.7796,5.8254,5.8829,5.937,5.9844,6.0892,6.1941,6.3024,6.3463,6.4208,6.5222,6.5547,6.6157,6.6981,6.7624,6.7827,5.0254,5.1505,5.2824,5.4499,5.5919,5.7288,5.8795,5.8983,5.9167,6.0317,6.1535,6.2618,6.3342,6.3308,6.3497,6.4444,6.4005,6.3646,6.4072,6.3917,6.3882,6.4067,6.4106,6.5173,6.7974,6.8061,6.8795,7.086,7.0992,7.0743,7.0217,7.05,7.0195,6.9147,6.9823,6.9925,6.9417,6.962,6.9722,6.9722,7.0026,7.0217,7.0217,7.0737,7.1007,7.1007,7.1188,7.1289,7.1289,7.1289,7.1289,7.1255,7.0703,7.0364,7.0082,6.8944,6.7929,6.7096,6.7096,6.6474,6.5717,6.5717,6.485,6.3781,6.3781,6.3429,6.3125,6.3666,6.3429,6.3226,6.4309,6.4072,6.3511,6.3511,6.3903,6.3937,6.2651,6.299,6.3274,6.2516,6.24,6.24,6.24,6.24,6.24,6.24,6.1434,6.0655,6.0452,6.025,5.9911,5.9351,5.9284,5.9284,5.9284,5.9284,5.9539,6.008,6.0317,6.0791,6.1569,6.2313,6.3159,6.4106,6.485,6.5561,6.6305,6.6508,6.7184,6.8233,6.8436,6.8842,4.9458,5.2249,5.5564,5.5665,5.7829,6.0351,6.1927,6.1704,6.1806,6.3971,6.3328,6.2618,6.3342,6.2922,6.2888,6.4377,6.4005,6.4005,6.5446,6.5019,6.4849,6.5551,6.5646,6.6538,6.8838,6.8405,6.8645,7.0126,7.0225,7.0227,7.0194,6.9553,6.9147,6.9113,6.9823,7.0184,7.0184,7.0872,7.1222,7.1222,7.0534,7.0217,7.0217,7.0217,7.0251,7.0263,7.1007,7.1289,7.1289,7.1289,7.1289,7.1289,7.1255,7.0838,7.0195,7.015,6.9147,6.7861,6.7861,6.6914,6.5717,6.5717,6.5189,6.458,6.458,6.4546,6.4546,6.4546,6.4546,6.4546,6.458,6.4072,6.3511,6.3511,6.3511,6.3308,6.255,6.299,6.3274,6.2516,6.24,6.24,6.24,6.24,6.24,6.24,6.2367,6.2076,6.1366,6.0588,6.008,6.008,6.008,6.008,6.008,6.008,6.008,6.0114,6.0825,6.1603,6.2347,6.3091,6.414,6.5615,6.6373,6.7117,6.7827,6.8605,6.9011,6.9079,6.9789,7.0128,5.2164,5.4532,5.7036,5.9539,6.0892,6.2144,6.416,6.4005,6.3565,6.3815,6.3091,6.2502,6.2719,6.1738,6.1535,6.3545,6.3646,6.4205,6.62,6.6279,6.6228,6.6465,6.6959,6.7383,6.7619,6.8274,0.0,7.1651,7.1315,7.0784,7.0277,6.9988,6.9373,6.8356,6.9045,6.9959,7.0989,7.0728,7.0842,7.1345,7.0095,6.9451,6.9485,6.9958,7.0217,7.0217,7.0466,7.0838,7.1255,7.077,7.0872,7.1289,7.1289,7.1142,7.0939,7.0939,7.0297,6.9282,6.8233,6.7252,6.644,6.644,6.5933,6.5324,6.5324,6.4986,6.4715,6.5189,6.4986,6.4816,6.5831,6.5527,6.4952,6.4952,6.5324,6.5337,6.4106,6.4872,6.5559,6.4804,6.5089,6.5444,6.5444,6.4584,6.3589,6.2546,6.2821,6.2854,6.211,6.2212,6.1955,6.0994,6.0892,6.0892,6.0892,6.1332,6.1839,6.2327,6.3091,6.3802,6.4566,6.4816,6.5662,6.7117,6.7387,6.7929,6.8707,6.8977,6.935,6.9823,7.006,7.0466,5.4854,5.707,5.9099,6.2076,6.3193,6.3957,6.5378,6.4918,6.4072,6.3579,6.2279,6.1197,6.1197,5.9945,5.9836,6.2634,6.3339,6.4331,6.6598,6.7128,6.7322,6.7323,6.7781,6.8203,6.8533,6.9404,7.0592,7.2098,7.1744,7.1258,7.0744,6.988,6.8952,6.7972,6.8701,6.9575,7.0567,7.0608,7.0753,7.0977,6.9996,6.9557,6.9577,7.0332,7.0812,7.1087,7.1054,7.1141,7.1302,7.0802,7.0737,7.0939,7.121,7.1289,7.1289,7.1289,7.0838,7.0082,6.9079,6.8233,6.7624,6.7624,6.7286,6.6914,6.6914,6.6576,6.6237,6.644,6.6136,6.5933,6.6622,6.6237,6.5717,6.5717,6.6068,6.6151,6.5221,6.6009,6.675,6.6326,6.6631,6.6989,6.6989,6.6157,6.5211,6.4186,6.4675,6.4575,6.3002,6.3422,6.3538,6.2576,6.2476,6.2597,6.2872,6.3318,6.3802,6.4278,6.477,6.5229,6.5683,6.5717,6.6373,6.7861,6.8166,6.8707,6.9485,6.9755,7.0128,7.0601,7.0601,7.0838,5.7273,5.9708,6.1772,6.324,6.4647,6.5717,6.5717,6.4546,6.3477,6.3342,6.0941,5.881,5.8709,5.7611,5.7881,6.1613,6.3017,6.4381,6.6707,6.771,6.8205,6.8211,6.8258,6.9128,7.125,7.1531,7.1541,7.1568,0.0,7.1606,7.1507,6.9393,6.8182,6.8143,6.8779,6.9213,6.9307,7.0678,7.1042,7.0321,7.0251,7.0323,7.045,7.1166,7.1903,7.2621,7.2498,7.2043,7.1381,7.1311,7.087,7.0349,7.0995,7.1221,7.1221,7.1244,7.0804,7.0217,7.0229,6.9755,6.9113,6.9113,6.9113,6.9113,6.9113,6.9113,6.8944,6.8166,6.7963,6.7793,6.7096,6.6406,6.5886,6.5886,6.5927,6.5936,6.6017,6.6628,6.721,6.7216,6.7218,6.72,6.713,6.7112,6.7095,6.6989,6.7639,6.7018,6.3989,6.4258,6.4691,6.4672,6.4671,6.5004,6.5794,6.59,6.5914,6.5925,6.5937,6.5931,6.582,6.5846,6.6537,6.7929,6.8741,6.9519,7.0263,7.0973,7.1289,7.1289,7.1289,7.1289,5.9607,6.167,6.3274,6.4783,6.5425,6.5717,6.5717,6.4546,6.3004,6.1332,5.8607,5.6206,5.509,5.504,5.6199,5.9375,6.1947,6.4789,6.8164,6.9331,6.9817,6.9805,7.0317,7.0669,7.0698,7.1712,7.2384,0.0,7.2424,7.2152,7.1606,7.1002,7.041,6.9799,6.999,7.0658,7.185,7.1641,7.1141,7.0286,6.9743,6.978,7.045,7.1166,7.1622,7.1814,7.1777,7.1625,7.1342,7.0778,7.0749,7.1037,7.065,7.0483,7.0467,7.0471,7.0364,7.0285,7.0838,7.0195,6.9113,6.9113,6.9113,6.9113,6.9113,6.9113,6.9079,6.8842,6.8808,6.8741,6.8571,6.8368,6.8233,6.8233,6.8696,6.9137,6.9133,7.0291,7.1126,7.0522,7.0396,7.0005,6.8898,6.8689,6.8341,6.7183,6.7639,6.7391,6.546,6.5879,6.6091,6.5549,6.5513,6.5829,6.6637,6.7217,6.7514,6.7524,6.8031,6.8056,6.7442,6.7916,6.8398,6.8796,6.9519,7.0263,7.1041,7.1188,7.1289,7.1289,7.1289,7.1289,6.2009,6.3599,6.4749,6.5899,6.5933,6.5378,6.4038,6.2618,6.0603,5.734,5.4837,5.2958,5.2063,5.2823,5.475,5.8291,6.1778,6.524,6.8701,7.0499,7.1385,7.1411,7.2074,7.2545,7.2472,7.3559,7.4138,7.376,7.3108,7.2512,7.2097,7.1792,7.1249,7.0433,7.0734,7.1357,7.2207,7.1792,7.1323,7.0805,7.0412,7.0821,7.1943,7.2371,7.2941,7.3582,0.0,7.236,7.1969,7.112,7.0829,7.0896,7.0782,7.0724,7.0734,7.0719,7.0739,7.0842,7.1599,7.1345,7.0566,7.0187,7.006,7.006,7.006,7.006,6.9992,6.9654,6.9586,6.9519,6.918,6.9088,6.9181,6.9565,7.0009,7.0434,7.0782,7.1619,7.2242,7.212,7.2358,7.2163,7.1012,7.109,7.0795,6.9213,6.9644,6.968,6.8468,6.8057,6.7758,6.7349,6.7292,6.7613,6.8397,6.8896,6.9099,6.9088,6.9849,6.9876,6.9103,6.9795,7.0342,7.0664,7.1077,7.1451,7.1808,7.1808,7.1644,7.1289,7.1289,7.1289,6.4309,6.5358,6.6,6.6622,6.617,6.4783,6.1806,5.9791,5.7322,5.2909,5.0744,4.961,4.9408,5.0799,5.3395,5.7697,6.1733,6.5433,6.8753,7.1132,7.2565,7.269,7.3398,7.4158,7.4882,7.5659,7.5841,7.5136,7.3905,7.3052,7.271,7.2295,7.165,7.0739,7.14,7.1651,7.1479,7.1494,7.1494,7.1494,7.1603,7.2472,7.3905,7.4013,7.4826,7.6061,7.4669,0.0,7.2707,7.1901,7.1147,7.0513,7.1071,7.126,7.126,7.1252,7.123,7.139,7.2181,7.2427,7.2348,7.1665,7.1546,7.1612,7.1501,7.1457,7.1343,7.0694,7.0447,7.0212,6.9573,6.9481,6.9727,7.03,7.0659,7.1029,7.1605,7.176,7.1981,7.2705,7.3253,7.3398,7.2782,7.3181,7.3108,7.1712,7.2094,7.2327,7.1748,7.0296,6.9395,6.9493,6.9409,6.9663,7.0496,7.0641,7.0714,7.0718,7.1471,7.1534,7.0741,7.1462,7.2145,7.2695,7.28,7.2778,7.2666,7.2666,7.2334,7.1634,7.1501,7.1523,6.598,6.6487,6.6622,6.6757,6.5797,6.4005,6.0994,5.8201,5.5158,5.1285,4.8815,4.7316,4.71,4.8838,5.1749,5.6163,6.011,6.4168,6.8573,7.0661,7.1965,7.2601,7.3398,7.3941,7.4086,7.4846,7.5244,0.0,7.5478,7.479,7.2834,7.3826,7.3813,7.2368,7.244,7.2163,7.1531,7.1494,7.1494,7.1531,7.2183,7.2999,7.3905,7.4593,7.5027,7.5281,7.5002,0.0,7.2713,7.2545,7.2027,7.1241,7.0763,7.0574,7.0557,7.0528,7.0478,7.0583,7.1355,7.16,7.1672,7.2147,7.2783,7.3221,7.2512,7.2279,7.2289,7.218,7.1648,7.1098,7.1012,7.1501,7.1863,7.1319,7.2265,7.3137,7.2638,7.2513,7.2761,7.3526,7.271,7.2074,7.2601,7.2239,7.182,7.1531,7.1639,7.1893,7.242,7.1146,7.0443,7.1044,7.0568,7.0496,7.1241,7.1929,7.2316,7.2295,7.3054,7.3171,7.2389,7.3101,7.3234,7.2714,7.3308,7.358,7.3582,7.3582,7.3502,7.3342,7.2637,7.2679,6.6487,6.6791,6.669,6.6339,6.5066,6.2759,5.8277,5.5502,5.2664,4.848,4.6563,4.5882,4.6564,4.8409,5.1068,5.5033,5.8219,6.2046,6.7227,6.93,7.106,7.3072,7.479,7.5768,7.5768,7.6492,7.6946,7.6946,7.7724,7.6746,7.3506,7.3253,7.3072,7.271,7.2275,7.1893,7.1494,7.1494,7.1712,7.2146,7.2545,7.3325,7.4556,7.4919,7.5317,7.5696,7.5281,0.0,7.3289,7.2855,7.2219,7.1463,7.1107,7.0976,7.0963,7.0953,7.0924,7.1031,7.1799,7.2084,7.2139,7.2467,7.2586,7.2454,7.2041,7.1936,7.1932,7.1976,7.166,7.1355,7.138,7.1692,7.2043,7.2078,7.2691,7.3173,7.2777,7.3044,7.3434,7.3832,7.3615,7.3362,7.3325,7.2999,7.2456,7.1639,7.2203,7.2891,7.3253,7.269,7.2219,7.2146,7.1422,7.1277,7.2074,7.2456,7.2855,7.3289,7.4086,7.4371,7.4015,7.4753,7.4975,7.4583,7.4922,7.49,7.4489,7.4489,7.4226,7.378,7.3362,7.3402,6.6373,6.6677,6.6622,6.5865,6.4371,6.1584,5.5891,5.3243,5.069,4.6217,4.4947,4.5069,4.6613,4.8147,5.0394,5.4062,5.6609,6.005,6.5518,6.796,7.0315,7.3289,7.5768,7.7289,7.747,7.8231,7.8702,7.8702,7.8955,7.776,7.4556,7.2726,7.1965,7.242,7.2001,7.1675,7.1494,7.1494,7.1893,7.271,7.2855,7.3724,7.51,7.5281,7.5696,7.6239,7.5462,0.0,0.0,7.3036,7.2219,7.1494,7.1494,7.1494,7.1494,7.1494,7.1494,7.1603,7.2219,7.2436,7.2485,7.2644,7.2335,7.1914,7.1727,7.1671,7.1709,7.1895,7.1715,7.1462,7.1648,7.1713,7.1918,7.2562,7.2554,7.2436,7.2436,7.3072,7.3687,7.3868,7.4412,7.4701,7.4231,7.4013,7.347,7.2219,7.3072,7.3977,7.4122,7.4013,7.3724,7.3253,7.2509,7.2291,7.2891,7.3108,7.347,7.4122,7.4919,7.5353,7.5353,7.5949,7.6292,7.6292,7.6292,7.6003,7.5353,7.5353,7.5027,7.4321,7.4325,7.4345,6.5615,6.6305,6.6622,6.5865,6.3981,6.095,5.5789,5.2832,5.0068,4.6113,4.4947,4.5069,4.6613,4.7238,4.8891,5.3123,5.5776,5.9035,6.3925,6.7272,7.0097,7.2545,7.4935,7.671,7.7434,7.8231,7.8702,7.8702,7.7398,7.6473,7.6094,7.3849,7.2275,7.1639,7.2255,7.2239,7.1531,7.1494,7.1893,7.271,7.3434,7.4267,7.5136,7.5877,7.6239,7.6239,7.5462,0.0,0.0,7.3036,7.2219,7.1494,7.1494,7.1494,7.1494,7.1494,7.1494,7.1531,7.1603,7.1603,7.1732,7.2465,7.3143,7.3519,7.278,7.2567,7.2727,7.3452,7.2608,7.1656,7.2388,7.2601,7.2613,7.2685,7.2119,7.1603,7.1603,7.2239,7.3036,7.376,7.3941,7.4231,7.4882,7.4375,7.3832,7.3687,7.3796,7.4158,7.4882,7.4339,7.4158,7.481,7.4158,7.3724,7.376,7.4448,7.4919,7.4991,7.5732,7.6167,7.6167,7.6239,7.6292,7.6292,7.6292,7.6258,7.6191,7.6191,7.6157,7.6072,7.6069,7.6087,6.4613,6.5561,6.5967,6.5222,6.3265,6.0195,5.5111,5.2099,4.9498,4.6408,4.5372,4.5503,4.7084,4.721,4.82,5.1688,5.2636,5.4774,6.005,6.273,6.5736,7.0097,7.3124,7.5732,7.8014,7.8086,7.7977,7.7977,7.7362,0.0,7.7,7.5189,7.376,7.2963,7.3253,7.3036,7.2219,7.1748,7.2146,7.3434,7.376,7.4556,7.5841,7.613,7.6022,7.5551,7.5244,0.0,0.0,7.2818,7.2219,7.1494,7.1494,7.1494,7.1567,7.2022,7.1929,7.1639,7.2601,7.2637,7.2348,7.3144,7.3651,7.3856,7.3521,7.3077,7.2892,7.3678,7.3077,7.2424,7.3224,7.3434,7.3434,7.3434,7.3181,7.2818,7.2327,7.3217,7.4086,7.3941,7.4303,7.4738,7.5027,7.4448,7.3905,7.3905,7.4303,7.4738,7.5063,7.5261,7.5478,7.5804,7.4665,7.4086,7.4593,7.4919,7.5317,7.5804,7.613,7.6292,7.6292,7.6292,7.6292,7.6292,7.6292,7.6292,7.6292,7.6292,7.6292,7.6311,7.6816,7.7014,6.2956,6.414,6.46,6.4072,6.2207,5.9148,5.4245,5.1468,4.9173,4.6618,4.5661,4.5787,4.7407,4.7276,4.7693,5.0204,5.0716,5.2491,5.7369,5.9819,6.2969,6.7924,7.0879,7.3776,7.6963,7.7398,7.7398,7.7144,7.7144,0.0,7.747,7.6674,7.5679,7.4645,7.4375,7.3868,7.3072,7.2239,7.2436,7.3543,7.3796,7.4484,7.5587,7.5841,7.5515,7.4738,7.4738,0.0,0.0,7.2436,7.2001,7.1494,7.1494,7.1494,7.1603,7.2384,7.2364,7.2074,7.3434,7.3543,7.3181,7.3977,7.4267,7.4303,7.452,7.3868,7.3217,7.4013,7.3832,7.347,7.3796,7.3905,7.3905,7.3905,7.3905,7.3724,7.3181,7.4122,7.4919,7.4375,7.4882,7.5462,7.5462,7.5008,7.4593,7.4593,7.51,7.5462,7.5462,7.5949,7.6292,7.6292,7.5297,7.4863,7.5389,7.5462,7.5696,7.6239,7.6292,7.6292,7.6292,7.6292,7.6292,7.6292,7.6292,7.6292,7.6292,7.6292,7.6292,7.6328,7.7362,7.8122,6.052,6.1873,6.2434,6.2434,6.0656,5.7775,5.3312,5.1073,4.9173,4.6618,4.5661,4.5787,4.7407,4.7276,4.7335,4.8699,5.0911,5.3566,5.6754,5.9964,6.3187,6.646,6.825,7.0496,7.3651,7.6094,7.7181,7.6364,7.6311,0.0,7.747,7.8231,7.7941,7.6328,7.5498,7.4701,7.3905,7.3072,7.271,7.271,7.3506,7.3905,7.3941,7.4738,7.4665,0.0,0.0,0.0,0.0,7.1857,7.1531,7.1494,7.1494,7.1494,7.1603,7.2384,7.2674,7.2782,7.3615,7.3905,7.4013,7.4846,7.51,7.5244,7.6022,7.5152,7.405,7.4846,7.51,7.4882,7.4086,7.3905,7.3905,7.3905,7.3905,7.3905,7.3905,7.452,7.51,7.51,7.5732,7.6275,7.6275,7.6292,7.6292,7.6292,7.6292,7.6275,7.6275,7.6275,7.6292,7.6292,7.6292,7.6292,7.6275,7.6275,7.6275,7.6292,7.6292,7.6292,7.6292,7.6292,7.6292,7.6292,7.6292,7.6292,7.6292,7.6292,7.6292,7.6348,7.7941,7.9535,5.5716,5.7239,5.8321,5.7324,5.6129,5.4295,5.0825,4.9255,4.8083,4.646,4.5962,4.622,4.7461,4.7572,4.8323,5.0936,5.2009,5.3603,5.6754,5.9964,6.3187,6.6424,7.2074,7.5877,7.6311,7.7543,7.776,7.6401,7.7326,0.0,7.8303,7.9607,7.9607,7.7977,7.7144,7.6348,7.5551,7.3667,7.2963,7.3506,7.3217,7.3651,7.4738,7.4991,7.4665,0.0,0.0,0.0,0.0,7.1603,7.1494,7.1494,7.1494,7.1857,7.2436,7.3217,7.3506,7.3724,7.508,7.5172,7.4846,7.5659,7.5913,7.5985,7.622,7.5551,7.4774,7.5027,7.5498,7.5877,7.5623,7.5551,7.5551,7.5551,7.5551,7.5406,7.4846,7.5353,7.5768,7.5208,7.5768,7.6292,7.6292,7.6292,7.6292,7.6292,7.6292,7.6292,7.6292,7.6292,7.6292,7.6292,7.6292,7.6292,7.6292,7.6292,7.6292,7.6292,7.6292,7.6292,7.6292,7.6292,7.6292,7.6292,7.6292,7.6292,7.6292,7.6292,7.6855,7.7977,7.9028,8.0114,5.2198,5.3636,5.4532,5.389,5.2976,5.1589,4.9138,4.7988,4.7208,4.6282,4.6098,4.6448,4.7482,4.7689,4.834,5.0343,5.143,5.3059,5.5921,5.9602,6.3404,6.7257,7.2871,7.6239,7.5732,7.6963,7.7362,7.6401,7.7507,0.0,7.8666,7.9933,8.0187,7.9173,7.8086,7.6963,7.5877,7.4066,7.3108,7.2999,7.3108,7.3362,7.376,7.4375,7.405,0.0,0.0,0.0,0.0,7.182,7.1965,7.2001,7.2275,7.271,7.3253,7.405,7.4339,7.4556,7.5841,7.5985,7.5659,7.613,7.6292,7.6292,7.6292,7.5949,7.5534,7.5534,7.5913,7.6292,7.6292,7.6292,7.6292,7.6292,7.6292,7.6167,7.5659,7.5949,7.613,7.5659,7.5949,7.6292,7.6292,7.6292,7.6292,7.6292,7.6292,7.6292,7.6292,7.6292,7.6292,7.6292,7.6292,7.6292,7.6292,7.6292,7.6292,7.6292,7.6292,7.6292,7.6292,7.6292,7.6292,7.6292,7.6292,7.6292,7.6292,7.6601,7.7579,7.9173,7.968,8.0332,0.0,5.0694,5.0964,5.1522,5.071,4.939,4.7988,4.7192,0.0,4.6177,4.6098,4.6448,4.7637,4.7761,4.7797,4.8159,5.009,5.2419,5.4907,5.9457,6.4309,6.9119,7.1675,7.3036,7.3036,7.5116,7.6437,7.6328,7.7108,0.0,7.8593,7.939,7.9788,7.9752,7.8231,7.671,7.5208,7.4267,7.3072,7.1603,7.3036,7.2963,7.1639,7.3181,7.3036,0.0,0.0,0.0,0.0,7.2456,7.2782,7.2855,7.3615,7.3941,7.4086,7.481,7.5136,7.5281,7.6022,7.6292,7.6292,7.6292,7.6292,7.6292,7.6292,7.6292,7.6292,7.6292,7.6292,7.6292,7.6292,7.6292,7.6292,7.6292,7.6292,7.6292,7.6292,7.6292,7.6292,7.6292,7.6292,7.6292,7.6292,7.6292,7.6292,7.6292,7.6292,7.6292,7.6292,7.6292,7.6292,7.6292,7.6292,7.6292,7.6292,7.6292,7.6292,7.6292,7.6292,7.6292,7.6292,7.6292,7.6292,7.6292,7.6292,7.6328,7.6384,7.7181,7.8376,7.9897,7.9969,8.0404,4.4113,0.0,4.6737,4.5722,4.6128,4.6481,0.0,4.5669,4.601,4.6072,4.6098,4.6813,4.9092,4.8532,4.892,5.2613,5.3675,5.5088,5.8094,6.3708,6.93,7.4082,7.5659,7.6384,7.6384,7.7434,7.7615,7.6384,0.0,7.8231,7.7796,7.8557,7.8702,7.8086,7.7108,7.6384,7.6022,7.3993,7.2782,7.2436,7.2183,7.2167,7.2456,7.3434,7.3362,0.0,0.0,0.0,7.2456,7.3289,7.3615,7.3651,7.3832,7.4267,7.4846,7.5027,7.5498,7.6058,7.6239,7.6292,7.6292,7.6292,7.6292,7.6292,7.6292,7.6292,7.6292,7.6292,7.6292,7.6292,7.6292,7.6292,7.6292,7.6292,7.6292,7.6292,7.6292,7.6292,7.6292,7.6292,7.6292,7.6292,7.6292,7.6292,7.6292,7.6292,7.6292,7.6292,7.6292,7.6292,7.6292,7.6292,7.6292,7.6292,7.6292,7.6292,7.6292,7.6292,7.6292,7.6292,7.6292,7.6292,7.6292,7.6292,7.6292,7.6601,7.7217,7.8014,7.8919,7.9933,8.0549,8.0893,4.1284,4.345,4.5486,4.464,4.5331,4.6109,4.5684,4.5544,4.5644,4.603,4.6281,4.6979,4.8692,4.8894,4.9764,5.277,5.4472,5.7152,6.2186,6.6873,7.1257,7.5261,7.6456,7.6927,0.0,7.7326,7.7217,7.6364,0.0,7.7941,7.7507,7.8267,7.834,7.7543,7.6348,7.5587,7.5189,7.3559,7.2493,7.2146,7.2074,7.211,7.2167,7.3362,7.347,0.0,0.0,0.0,7.3325,7.4122,7.4448,7.4484,7.4863,7.5261,7.5659,7.5659,7.5913,7.6292,7.6292,7.6292,7.6292,7.6292,7.6292,7.6292,7.6292,7.6292,7.6292,7.6292,7.6292,7.6292,7.6292,7.6292,7.6292,7.6292,7.6292,7.6292,7.6292,7.6292,7.6292,7.6292,7.6292,7.6292,7.6292,7.6292,7.6292,7.6292,7.6292,7.6292,7.6292,7.6292,7.6292,7.6292,7.6292,7.6292,7.6292,7.6292,7.6292,7.6292,7.6292,7.6292,7.6292,7.6292,7.6292,7.6292,7.6637,7.7253,7.805,7.8847,7.968,8.0476,8.0893,8.1111,4.0506,4.3166,4.5771,4.5297,4.6007,4.6747,4.6612,4.5918,4.5468,4.6086,4.6661,4.7359,4.8265,4.9546,5.0898,5.2165,5.5027,5.9542,6.6533,6.9285,7.1748,7.4919,7.5877,0.0,7.6292,7.642,7.642,7.6328,0.0,7.7434,7.7326,7.7941,7.8014,7.7326,7.5751,7.4593,7.3905,7.2963,7.2183,7.1531,7.2167,7.2183,7.1567,7.3036,7.3325,7.2746,0.0,0.0,7.4158,7.4955,7.5281,7.5353,7.6022,7.6292,7.6275,7.6167,7.613,7.613,7.613,7.613,7.613,7.6239,7.6292,7.6292,7.6292,7.6292,7.6292,7.6292,7.6292,7.6292,7.6292,7.6292,7.6292,7.6292,7.6292,7.6292,7.6292,7.6292,7.6292,7.6292,7.6292,7.6292,7.6292,7.6292,7.6292,7.6292,7.6292,7.6292,7.6292,7.6292,7.6292,7.6292,7.6292,7.6292,7.6292,7.6292,7.6292,7.6292,7.6292,7.6292,7.6292,7.6292,7.6364,7.6456,7.7144,7.7941,7.8883,7.9571,8.0332,8.1111,8.1111,8.1165,4.2388,4.4722,4.6022,4.347,4.4838,4.6593,4.5719,4.5426,4.5571,4.6578,4.7368,4.8696,5.1278,5.1984,5.3277,5.6754,5.999,6.4106,6.9973,7.1096,7.2509,7.5732,7.622,7.6292,7.6292,7.6927,7.7036,7.6364,0.0,7.7181,7.6546,7.6601,7.6601,7.6492,7.4935,7.4013,7.3905,7.242,7.1639,7.1494,7.1639,7.1639,7.1531,7.2456,7.2818,7.2782,0.0,7.4919,7.4991,7.5768,7.613,7.613,7.6256,7.6292,7.622,7.5534,7.5281,7.5281,7.5281,7.5281,7.5389,7.6094,7.6292,7.6292,7.6292,7.6292,7.6292,7.6292,7.6292,7.6292,7.6292,7.6292,7.6292,7.6292,7.6292,7.6292,7.6292,7.6292,7.6292,7.6292,7.6292,7.6292,7.6292,7.6292,7.6292,7.6292,7.6292,7.6292,7.6292,7.6292,7.6292,7.6292,7.6292,7.6292,7.6292,7.6292,7.6292,7.6292,7.6292,7.6292,7.6292,7.6292,7.6618,7.7289,7.7434,7.8231,7.9716,7.9861,8.0332,8.1111,8.1111,8.1454,4.1352,4.3586,4.5377,4.4283,4.6898,4.9669,4.9569,4.9473,4.9556,5.0053,5.0677,5.1537,5.2916,5.382,5.5861,6.0267,6.3671,6.6822,6.9844,7.135,7.2871,7.479,0.0,7.6292,7.6292,7.6637,7.671,7.6328,0.0,0.0,7.6328,7.5877,7.5659,7.5659,7.4086,7.3253,7.3253,7.211,7.1494,7.1494,7.1494,7.1494,7.1531,7.2311,7.2927,7.3398,0.0,7.5353,7.5768,7.613,7.6292,7.6292,7.6292,7.6292,7.6203,7.5389,7.481,7.452,7.4955,7.51,7.5244,7.6022,7.6292,7.6292,7.6292,7.6292,7.6292,7.6292,7.6292,7.6292,7.6292,7.6292,7.6292,7.6292,7.6292,7.6292,7.6292,7.6292,7.6292,7.6292,7.6292,7.6292,7.6292,7.6292,7.6292,7.6292,7.6292,7.6292,7.6292,7.6292,7.6292,7.6292,7.6292,7.6292,7.6292,7.6292,7.6292,7.6292,7.6292,7.6292,7.6292,7.6292,7.6674,7.747,7.7941,7.8738,7.9897,8.0332,8.0748,8.1111,8.1111,8.1309,4.0743,4.2706,4.4802,4.5742,4.8577,5.1517,5.3,5.2949,5.287,5.3749,5.4229,5.4581,5.4762,5.6391,5.9085,6.3359,6.6424,6.8706,6.988,7.1567,7.3072,7.405,7.5261,7.6094,7.6292,7.6292,7.6292,7.6292,0.0,0.0,7.6022,7.5426,7.5027,7.481,7.3434,7.271,7.271,7.1893,7.1494,7.1494,7.1494,7.1494,7.1531,7.2311,7.3144,7.3941,7.4738,7.5551,7.6292,7.6292,7.6292,7.6292,7.6292,7.6167,7.5913,7.51,7.4448,7.3977,7.4593,7.4955,7.5244,7.6022,7.6292,7.6292,7.6292,7.6292,7.6292,7.6292,7.6292,7.6292,7.6292,7.6292,7.6292,7.6292,7.6292,7.6292,7.6292,7.6292,7.6292,7.6292,7.6292,7.6292,7.6292,7.6292,7.6292,7.6292,7.6292,7.6292,7.6292,7.6292,7.6292,7.6292,7.6292,7.6292,7.6292,7.6292,7.6292,7.6292,7.6292,7.6384,7.6582,7.6565,7.7036,7.805,7.8666,7.939,8.0187,8.0802,8.1111,8.1111,8.1111,8.1201,4.2611,4.3876,4.5074,4.6983,4.7679,4.8986,5.3118,5.2878,5.2743,5.6182,5.6922,5.7188,5.7913,6.0606,6.354,6.6134,6.7996,6.988,7.2146,7.2581,7.3289,7.4846,7.5136,7.5462,7.6239,7.6292,7.6292,7.6292,0.0,0.0,7.5244,7.5136,7.4774,7.4013,7.3144,7.271,7.271,7.1893,7.1494,7.1494,7.1494,7.1494,7.1531,7.2311,7.3144,7.3941,7.4738,7.5551,7.6292,7.6292,7.6292,7.6292,7.6292,7.5841,7.51,7.4267,7.3941,7.3905,7.3977,7.4484,7.5244,7.6022,7.6292,7.6292,7.6292,7.6292,7.6292,7.6292,7.6292,7.6292,7.6292,7.6292,7.6292,7.6292,7.6292,7.6292,7.6292,7.6292,7.6292,7.6292,7.6292,7.6292,7.6292,7.6292,7.6292,7.6292,7.6292,7.6292,7.6292,7.6292,7.6292,7.6292,7.6292,7.6292,7.6292,7.6292,7.6292,7.6292,7.6292,7.6637,7.7362,7.7398,7.8122,7.9716,7.9788,8.0223,8.1002,8.1074,8.1111,8.1111,8.1111,8.1491,4.1115,4.3583,4.6176,4.7252,4.924,5.171,5.4803,5.6113,5.7562,6.0964,6.1281,6.0883,6.0652,6.2875,6.5156,6.6569,6.8576,7.0423,7.1748,7.2384,7.2927,7.3543,7.4484,7.5027,7.4826,7.5261,7.537,7.4863,0.0,0.0,7.4375,7.3868,7.347,7.3144,7.2364,7.1965,7.1965,7.1639,7.1494,7.1494,7.1494,7.1748,7.2239,7.2565,7.3398,7.4665,7.4955,7.5551,7.6292,7.6292,7.6292,7.6292,7.6292,7.5804,7.5063,7.4774,7.4339,7.3977,7.4484,7.4846,7.5244,7.6022,7.6292,7.6292,7.6292,7.6292,7.6292,7.6292,7.6292,7.6292,7.6292,7.6292,7.6292,7.6292,7.6292,7.6292,7.6292,7.6292,7.6292,7.6292,7.6292,7.6292,7.6292,7.6292,7.6292,7.6292,7.6292,7.6292,7.6292,7.6292,7.6292,7.6292,7.6292,7.6292,7.6292,7.6292,7.6292,7.6292,7.6292,7.642,7.6763,7.7217,7.8014,7.9136,7.9643,8.0295,8.1111,8.1111,8.1111,8.1111,8.1111,8.1273,4.0421,4.3213,4.6415,4.7578,5.0211,5.3417,5.6783,5.8597,6.0665,6.4396,6.4504,6.3708,6.2897,6.4323,6.5953,6.7003,6.8995,7.0677,7.1386,7.1965,7.2436,7.2674,7.3651,7.4231,7.3941,7.4412,7.4484,7.3941,7.3905,0.0,0.0,7.2999,7.2565,7.2311,7.1784,7.1494,7.1494,7.1494,7.1494,7.1494,7.1494,7.1929,7.271,7.2963,7.3832,7.51,7.5353,7.5804,7.6292,7.6292,7.6292,7.6292,7.6292,7.5949,7.5462,7.5208,7.4919,7.4718,7.4991,7.5281,7.557,7.613,7.6292,7.6292,7.6292,7.6292,7.6292,7.6292,7.6292,7.6292,7.6292,7.6292,7.6292,7.6292,7.6292,7.6292,7.6292,7.6292,7.6292,7.6292,7.6292,7.6292,7.6292,7.6292,7.6292,7.6292,7.6292,7.6292,7.6292,7.6292,7.6292,7.6292,7.6292,7.6292,7.6292,7.6292,7.6292,7.6292,7.6292,7.642,7.669,7.7217,7.8014,7.9064,7.9607,8.0295,8.1111,8.1111,8.1111,8.1111,8.1111,8.1111,4.1092,4.2904,4.5608,4.8028,5.0198,5.3215,5.8743,5.9821,6.0991,6.5808,6.617,6.5374,6.4577,6.5084,6.6134,6.7749,6.9358,7.0677,7.1386,7.1494,7.182,7.2601,7.271,7.2999,7.3796,7.3868,7.3868,7.3868,7.3868,0.0,0.0,7.2674,7.2327,7.1531,7.1494,7.1494,7.1494,7.1494,7.1494,7.1494,7.1494,7.1929,7.271,7.3543,7.4339,7.5136,7.5949,7.6292,7.6292,7.6292,7.6292,7.6292,7.6292,7.6292,7.6203,7.5389,7.5623,7.6167,7.5389,7.5623,7.6292,7.6292,7.6292,7.6292,7.6292,7.6292,7.6292,7.6292,7.6275,7.6275,7.6292,7.6275,7.6275,7.6292,7.6292,7.6292,7.6292,7.6292,7.6292,7.6292,7.6292,7.6292,7.6292,7.6292,7.6292,7.6292,7.6292,7.6292,7.6292,7.6292,7.6292,7.6292,7.6292,7.6292,7.6292,7.6292,7.6292,7.6292,7.6292,7.6637,7.747,7.7507,7.8231,7.9861,7.9897,8.0295,8.1111,8.1111,8.1111,8.1111,8.1111,8.1111,4.0533,4.3905,4.7902,4.9123,5.3375,5.7851,6.0052,6.0955,6.2354,6.6062,6.7076,6.704,6.6243,6.675,6.7619,6.8685,6.9735,7.0677,7.1386,7.1494,7.1603,7.182,7.2348,7.2565,7.2239,7.271,7.2818,7.2255,7.2203,7.211,0.0,7.1857,7.1748,7.1531,7.1494,7.1494,7.1494,7.1494,7.1494,7.1494,7.1494,7.1929,7.271,7.3543,7.4339,7.5136,7.5949,7.6292,7.6292,7.6292,7.6292,7.6292,7.6292,7.6292,7.6292,7.6022,7.6094,7.6292,7.6022,7.6094,7.6292,7.6292,7.6292,7.6292,7.6292,7.6292,7.6292,7.6292,7.5877,7.5587,7.613,7.5877,7.5607,7.6167,7.6292,7.6292,7.6292,7.6292,7.6292,7.6292,7.6292,7.6292,7.6292,7.6292,7.6292,7.6292,7.6292,7.6292,7.6292,7.6292,7.6292,7.6292,7.6292,7.6292,7.6292,7.6292,7.6292,7.6292,7.6292,7.6401,7.6654,7.7181,7.7977,7.9028,7.9607,8.0295,8.1111,8.1111,8.1111,8.1111,8.1111,8.1111,4.2699,4.6221,5.0209,5.2231,5.6214,6.0158,6.2223,6.3331,6.4454,6.6388,6.7184,6.7402,6.6895,6.7474,6.8271,6.9083,7.0134,7.0987,7.1458,7.1494,7.1494,7.1494,7.1929,7.2038,7.1567,7.1929,7.2038,7.1531,7.1494,7.1494,0.0,7.1494,7.1494,7.1494,7.1494,7.1494,7.1494,7.1494,7.1494,7.1494,7.1494,7.1748,7.2239,7.3398,7.452,7.5607,7.6094,7.6292,7.6292,7.6292,7.6292,7.6292,7.6292,7.6292,7.6292,7.6292,7.6292,7.6292,7.6292,7.6292,7.6292,7.6292,7.6292,7.6292,7.6292,7.6292,7.6292,7.6292,7.5949,7.5696,7.6167,7.5949,7.5696,7.6167,7.6292,7.6292,7.6292,7.6292,7.6292,7.6292,7.6292,7.6292,7.6292,7.6292,7.6292,7.6292,7.6292,7.6292,7.6292,7.6292,7.6292,7.6292,7.6292,7.6292,7.6292,7.6292,7.6292,7.6292,7.6292,7.6292,7.6292,7.6763,7.7543,7.8666,7.9173,7.9969,8.1111,8.1111,8.1111,8.1111,8.1111,8.1111,4.6111,4.8998,5.218,5.6161,5.8611,6.1027,6.4758,6.6207,6.6786,6.6786,6.6858,6.6931,6.6931,6.7583,6.8343,6.9083,7.0444,7.1386,7.1386,7.1458,7.1494,7.1494,7.1494,7.1494,7.1494,7.1494,7.1494,7.1494,7.1494,7.1494,7.1494,7.1494,7.1494,7.1494,7.1494,7.1494,7.1494,7.1494,7.1494,7.1494,7.1494,7.1531,7.1675,7.3181,7.479,7.6292,7.6292,7.6292,7.6292,7.6292,7.6292,7.6292,7.6292,7.6292,7.6292,7.6292,7.6292,7.6292,7.6292,7.6292,7.6292,7.6292,7.6292,7.6292,7.6292,7.6292,7.6292,7.6292,7.6256,7.6203,7.6292,7.6256,7.6203,7.6292,7.6292,7.6292,7.6292,7.6292,7.6292,7.6292,7.6292,7.6292,7.6292,7.6292,7.6292,7.6292,7.6292,7.6292,7.6292,7.6292,7.6292,7.6292,7.6292,7.6292,7.6292,7.6292,7.6292,7.6292,7.6292,7.6292,7.6292,7.6292,7.7,7.8557,7.8593,7.9354,8.0857,8.0929,8.0966,8.1002,8.1074,8.1111,4.4462,4.7818,5.1694,5.5653,6.0047,6.3744,6.5265,6.6207,6.6786,6.6786,6.7293,6.7764,6.7764,6.838,6.9011,6.9155,7.0025,7.0641,7.0641,7.1132,7.1494,7.1494,7.1494,7.1494,7.1494,7.1494,7.1494,7.1494,7.1494,7.1494,7.1494,7.1494,7.1494,7.1494,7.1494,7.1494,7.1494,7.1494,7.1494,0.0,7.1494,7.182,7.2456,7.3434,7.479,7.6292,7.6292,7.6292,7.6292,7.6292,7.6292,7.6292,7.6292,7.6292,7.6292,7.6292,7.6292,7.6292,7.6292,7.6292,7.6292,7.6292,7.6292,7.6292,7.6292,7.6292,7.6292,7.6292,7.5841,7.5498,7.613,7.5841,7.5498,7.613,7.6292,7.6292,7.6292,7.6292,7.6292,7.6292,7.6292,7.6292,7.6292,7.6292,7.6292,7.6292,7.6292,7.6292,7.6292,7.6292,7.6292,7.6292,7.6292,7.6292,7.6292,7.6292,7.6292,7.6292,7.6292,7.6292,7.6292,7.6292,7.6746,7.7724,7.776,7.8231,7.9209,7.9861,8.0151,8.0187,8.0785,8.1111,4.589,4.9375,5.3206,5.7958,6.1515,6.4048,6.483,6.5663,6.6243,6.6243,6.6858,6.7438,6.7438,6.809,6.8633,6.8633,6.93,6.9844,6.9844,7.017,7.0423,7.0423,7.0734,7.0951,7.0951,7.1277,7.1494,7.1494,7.1494,7.1494,7.1494,7.1494,7.1494,7.1494,7.1494,7.1494,7.1494,7.1494,7.1494,7.1494,7.1494,7.211,7.3289,7.3724,7.4556,7.5732,7.5732,7.5949,7.6292,7.6292,7.6292,7.6292,7.6292,7.6292,7.6292,7.6292,7.6292,7.6292,7.6292,7.6292,7.6292,7.6292,7.6292,7.6292,7.6292,7.6292,7.6292,7.6292,7.5985,7.5768,7.6167,7.5985,7.5768,7.6203,7.6292,7.6292,7.6292,7.6292,7.6292,7.6292,7.6292,7.6292,7.6292,7.6292,7.6292,7.6292,7.6292,7.6292,7.6292,7.6292,7.6292,7.6292,7.6292,7.6292,7.6292,7.6292,7.6292,7.6292,7.6292,7.6292,7.6292,7.6292,7.6674,7.747,7.7507,7.7905,7.8702,7.9136,7.9318,7.9354,7.9752,8.0151,4.7048,5.1023,5.516,6.029,6.2404,6.3359,6.4048,6.483,6.5374,6.5374,6.6134,6.6786,6.6786,6.7351,6.78,6.78,6.8452,6.8974,6.8974,6.9119,6.9192,6.9192,6.9771,7.0206,7.0206,7.0734,7.1096,7.1096,7.1096,7.1168,7.1313,7.1168,7.1205,7.1494,7.1386,7.1386,7.1494,7.1494,7.1494,7.1494,7.1494,7.2219,7.347,7.347,7.4158,7.5317,7.5317,7.5696,7.6292,7.6292,7.6292,7.6292,7.6292,7.6292,7.6292,7.6292,7.6292,7.6292,7.6292,7.6292,7.6292,7.6292,7.6292,7.6292,7.6292,7.6292,7.6292,7.6292,7.6292,7.6292,7.6292,7.6292,7.6292,7.6292,7.6292,7.6292,7.6292,7.6292,7.6292,7.6292,7.6292,7.6292,7.6292,7.6292,7.6292,7.6292,7.6292,7.6292,7.6292,7.6292,7.6292,7.6292,7.6292,7.6292,7.6292,7.6292,7.6292,7.6292,7.6292,7.6292,7.6292,7.6292,7.6601,7.7289,7.7289,7.7615,7.8303,7.8448,7.8484,7.8484,7.8629,7.9064,4.3142,4.9078,5.5546,5.9059,6.1571,6.3214,6.3359,6.3961,6.4541,6.4541,6.5736,6.6786,6.6786,6.6895,6.6967,6.6967,6.7655,6.8162,6.8162,6.8757,6.9192,6.9192,6.93,6.9373,6.9373,6.9445,6.9518,6.9518,6.9518,6.9808,7.0496,6.988,7.0134,7.1458,7.0879,7.0842,7.1494,7.1494,7.1494,7.1494,7.1494,7.1603,7.182,7.182,7.3414,7.613,7.613,7.6203,7.6292,7.6292,7.6292,7.6292,7.6292,7.6292,7.6292,7.6292,7.6292,7.6292,7.6292,7.6292,7.6292,7.6292,7.6292,7.6292,7.6292,7.6292,7.6292,7.6292,7.6292,7.6292,7.6292,7.6292,7.6292,7.6292,7.6292,7.6292,7.6292,7.6292,7.6292,7.6292,7.6292,7.6292,7.6292,7.6292,7.6292,7.6292,7.6292,7.6292,7.6292,7.6292,7.6292,7.6292,7.6292,7.6292,7.6292,7.6292,7.6292,7.6292,7.6292,7.6292,7.6292,7.6292,7.6364,7.6456,7.6456,7.6492,7.6618,7.7326,7.7651,7.7688,7.8376,7.8774,4.5068,4.982,5.4327,5.7478,5.9724,6.1281,6.1752,6.2838,6.3722,6.3722,6.4649,6.5446,6.5446,6.5446,6.5591,6.6062,6.6424,6.6822,6.7257,6.7619,6.7836,6.7836,6.8235,6.8525,6.8525,6.8938,6.9192,6.9192,6.9192,6.9337,6.9699,6.9373,6.9518,7.0206,6.9916,7.0097,7.0879,7.0879,7.1096,7.1494,7.1494,7.1748,7.2183,7.2183,7.3197,7.4971,7.4971,7.5478,7.6292,7.6292,7.6022,7.5659,7.613,7.5732,7.5008,7.5478,7.5623,7.5623,7.5623,7.5913,7.6292,7.6292,7.6292,7.6292,7.6292,7.6292,7.6292,7.6292,7.6292,7.6292,7.6292,7.6292,7.6292,7.6292,7.6292,7.6292,7.6292,7.6292,7.6292,7.6292,7.6292,7.6292,7.6292,7.6292,7.6292,7.6292,7.6292,7.6292,7.6292,7.6292,7.6292,7.6292,7.6292,7.6292,7.6292,7.6292,7.6292,7.6292,7.6292,7.6292,7.6292,7.6292,7.6292,7.6292,7.6292,7.6292,7.6292,7.6637,7.6818,7.6835,7.7181,7.7579,4.5972,4.9293,5.1792,5.516,5.7514,5.924,6.0254,6.1571,6.2657,6.2838,6.3382,6.378,6.378,6.4106,6.4577,6.5192,6.5301,6.5591,6.6388,6.6496,6.6569,6.6786,6.7329,6.7692,6.7692,6.8235,6.8576,6.8576,6.8576,6.8685,6.8866,6.8685,6.8793,6.9192,6.9011,6.9264,7.0097,7.0315,7.0677,7.1205,7.1422,7.182,7.24,7.24,7.2818,7.3615,7.3796,7.4556,7.5696,7.5696,7.5334,7.4846,7.5478,7.4971,7.3977,7.4556,7.481,7.481,7.5027,7.5498,7.6022,7.6239,7.6292,7.6292,7.6292,7.6167,7.6022,7.6239,7.613,7.6022,7.6256,7.6292,7.6292,7.6292,7.6292,7.6292,7.6292,7.6292,7.6292,7.6292,7.6292,7.6292,7.6292,7.6292,7.6292,7.6292,7.6292,7.6292,7.6292,7.6292,7.6292,7.6292,7.6292,7.6292,7.6292,7.6292,7.6292,7.6292,7.6292,7.6292,7.6292,7.6292,7.6292,7.6292,7.6292,7.6292,7.6292,7.6292,7.6292,7.6292,7.6292,7.6618,4.2845,4.5562,4.7772,5.1756,5.5051,5.7732,5.9325,6.0326,6.1123,6.1919,6.21,6.2136,6.2136,6.3382,6.4396,6.4482,6.4468,6.4722,6.5555,6.5663,6.5953,6.6714,6.6858,6.6858,6.6858,6.6895,6.6931,6.6931,6.6931,6.7257,6.8017,6.7329,6.7619,6.9155,6.8452,6.8452,6.9228,7.0025,7.0423,7.046,7.1168,7.1531,7.1567,7.1567,7.2001,7.2782,7.3579,7.3941,7.4013,7.4013,7.4013,7.3977,7.4013,7.3977,7.3905,7.3941,7.3977,7.4086,7.4846,7.5136,7.5281,7.6058,7.6292,7.6292,7.6292,7.5768,7.5317,7.6094,7.5768,7.5353,7.6094,7.6292,7.6292,7.6292,7.6292,7.6292,7.6292,7.6292,7.6292,7.6292,7.6292,7.6292,7.6292,7.6292,7.6292,7.6292,7.6292,7.6292,7.6292,7.6292,7.6292,7.6292,7.6292,7.6292,7.6292,7.6292,7.6292,7.6292,7.6292,7.6292,7.6292,7.6292,7.6292,7.6292,7.6292,7.6292,7.6292,7.6292,7.6292,7.6292,7.6292,7.6328,4.1512,4.3751,4.5671,4.8666,5.1828,5.4472,5.5558,5.8021,6.0109,6.0398,6.1267,6.1992,6.1992,6.2462,6.3019,6.354,6.3649,6.3903,6.4722,6.5265,6.57,6.5989,6.6496,6.6786,6.6786,6.6786,6.6786,6.6786,6.6786,6.6931,6.7221,6.6967,6.7076,6.7619,6.7366,6.7619,6.8416,6.9228,6.988,7.0387,7.0677,7.1024,7.1494,7.1494,7.1675,7.1965,7.2239,7.2927,7.3905,7.3905,7.3579,7.3181,7.3687,7.3253,7.2436,7.2927,7.3108,7.3181,7.347,7.3905,7.4448,7.5281,7.5172,7.4935,7.5985,7.5732,7.5281,7.6058,7.6094,7.5949,7.6239,7.6292,7.6292,7.6292,7.6292,7.6292,7.6292,7.6292,7.6292,7.6292,7.6292,7.6292,7.6292,7.6292,7.6292,7.6292,7.6292,7.6292,7.6292,7.6292,7.6292,7.6292,7.6292,7.6292,7.6292,7.6292,7.6292,7.6292,7.6292,7.6292,7.6292,7.6292,7.6292,7.6292,7.6292,7.6292,7.6292,7.6292,7.6292,7.6292,7.6292,7.6292,3.9851,4.1687,4.3607,4.6566,4.8894,5.1104,5.3566,5.6138,5.8239,5.9022,6.0471,6.1593,6.1593,6.1811,6.2173,6.2693,6.2802,6.3092,6.3889,6.4482,6.4903,6.5156,6.5663,6.5989,6.5989,6.5989,6.5989,6.5989,6.6243,0.0,6.6388,6.6641,6.6786,6.6786,6.6786,6.7076,6.7568,6.838,6.9083,6.9575,7.0134,7.0677,7.1132,7.1386,7.1494,7.1494,7.1494,7.211,7.3072,7.3072,7.2782,7.2364,7.2891,7.2436,7.1567,7.211,7.2291,7.2364,7.2601,7.3036,7.3687,7.4738,7.4556,7.4158,7.5478,7.5334,7.4846,7.5659,7.5913,7.5949,7.6239,7.6292,7.6292,7.6292,7.6292,7.6292,7.6292,7.6292,7.6292,7.6292,7.6292,7.6292,7.6292,7.6292,7.6292,7.6292,7.6292,7.6292,7.6292,7.6292,7.6292,7.6292,7.6292,7.6292,7.6292,7.6292,7.6292,7.6292,7.6292,7.6292,7.6292,7.6292,7.6292,7.6292,7.6292,7.6292,7.6292,7.6292,7.6292,7.6292,7.6292,7.6292,0.0,0.0,0.0,4.5335,4.6385,4.7916,5.3374,5.4689,5.5401,5.7768,5.9529,6.0688,6.076,6.1412,6.1955,6.1955,6.1992,6.2281,6.3069,6.3178,6.3504,6.4251,6.441,6.4396,6.4396,6.4396,6.4396,6.4396,6.512,6.5555,6.5591,6.6351,6.6786,6.6786,6.6786,6.6786,6.6786,6.7583,6.7966,6.8002,6.9626,7.0387,7.0423,7.1168,7.1494,7.1494,7.1494,7.1494,7.1494,7.1494,7.1494,7.1494,7.1494,7.1494,7.1494,7.1494,7.1494,7.1603,7.24,7.2637,7.2927,7.452,7.4484,7.3977,7.4846,7.4556,7.4086,7.4919,7.5136,7.5317,7.6094,7.6292,7.6292,7.6292,7.6292,7.6292,7.6292,7.6292,7.6292,7.6292,7.6292,7.6239,7.6239,7.6239,7.6239,7.6239,7.6292,7.6292,7.6292,7.6292,7.6292,7.6292,7.6292,7.6292,7.6292,7.6292,7.6292,7.6292,7.6258,7.6258,7.6292,7.6242,7.6242,7.6292,7.6258,7.6258,7.6292,7.6292,7.6292,7.6292,7.6292,7.6292,3.8048,0.0,0.0,0.0,0.0,0.0,4.7591,4.9764,5.2129,5.4508,5.6247,5.7876,5.9615,6.0579,6.1123,6.1123,6.163,6.21,6.2281,6.2838,6.3287,6.3504,6.4048,6.4396,6.4396,6.4396,6.4396,0.0,6.4613,6.4975,6.5555,6.6351,6.6786,6.6786,6.6786,6.6786,6.6786,6.704,6.7438,6.8002,6.9047,6.9844,7.0423,7.1168,7.1494,7.1494,7.1494,7.1494,7.1494,7.1494,7.1494,7.1494,7.1494,7.1494,7.1494,7.1494,7.1494,7.1531,7.1748,7.182,7.2001,7.3036,7.2818,7.2529,7.4484,7.4556,7.4194,7.5587,7.5985,7.6022,7.6239,7.6292,7.6292,7.6292,7.6292,7.6292,7.6292,7.6292,7.6292,7.6292,7.5841,7.5426,7.5426,7.5426,7.5426,7.5426,7.5913,7.6292,7.6292,7.6292,7.6292,7.6292,7.6292,7.6292,7.6292,7.6292,7.6292,7.6292,7.576,7.569,7.6258,7.5137,7.5064,7.6258,7.5725,7.5725,7.6292,7.6292,7.6292,7.6292,7.6292,7.6292,0.0,0.0,0.0,0.0,0.0,0.0,4.683,4.8217,4.9764,5.219,5.3965,5.5558,5.7333,5.8565,5.9529,6.0181,6.0978,6.163,6.1955,6.2404,6.2693,6.2693,6.3128,6.3418,6.3418,6.3418,6.3418,6.3418,6.3708,6.4396,6.5518,6.6025,6.646,6.6786,6.6786,6.6786,6.6786,6.6786,6.704,6.7496,6.8648,6.9445,6.9952,7.1024,7.1494,7.1494,7.1494,7.1494,7.1494,7.1494,7.1494,7.1494,7.1494,7.1494,7.1494,7.1494,7.1494,7.1494,7.1494,7.1494,7.1639,7.2436,7.2384,7.2327,7.4086,7.452,7.4593,7.5551,7.6022,7.6292,7.6292,7.6292,7.6292,7.6292,7.6292,7.6292,7.6292,7.6292,7.6292,7.6292,7.5913,7.5607,7.5607,7.5607,7.5607,7.5607,7.5985,7.6292,7.6292,7.6292,7.6292,7.6292,7.6292,7.6292,7.6292,7.6292,7.6292,7.6292,7.5549,7.5299,7.5777,7.4492,7.4416,7.5777,7.5335,7.5513,7.6292,7.6292,7.6292,7.6292,7.6292,7.6292,0.0,0.0,0.0,0.0,0.0,0.0,4.8543,4.846,4.817,5.0307,5.19,5.3204,5.4182,5.5631,5.7152,5.8601,5.9783,6.0869,6.1847,6.1992,6.1992,6.1992,6.1992,6.1992,6.1992,6.1992,6.1992,6.1992,6.2766,6.383,6.5265,6.5482,6.5917,6.6641,6.675,6.6786,6.6786,6.6786,6.6786,6.6822,6.8431,6.9192,6.9228,7.0806,7.1494,7.1494,7.1494,7.1494,7.1494,7.1494,7.1494,7.1494,7.1494,7.1494,7.1494,7.1494,7.1494,7.1494,7.1494,7.1494,7.1639,7.2311,7.2581,7.271,7.3615,7.4412,7.4991,7.5172,7.5768,7.6292,7.6167,7.6239,7.6292,7.6167,7.6239,7.6292,7.6292,7.6292,7.6292,7.6292,7.6239,7.6167,7.6167,7.6167,7.6167,7.6167,7.6239,7.6292,7.6292,7.6292,7.6292,7.6292,7.6292,7.6292,7.6292,7.6292,7.6292,7.6292,7.5442,7.5009,7.51,7.4072,7.3994,7.5082,7.51,7.5389,7.6002,7.6002,7.6089,7.6157,7.6089,7.6089,0.0,0.0,0.0,0.0,0.0,0.0,4.5635,4.6033,4.6866,4.7337,4.7699,4.8568,5.0644,5.2347,5.353,5.382,5.6681,5.9602,6.1702,6.1992,6.1992,6.1992,6.1992,6.1992,6.1992,6.1992,6.1992,6.1992,6.2766,6.3359,6.3649,6.4903,6.5663,6.5844,6.646,6.6786,6.6786,6.6786,6.6786,6.6822,6.8431,6.9192,6.9228,7.0806,7.1494,7.1494,7.1494,7.1494,7.1494,7.1494,7.1494,7.1494,7.1494,7.1494,7.1494,7.1494,7.1494,7.1494,7.1494,7.1494,7.1531,7.1675,7.1748,7.2001,7.347,7.4013,7.4412,7.5696,7.6167,7.613,7.5498,7.5804,7.613,7.5498,7.5841,7.6292,7.6292,7.6292,7.6292,7.6292,7.5768,7.5317,7.5317,7.5317,7.5317,7.5317,7.5877,7.6292,7.6292,7.6292,7.6292,7.6292,7.6292,7.6292,7.6292,7.6292,7.6292,7.6292,7.49,7.4376,7.5064,7.2949,7.2839,7.5064,7.51,7.4826,7.4283,7.4283,7.4659,7.5299,7.4621,7.4677,0.0,0.0,0.0,4.6985,0.0,0.0,0.0,4.6794,4.6721,4.7544,4.7073,4.7109,4.9148,5.0162,5.0959,5.1767,5.4581,5.7067,5.8298,6.0145,6.1412,6.1412,6.1412,6.1412,6.1412,6.1774,6.1992,6.1992,6.2354,6.2766,6.3178,6.4359,6.5192,6.5591,6.6388,6.6786,6.6786,6.6786,6.6786,6.6822,6.8431,6.9192,6.9228,7.0806,7.1494,7.1494,7.1494,7.1494,7.1494,7.1494,7.1494,7.1494,7.1494,7.1494,7.1494,7.1494,7.1494,7.1494,7.1494,7.1494,7.1494,7.1494,7.2022,7.2855,7.3651,7.4194,7.4738,7.5949,7.5732,7.5189,7.5587,7.5696,7.5696,7.5696,7.6022,7.6292,7.6292,7.5985,7.5696,7.5696,7.5063,7.4774,7.5551,7.5353,7.5244,7.5659,7.5716,7.5707,7.5707,7.5707,7.5707,7.5707,7.6072,7.6292,7.6292,7.6292,7.6292,7.6292,7.4752,7.3994,7.4452,7.2419,7.209,7.376,7.3799,7.3799,7.3799,7.297,7.3215,7.4452,7.3994,7.4033,0.0,0.0,0.0,0.0,0.0,4.817,0.0,0.0,0.0,0.0,0.0,4.6685,4.7978,4.8196,4.863,4.9908,0.0,0.0,0.0,5.7152,0.0,5.9819,6.0145,6.0398,6.0543,6.1014,6.1485,6.1992,6.1557,6.1774,6.2911,6.3708,6.4541,6.5337,6.6134,6.6641,6.6786,6.6786,6.6786,6.6822,6.8286,6.9047,6.9228,7.0661,7.1386,7.1494,7.1494,7.1494,7.1494,7.1494,7.1494,7.1494,7.1494,7.1494,7.1494,7.1494,7.1494,7.1494,7.1494,7.1494,7.1494,7.1494,7.2456,7.3651,7.3651,7.4231,7.4991,7.5659,7.4899,7.4194,7.5515,7.5478,7.5208,7.5732,7.6058,7.622,7.5877,7.5426,7.5063,7.4919,7.4231,7.4122,7.5587,7.5426,7.5317,7.5985,7.5512,7.51,7.51,7.4954,7.4917,7.5082,7.569,7.614,7.6275,7.6157,7.614,7.6275,7.4567,7.3622,7.3799,7.2334,7.1776,7.227,7.2427,7.2749,7.3336,7.1973,7.2068,7.3542,7.3382,7.3402,0.0,0.0,0.0,0.0,5.0948,0.0,0.0,0.0,0.0,4.6106,0.0,0.0,0.0,0.0,0.0,0.0,0.0,0.0,5.0644,5.2878,5.5015,5.6368,5.7804,5.8963,5.9674,5.918,5.971,6.1847,6.0,5.9796,6.2028,6.2911,6.3722,6.4504,6.5301,6.6098,6.6786,6.6786,6.6786,6.6822,6.7728,6.8525,6.9228,7.0134,7.0879,7.1494,7.1494,7.1494,7.1494,7.1494,7.1494,7.1494,7.1494,7.1494,7.1494,7.1494,7.1494,7.1494,7.1494,7.1494,7.1494,7.1494,7.211,7.2818,7.2818,7.3398,7.405,7.4158,7.405,7.3941,7.4122,7.4629,7.4955,7.4303,7.5261,7.5913,7.4484,7.4665,7.4882,7.4158,7.3398,7.3108,7.4013,7.4701,7.5136,7.5208,7.5171,7.51,7.51,7.4433,7.4226,7.5027,7.5173,7.5531,7.6225,7.5655,7.5549,7.6242,7.3979,7.2996,7.376,7.2873,7.2056,7.1434,7.2142,7.2206,7.159,7.1401,7.1776,7.2603,7.1917,7.196,0.0,0.0,0.0,0.0,0.0,0.0,4.9159,0.0,4.8051,0.0,0.0,0.0,0.0,0.0,0.0,0.0,4.7228,0.0,0.0,0.0,5.1853,0.0,0.0,0.0,5.8058,5.7913,5.8311,5.9783,5.8963,5.9072,6.0543,6.2259,6.3359,6.3685,6.4939,6.5772,6.6098,6.6569,6.6786,6.6822,6.7619,6.8199,6.8561,6.9808,7.0568,7.0879,7.1313,7.1494,7.1494,7.1494,7.1494,7.1494,7.1494,7.1494,7.1494,7.1494,7.1494,7.1494,7.1494,7.1494,7.1567,7.2022,7.242,7.2782,7.3253,7.3289,7.3289,7.376,7.3217,7.271,7.3651,7.3796,7.3724,7.3868,7.4774,7.5281,7.4158,7.4158,7.4158,7.3362,7.2529,7.211,7.2456,7.3543,7.4407,7.4397,7.4364,7.4149,7.3661,7.3261,7.318,7.3542,7.4508,7.5227,7.5584,7.5725,7.5916,7.6258,7.4378,7.318,7.3037,7.2249,7.1644,7.1312,7.1622,7.1622,7.1289,7.1289,7.1479,7.182,7.1457,7.1479,5.1513,0.0,0.0,0.0,0.0,0.0,0.0,0.0,0.0,0.0,0.0,0.0,0.0,0.0,0.0,0.0,0.0,4.6892,0.0,4.682,0.0,0.0,0.0,0.0,0.0,5.5848,5.6174,5.7623,5.7152,5.7623,5.9493,6.1245,6.2526,6.3178,6.4541,6.5374,6.5591,6.6388,6.6786,6.6822,6.7387,6.78,6.8054,6.9213,6.9989,7.0423,7.0951,7.1313,7.1494,7.1494,7.1494,7.1494,7.1494,7.1494,7.1494,7.1494,7.1494,7.1494,7.1494,7.1494,7.1603,7.2183,7.2364,7.2456,7.3072,7.2818,7.2509,7.3072,7.2384,7.182,7.3217,7.3144,7.2855,7.3434,7.4194,7.4484,7.347,7.3434,7.3325,7.2529,7.1893,7.1494,7.1494,7.2637,7.356,7.3576,7.3718,7.3503,7.2643,7.252,7.2512,7.2512,7.3622,7.4584,7.5064,7.5406,7.5513,7.5263,7.434,7.3406,7.2502,7.1736,7.1391,7.1616,7.1391,7.1289,7.1289,7.1289,7.1289,7.1289,7.1289,7.1289,0.0,0.0,0.0,5.0934,0.0,0.0,0.0,0.0,4.9593,0.0,0.0,0.0,0.0,0.0,0.0,0.0,0.0,0.0,0.0,0.0,0.0,0.0,0.0,0.0,0.0,5.2408,5.2745,0.0,5.3965,5.4725,5.9348,5.9674,6.0774,6.3142,6.4011,6.4794,6.5591,6.6388,6.6786,6.6786,6.6822,6.7257,6.8002,6.8039,6.8923,7.0387,7.0423,7.0842,7.1494,7.1494,7.1494,7.1494,7.1494,7.1494,7.1494,7.1494,7.1494,7.1494,7.1494,7.1494,7.1494,7.1531,7.1531,7.1531,7.1567,7.1567,7.1531,7.1567,7.1531,7.1712,7.2529,7.271,7.271,7.271,7.3362,7.3506,7.1929,7.2167,7.2493,7.1712,7.1531,7.1494,7.1494,7.2167,7.2746,7.273,7.3413,7.3578,7.2714,7.2545,7.2512,7.2512,7.2554,7.3261,7.4972,7.4357,7.3522,7.2666,7.3362,7.3385,7.244,7.1684,7.165,7.236,7.1661,7.1289,7.1289,7.1289,7.1289,7.1289,7.1289,7.1289,0.0,0.0,5.6464,5.3277,0.0,0.0,0.0,0.0,0.0,0.0,0.0,0.0,0.0,0.0,0.0,0.0,0.0,0.0,0.0,0.0,0.0,0.0,0.0,0.0,0.0,0.0,0.0,5.353,5.3422,0.0,5.708,5.9253,6.076,6.1607,6.2911,6.4011,6.4794,6.5591,6.6279,6.6786,6.6786,6.6931,6.7206,6.7749,6.8307,6.8887,6.9952,7.0532,7.0806,7.1313,7.1494,7.1494,7.1494,7.1494,7.1494,7.1494,7.1494,7.1494,7.1494,7.1494,7.1494,7.1494,7.1494,7.1494,7.1494,7.1494,7.1494,7.1494,7.1494,7.1567,7.1857,7.1929,7.1929,7.1929,7.2529,7.2818,7.1748,7.2146,7.2456,7.1675,7.1494,7.1494,7.1494,7.1748,7.1898,7.1924,7.2599,7.2578,7.1201,7.1415,7.1536,7.1048,7.1897,7.2728,7.3322,7.4184,7.4299,7.3422,7.3641,7.3421,7.2519,7.1726,7.1447,7.1684,7.1424,7.1289,7.1289,7.1289,7.1289,7.1289,7.1289,7.1289,5.5957,5.6971,0.0,5.4762,5.4725,0.0,5.0585,0.0,0.0,0.0,0.0,0.0,0.0,0.0,0.0,0.0,0.0,0.0,0.0,4.416,0.0,0.0,0.0,0.0,0.0,4.8978,4.9474,5.1104,5.1973,5.3349,0.0,5.8383,6.0217,6.076,6.2367,6.3468,6.3975,6.4758,6.5591,6.6388,6.6388,6.6533,6.6822,6.7329,6.7713,6.8075,6.9409,6.9952,7.0061,7.106,7.135,7.1132,7.1386,7.1494,7.1494,7.1494,7.1494,7.1494,7.1494,7.1494,7.1494,7.1494,7.1494,7.1494,7.1494,7.1494,7.1494,7.1494,7.1494,7.1494,7.1494,7.1494,7.1494,7.1494,7.1893,7.2146,7.1603,7.1929,7.211,7.1603,7.1494,7.1494,7.1494,7.1494,7.1516,7.1493,7.2179,7.2104,7.0441,7.0902,7.1077,7.026,7.1082,7.1897,7.2456,7.3573,7.4017,7.3402,7.3342,7.3074,7.2476,7.1726,7.1424,7.1684,7.1424,7.1289,7.1289,7.1289,7.1289,7.1289,7.1289,7.1289]}]]